[[{"header":{"parameterUnit":"m.s-1","parameterCategory":1,"la1":30.6,"la2":29.2853,"lo1":-89.7004,"lo2":-87.6739,"dy":0.0162,"dx":0.0183,"nx":112,"ny":82,"refTime":"2023-08-20T18:00:00:Z","depth":0,"parameterNumber":2,"parameterNumberName":"U-component_of_WINDS"},"data":[0.0,0.0,0.0,0.0,0.0,0.0,0.0,0.0,0.0,0.0,0.0,0.0,0.0,0.0,0.0,0.0,0.0,0.0,0.0,0.0,0.0,0.0,0.0,0.0,0.0,0.0,0.0,0.0,0.0,0.0,0.0,0.0,0.0,0.0,0.0,0.0,0.0,0.0,0.0,0.0,0.0,0.0,0.0,0.0,0.0,0.0,0.0,0.0,0.0,0.0,0.0,0.0,0.0,0.0,0.0,0.0,0.0,0.0,0.0,0.0,0.0,0.0,0.0,0.0,0.0,0.0,0.0,0.0,0.0,0.0,0.0,0.0,0.0,0.0,0.0,0.0,0.0,0.0,0.0,0.0,0.0,0.0,0.0,0.0,0.0,0.0,0.0,0.0,0.0,0.0,-4.2687,-4.5042,-4.6349,-4.6598,-4.5406,-4.2038,-3.7774,-3.2506,0.0,0.0,0.0,0.0,0.0,0.0,0.0,0.0,0.0,0.0,0.0,0.0,0.0,0.0,0.0,0.0,0.0,0.0,0.0,0.0,0.0,0.0,0.0,0.0,0.0,0.0,0.0,0.0,0.0,0.0,0.0,0.0,0.0,0.0,0.0,0.0,0.0,0.0,0.0,0.0,0.0,0.0,0.0,0.0,0.0,0.0,0.0,0.0,0.0,0.0,0.0,0.0,0.0,0.0,0.0,0.0,0.0,0.0,0.0,0.0,0.0,0.0,0.0,0.0,0.0,0.0,0.0,0.0,0.0,0.0,0.0,0.0,0.0,0.0,0.0,0.0,0.0,0.0,0.0,0.0,0.0,0.0,0.0,0.0,0.0,0.0,0.0,0.0,0.0,0.0,0.0,0.0,0.0,0.0,0.0,0.0,0.0,0.0,0.0,0.0,0.0,0.0,0.0,0.0,-4.4234,-4.7124,-4.6781,-4.5845,-4.4594,-4.0996,-3.702,-3.2891,0.0,0.0,0.0,0.0,0.0,0.0,0.0,0.0,0.0,0.0,0.0,0.0,0.0,0.0,0.0,0.0,0.0,0.0,0.0,0.0,0.0,0.0,0.0,0.0,0.0,0.0,0.0,0.0,0.0,0.0,0.0,0.0,0.0,0.0,0.0,0.0,0.0,0.0,0.0,0.0,0.0,0.0,0.0,0.0,0.0,0.0,0.0,0.0,0.0,0.0,0.0,0.0,0.0,0.0,0.0,0.0,0.0,0.0,0.0,0.0,0.0,0.0,0.0,0.0,0.0,0.0,0.0,0.0,0.0,0.0,0.0,0.0,0.0,0.0,0.0,0.0,0.0,0.0,0.0,0.0,0.0,0.0,0.0,0.0,0.0,0.0,0.0,0.0,0.0,0.0,0.0,0.0,0.0,0.0,0.0,0.0,0.0,0.0,0.0,0.0,0.0,0.0,0.0,-4.4397,-4.6213,-4.8284,-4.711,-4.5688,-4.4404,-4.099,-3.7228,-3.3293,-3.1416,0.0,0.0,0.0,0.0,0.0,0.0,0.0,0.0,0.0,0.0,0.0,0.0,0.0,0.0,0.0,0.0,0.0,0.0,0.0,0.0,0.0,0.0,0.0,0.0,0.0,0.0,0.0,0.0,0.0,0.0,0.0,0.0,0.0,0.0,0.0,0.0,0.0,0.0,0.0,0.0,0.0,0.0,0.0,0.0,0.0,0.0,0.0,0.0,0.0,0.0,0.0,0.0,0.0,0.0,0.0,0.0,0.0,0.0,0.0,0.0,0.0,0.0,0.0,0.0,0.0,0.0,0.0,0.0,0.0,0.0,0.0,0.0,0.0,0.0,0.0,0.0,0.0,0.0,0.0,0.0,0.0,0.0,0.0,0.0,0.0,0.0,0.0,0.0,0.0,0.0,0.0,0.0,0.0,0.0,0.0,0.0,0.0,0.0,0.0,0.0,0.0,0.0,-4.6028,-4.7226,-4.8507,-4.7335,-4.595,-4.487,-4.1185,-3.7445,-3.3839,-3.1287,0.0,0.0,0.0,0.0,0.0,0.0,0.0,0.0,0.0,0.0,0.0,0.0,0.0,0.0,0.0,0.0,0.0,0.0,0.0,0.0,0.0,0.0,0.0,0.0,0.0,0.0,0.0,0.0,0.0,0.0,0.0,0.0,0.0,0.0,0.0,0.0,0.0,0.0,0.0,0.0,0.0,0.0,0.0,0.0,0.0,0.0,0.0,0.0,0.0,0.0,0.0,0.0,0.0,0.0,0.0,0.0,0.0,0.0,0.0,0.0,0.0,0.0,0.0,0.0,0.0,0.0,0.0,0.0,0.0,0.0,0.0,0.0,0.0,0.0,0.0,0.0,0.0,0.0,0.0,0.0,0.0,0.0,0.0,0.0,0.0,0.0,0.0,0.0,0.0,0.0,0.0,0.0,0.0,0.0,0.0,0.0,0.0,0.0,0.0,0.0,0.0,0.0,-4.4427,-4.6152,-4.7539,-4.7378,-4.684,-4.6128,-4.1056,-3.6913,-3.4679,-3.0528,0.0,0.0,0.0,0.0,0.0,0.0,0.0,0.0,0.0,0.0,0.0,0.0,0.0,0.0,0.0,0.0,0.0,0.0,0.0,0.0,0.0,0.0,0.0,0.0,0.0,0.0,0.0,0.0,0.0,0.0,0.0,0.0,0.0,0.0,0.0,0.0,0.0,0.0,0.0,0.0,0.0,0.0,0.0,0.0,0.0,0.0,0.0,0.0,0.0,0.0,0.0,0.0,0.0,0.0,0.0,0.0,0.0,0.0,0.0,0.0,0.0,0.0,0.0,0.0,0.0,0.0,0.0,0.0,0.0,0.0,0.0,0.0,0.0,0.0,0.0,0.0,0.0,0.0,0.0,0.0,0.0,0.0,0.0,0.0,0.0,0.0,0.0,0.0,0.0,0.0,0.0,0.0,0.0,0.0,0.0,0.0,0.0,0.0,0.0,0.0,0.0,0.0,-4.4134,-4.5768,0.0,-4.6453,-4.5849,-4.4779,-4.1966,-3.8616,-3.4823,0.0,0.0,0.0,0.0,0.0,0.0,0.0,0.0,0.0,0.0,0.0,0.0,0.0,0.0,0.0,0.0,0.0,0.0,0.0,0.0,0.0,0.0,0.0,0.0,0.0,0.0,0.0,0.0,0.0,0.0,0.0,0.0,0.0,0.0,0.0,0.0,0.0,0.0,0.0,0.0,0.0,0.0,0.0,0.0,0.0,0.0,0.0,0.0,0.0,0.0,0.0,0.0,0.0,0.0,0.0,0.0,0.0,0.0,0.0,0.0,0.0,0.0,0.0,0.0,0.0,0.0,0.0,0.0,0.0,0.0,0.0,0.0,0.0,0.0,0.0,0.0,0.0,0.0,0.0,0.0,0.0,0.0,0.0,0.0,0.0,0.0,0.0,0.0,0.0,0.0,0.0,0.0,0.0,0.0,0.0,0.0,0.0,0.0,0.0,0.0,0.0,0.0,-4.182,-4.3895,-4.5494,0.0,-4.6334,-4.5878,-4.482,-4.2568,-3.9427,-3.5266,0.0,0.0,0.0,0.0,0.0,0.0,0.0,0.0,0.0,0.0,0.0,0.0,0.0,0.0,0.0,0.0,0.0,0.0,0.0,0.0,0.0,0.0,0.0,0.0,0.0,0.0,0.0,0.0,0.0,0.0,0.0,0.0,0.0,0.0,0.0,0.0,0.0,0.0,0.0,0.0,0.0,0.0,0.0,0.0,0.0,0.0,0.0,0.0,0.0,0.0,0.0,0.0,0.0,0.0,0.0,0.0,0.0,0.0,0.0,0.0,0.0,0.0,0.0,0.0,0.0,0.0,0.0,0.0,0.0,0.0,0.0,0.0,0.0,0.0,0.0,0.0,0.0,0.0,0.0,0.0,0.0,0.0,0.0,0.0,0.0,0.0,0.0,0.0,0.0,0.0,0.0,0.0,0.0,0.0,0.0,0.0,0.0,0.0,0.0,0.0,0.0,0.0,-4.1373,-4.3515,-4.5301,-4.6562,-4.7265,-4.7389,-4.6708,-4.2682,-3.8994,0.0,0.0,0.0,0.0,0.0,0.0,0.0,0.0,0.0,0.0,0.0,0.0,0.0,0.0,0.0,0.0,0.0,0.0,0.0,0.0,0.0,0.0,0.0,0.0,0.0,0.0,0.0,0.0,0.0,0.0,0.0,0.0,0.0,0.0,0.0,0.0,0.0,0.0,0.0,0.0,0.0,0.0,0.0,0.0,0.0,0.0,0.0,0.0,0.0,0.0,0.0,0.0,0.0,0.0,0.0,0.0,0.0,0.0,0.0,0.0,0.0,0.0,0.0,0.0,0.0,0.0,0.0,0.0,0.0,0.0,0.0,0.0,0.0,0.0,0.0,0.0,0.0,0.0,0.0,0.0,0.0,0.0,0.0,0.0,0.0,0.0,0.0,0.0,0.0,0.0,0.0,0.0,0.0,0.0,0.0,0.0,0.0,0.0,0.0,0.0,0.0,0.0,0.0,-4.1013,-4.3123,-4.476,-4.5606,-4.6301,-4.6452,-4.5757,-4.2998,-4.0247,-3.7659,0.0,0.0,0.0,0.0,0.0,0.0,0.0,0.0,0.0,0.0,0.0,0.0,0.0,0.0,0.0,0.0,0.0,0.0,0.0,0.0,0.0,0.0,0.0,0.0,0.0,0.0,0.0,0.0,0.0,0.0,0.0,0.0,0.0,0.0,0.0,0.0,0.0,0.0,0.0,0.0,0.0,0.0,0.0,0.0,0.0,0.0,0.0,0.0,0.0,0.0,0.0,0.0,0.0,0.0,0.0,0.0,0.0,0.0,0.0,0.0,0.0,0.0,0.0,0.0,0.0,0.0,0.0,0.0,0.0,0.0,0.0,0.0,0.0,0.0,0.0,0.0,0.0,0.0,0.0,0.0,0.0,0.0,0.0,0.0,0.0,0.0,0.0,0.0,0.0,0.0,0.0,0.0,0.0,0.0,0.0,0.0,0.0,0.0,0.0,0.0,0.0,0.0,-4.0685,-4.271,-4.4369,-4.5253,-4.6142,-4.6441,-4.5753,-4.3297,-4.0611,-3.7846,0.0,0.0,0.0,0.0,0.0,0.0,0.0,0.0,0.0,0.0,0.0,0.0,0.0,0.0,0.0,0.0,0.0,0.0,0.0,0.0,0.0,0.0,0.0,0.0,0.0,0.0,0.0,0.0,0.0,0.0,0.0,0.0,0.0,0.0,0.0,0.0,0.0,0.0,0.0,0.0,0.0,0.0,0.0,0.0,0.0,0.0,0.0,0.0,0.0,0.0,0.0,0.0,0.0,0.0,0.0,0.0,0.0,0.0,0.0,0.0,0.0,0.0,0.0,0.0,0.0,0.0,0.0,0.0,0.0,0.0,0.0,0.0,0.0,0.0,0.0,0.0,0.0,0.0,0.0,0.0,0.0,0.0,0.0,0.0,0.0,0.0,0.0,0.0,0.0,0.0,0.0,0.0,0.0,0.0,0.0,0.0,0.0,0.0,0.0,0.0,0.0,0.0,-4.0401,-4.2334,-4.3931,-4.5092,-4.6255,-4.6694,-4.61,-4.3389,-4.0402,-3.7349,0.0,0.0,0.0,0.0,0.0,0.0,0.0,0.0,0.0,0.0,0.0,0.0,0.0,0.0,0.0,0.0,0.0,0.0,0.0,0.0,0.0,0.0,0.0,0.0,0.0,0.0,0.0,0.0,0.0,0.0,0.0,0.0,0.0,0.0,0.0,0.0,0.0,0.0,0.0,0.0,0.0,0.0,0.0,0.0,0.0,0.0,0.0,0.0,0.0,0.0,0.0,0.0,0.0,0.0,0.0,0.0,0.0,0.0,0.0,0.0,-3.6783,-3.568,0.0,0.0,0.0,0.0,0.0,0.0,0.0,0.0,0.0,0.0,0.0,0.0,0.0,0.0,0.0,0.0,0.0,0.0,0.0,0.0,0.0,0.0,0.0,0.0,0.0,0.0,0.0,0.0,0.0,0.0,0.0,0.0,0.0,0.0,0.0,0.0,0.0,0.0,0.0,0.0,-4.0442,-4.1887,-4.3074,-4.3798,-4.4163,-4.4246,-4.4134,-4.2194,-4.042,-3.9037,-3.5633,0.0,0.0,0.0,0.0,0.0,0.0,0.0,0.0,0.0,0.0,0.0,0.0,0.0,0.0,0.0,0.0,0.0,0.0,0.0,0.0,0.0,0.0,0.0,0.0,0.0,0.0,0.0,0.0,0.0,0.0,0.0,0.0,0.0,0.0,0.0,0.0,0.0,0.0,0.0,0.0,0.0,0.0,0.0,0.0,0.0,0.0,0.0,0.0,0.0,0.0,0.0,0.0,0.0,0.0,0.0,0.0,0.0,0.0,0.0,-3.8441,-3.7352,0.0,0.0,0.0,0.0,0.0,0.0,0.0,0.0,0.0,0.0,0.0,0.0,0.0,0.0,0.0,0.0,0.0,0.0,0.0,0.0,0.0,0.0,0.0,0.0,0.0,0.0,0.0,0.0,0.0,0.0,0.0,0.0,0.0,0.0,0.0,0.0,0.0,0.0,0.0,0.0,-3.9363,-4.0817,-4.1896,-4.2539,-4.3122,-4.3504,-4.3504,-4.1812,-4.0351,-3.9359,-3.647,0.0,0.0,0.0,0.0,0.0,0.0,0.0,0.0,0.0,0.0,0.0,0.0,0.0,0.0,0.0,0.0,0.0,0.0,0.0,0.0,0.0,0.0,0.0,0.0,0.0,0.0,0.0,0.0,0.0,0.0,0.0,0.0,0.0,0.0,0.0,0.0,0.0,0.0,0.0,0.0,0.0,0.0,0.0,0.0,0.0,0.0,0.0,0.0,0.0,0.0,0.0,0.0,0.0,-3.8958,-3.9149,-3.907,-3.9558,-3.995,-4.0187,-3.9096,-3.8566,-3.8369,-3.6889,0.0,0.0,0.0,0.0,0.0,0.0,0.0,0.0,0.0,0.0,0.0,0.0,0.0,0.0,0.0,0.0,0.0,0.0,0.0,0.0,0.0,0.0,0.0,0.0,-3.6303,-3.5798,-3.2612,0.0,0.0,0.0,0.0,0.0,0.0,0.0,0.0,0.0,0.0,0.0,-3.7551,-3.8995,-4.0203,-4.0841,-4.1864,-4.2598,-4.2834,-4.1435,-4.014,-3.9113,-3.7066,-3.4557,0.0,0.0,0.0,0.0,0.0,0.0,0.0,0.0,0.0,0.0,0.0,0.0,0.0,0.0,0.0,0.0,0.0,0.0,0.0,0.0,0.0,0.0,0.0,0.0,0.0,0.0,0.0,0.0,0.0,0.0,0.0,0.0,-3.5136,-3.4898,0.0,0.0,0.0,0.0,0.0,0.0,0.0,0.0,0.0,0.0,0.0,0.0,0.0,-3.2016,-3.2436,-3.3634,-3.4357,-3.4598,-3.5899,-3.6272,-3.5706,-3.5935,-3.6017,-3.6065,-3.5702,0.0,-4.0171,-3.7252,0.0,0.0,0.0,0.0,0.0,0.0,0.0,0.0,0.0,0.0,0.0,0.0,0.0,0.0,0.0,0.0,0.0,0.0,0.0,0.0,0.0,0.0,-3.3697,-3.376,-3.3862,-3.3823,0.0,-3.3374,-3.3361,-3.2922,-3.1271,0.0,0.0,0.0,0.0,0.0,0.0,0.0,-3.4741,-3.5813,-3.6913,-3.7902,-3.8529,-3.921,-4.0108,-3.9956,-3.9601,-3.8968,-3.7713,-3.6381,-3.5013,-3.2208,0.0,0.0,0.0,0.0,0.0,0.0,0.0,0.0,0.0,0.0,0.0,0.0,0.0,0.0,0.0,0.0,0.0,0.0,0.0,0.0,0.0,0.0,0.0,0.0,0.0,0.0,0.0,0.0,0.0,-3.3769,-3.4381,-3.3462,-3.335,-3.2543,0.0,0.0,0.0,0.0,0.0,0.0,0.0,0.0,0.0,-3.1766,-3.2657,-3.3303,-3.3642,-3.462,-3.5322,-3.5703,-3.6326,-3.6469,-3.6236,-3.6518,-3.6387,-3.6011,-3.6231,-3.7019,-3.7998,-3.5503,-3.4168,-3.3638,0.0,0.0,0.0,0.0,-3.1147,-3.1197,-3.1544,-3.1296,-3.0719,-3.0217,0.0,0.0,0.0,0.0,0.0,0.0,0.0,0.0,0.0,0.0,-3.1314,-3.1314,-3.1474,-3.1563,-3.135,-3.115,-3.1514,0.0,-3.223,-3.1509,-3.1866,0.0,0.0,0.0,0.0,-3.4681,-3.4891,-3.5724,-3.6455,-3.6924,-3.714,-3.7465,-3.7919,-3.7691,-3.7486,-3.7197,-3.6208,-3.4987,-3.3496,-3.2044,-3.0672,0.0,0.0,0.0,0.0,0.0,0.0,0.0,0.0,0.0,0.0,0.0,0.0,0.0,0.0,0.0,0.0,0.0,0.0,0.0,0.0,0.0,0.0,0.0,0.0,0.0,0.0,0.0,0.0,-3.2873,-3.3489,-3.232,-3.2546,-3.1895,0.0,0.0,0.0,0.0,0.0,0.0,-3.0546,-3.1183,-3.1585,-3.193,-3.3005,-3.3692,-3.3855,-3.4725,-3.528,-3.5634,-3.5716,-3.5747,-3.5774,-3.6024,-3.5759,-3.5119,-3.5379,-3.5137,-3.4469,-3.3888,-3.3185,-3.2297,-3.1334,-3.0888,-3.0718,-3.0695,-3.0566,-3.0453,-3.0843,-3.0535,-2.9945,-2.9521,-2.875,-2.7868,-2.7363,0.0,0.0,0.0,0.0,-2.802,-2.802,-2.8883,-2.9843,-2.9843,-3.0041,-3.0244,-2.9909,-2.956,-2.9834,0.0,-3.1475,-3.099,-3.0623,0.0,0.0,0.0,0.0,-3.4111,-3.4454,-3.5128,-3.5743,-3.6019,-3.6129,-3.6258,-3.6417,-3.6228,-3.6027,-3.5893,-3.5312,-3.4273,-3.2726,-3.2087,-3.0859,-2.8887,0.0,0.0,0.0,0.0,0.0,0.0,0.0,0.0,0.0,0.0,0.0,0.0,0.0,0.0,0.0,0.0,0.0,0.0,0.0,0.0,0.0,0.0,0.0,0.0,0.0,0.0,0.0,0.0,0.0,-3.2805,-3.2358,0.0,0.0,0.0,0.0,-2.8195,-2.8808,-2.905,-2.8893,-2.9775,-3.0073,-2.9704,-3.0312,-3.0637,-3.065,-3.1232,-3.1436,-3.1463,-3.211,-3.2246,-3.1975,-3.1989,-3.1664,-3.1096,-3.0826,-3.038,-3.0123,-3.3442,-3.4197,-3.3162,-3.1866,-3.0953,-3.041,-3.0362,-3.0575,-3.0921,-3.1221,-3.1128,-3.0785,-3.089,-2.974,-2.8407,-2.9075,-2.8033,0.0,0.0,-2.6753,-2.8068,-2.7276,-2.8586,-3.0135,-3.0206,-3.0293,-3.031,-3.0277,-3.0277,-2.9831,0.0,-2.7553,-2.7005,-2.712,0.0,-2.8888,-2.9083,-3.0798,-3.2018,-3.1742,-3.2489,-3.3355,-3.4386,-3.4861,-3.529,-3.5892,-3.634,-3.635,-3.5915,-3.6295,-3.6038,-3.4968,-3.3274,-3.2246,-3.1961,-2.8846,0.0,0.0,0.0,0.0,0.0,0.0,0.0,0.0,0.0,0.0,0.0,0.0,0.0,0.0,0.0,0.0,0.0,0.0,0.0,0.0,0.0,0.0,0.0,0.0,0.0,0.0,0.0,0.0,-3.2109,-3.255,0.0,-2.9827,-2.8674,-2.8339,-2.9049,-2.9228,-2.9644,-3.0272,-3.0637,-3.0937,-3.1156,-3.137,-3.157,-3.177,-3.1971,-3.2078,-3.2078,-3.2291,-3.2238,-3.1944,-3.1944,-3.153,-3.0782,-3.0488,-3.0034,-2.9636,-3.0862,-3.1109,-3.0508,-2.9798,-2.9445,-2.9236,-2.8991,-2.9015,-2.9182,-2.9344,-2.9128,-2.8733,-2.8204,-2.7502,-2.6766,-2.6659,-2.6298,-2.5788,-2.5313,-2.576,-2.6429,-2.6131,-2.6492,-2.6864,-2.6938,-2.6779,-2.6634,-2.6634,-2.6634,-2.6431,-2.5709,-2.6806,-2.7867,-2.7652,-2.7596,-2.7565,-2.7627,-2.8452,-2.9073,-2.8965,-3.0438,-3.122,-3.0511,-3.1526,-3.1929,-3.1009,-3.0816,-3.0575,-3.0288,-3.0339,-3.0041,-2.9263,-2.9825,-2.9793,-2.8918,-2.7474,-2.6426,0.0,0.0,0.0,0.0,0.0,0.0,0.0,0.0,0.0,0.0,0.0,0.0,0.0,0.0,0.0,0.0,0.0,0.0,0.0,0.0,0.0,0.0,0.0,0.0,0.0,-3.06,-3.1767,-3.1114,-3.2148,-3.2016,-2.9929,-2.9306,-2.9358,-3.0082,-3.0146,-3.0122,-3.0114,-3.0242,-2.998,-2.9457,-2.9469,-2.9555,-2.9824,-3.0821,-3.1325,-3.1236,-3.1428,-3.1731,-3.2251,-3.1257,-3.0886,-3.0929,-3.0635,-2.9649,-2.8308,-2.8398,-2.7725,-2.692,-2.8356,-2.8845,-2.8711,-2.8417,-2.8297,-2.8283,-2.8261,-2.8016,-2.7749,-2.7175,-2.6787,-2.6453,-2.5959,-2.5879,-2.5892,-2.5598,-2.5665,-2.5785,-2.5692,-2.5518,-2.5344,-2.5251,-2.5077,-2.4903,-2.481,-2.4783,-2.4703,-2.4409,-2.5825,-2.6962,-2.6516,-2.6358,-2.6501,-2.6887,-2.7263,-2.7735,-2.8296,-2.9336,-2.965,-2.8577,-2.9404,-2.9547,-2.8246,-2.813,-2.7799,-2.7123,-2.7385,-2.7137,-2.626,-2.7518,-2.7861,-2.6894,-2.5669,-2.4878,-2.4497,0.0,0.0,0.0,0.0,0.0,0.0,0.0,0.0,0.0,0.0,0.0,0.0,0.0,0.0,0.0,0.0,0.0,0.0,0.0,0.0,0.0,0.0,0.0,-2.7997,-2.9125,-2.9866,-2.9625,-3.0748,-3.1169,-3.0384,-3.0261,-3.0478,-3.0955,-3.0995,-3.007,-2.8058,-2.8119,-2.7047,-2.4447,-2.4347,-2.4347,-2.4347,-2.7281,-2.8591,-2.8358,-2.8871,-3.0277,-3.2252,-2.9529,-2.9298,-3.1035,-3.0823,-2.8884,-2.6044,-2.6112,-2.4607,-2.2764,-2.7572,-2.9211,-2.8831,-2.8625,-2.8518,-2.8465,-2.8243,-2.8221,-2.8221,-2.8221,-2.7936,-2.7642,-2.7348,-2.7054,-2.676,-2.6466,-2.6386,-2.6319,-2.6039,-2.6037,-2.5879,-2.5598,-2.5518,-2.5438,-2.5144,-2.5077,-2.4997,-2.469,-2.4409,-2.4035,-2.346,-2.4368,-2.5621,-2.6761,-2.7146,0.0,-2.9685,-2.9102,-2.8587,-2.8809,-2.8668,-2.8325,-2.7932,-2.861,-2.8395,-2.7046,-2.7897,-2.7862,-2.6516,-2.6813,-2.6766,-2.631,-2.3647,-2.224,-2.2154,0.0,0.0,0.0,0.0,0.0,0.0,0.0,0.0,0.0,0.0,0.0,0.0,0.0,0.0,0.0,0.0,0.0,0.0,0.0,0.0,0.0,-2.6276,-2.6115,-2.6425,-2.7646,-2.7902,-2.6016,-2.6299,-2.6584,-2.6419,-2.6103,-2.6168,-2.6573,-2.6595,-2.6428,-2.6036,-2.6008,-2.5735,-2.5022,-2.4921,-2.4921,-2.4921,-2.5797,-2.6205,-2.605,-2.6279,-2.659,-2.6881,-2.6008,-2.6637,-2.8594,-2.7937,-2.7141,-2.6112,-2.5995,-2.4452,-2.2483,-2.5573,-2.6589,-2.6321,-2.6141,-2.5921,-2.6007,-2.7656,-2.8221,-2.8221,-2.8221,-2.7936,-2.7642,-2.7348,-2.7054,-2.676,-2.6466,-2.6386,-2.6373,-2.6293,-2.6119,-2.601,-2.5852,-2.5665,-2.5438,-2.5144,-2.5077,-2.4997,-2.469,-2.4569,-2.4396,-2.4022,-2.3879,-2.4011,-2.4608,-2.4525,0.0,-2.5413,-2.6419,-2.6628,-2.5655,-2.6561,-2.6753,-2.5371,-2.5029,-2.457,-2.3776,-2.3808,-2.3465,-2.2686,-2.4071,-2.4716,-2.4378,-2.358,-2.1978,0.0,0.0,0.0,0.0,0.0,0.0,0.0,0.0,0.0,0.0,0.0,0.0,0.0,0.0,0.0,0.0,0.0,0.0,0.0,0.0,0.0,0.0,-2.7001,-2.5937,-2.5539,-2.6045,-2.6013,-2.4638,-2.477,-2.4941,-2.5031,-2.4749,-2.4699,-2.5011,-2.487,-2.4453,-2.3559,-2.3465,-2.2949,-2.182,-2.1717,-2.1717,-2.1717,-2.2958,-2.3465,-2.3465,-2.3465,-2.4016,-2.49,-2.3481,-2.4048,-2.6122,-2.5395,-2.4323,-2.3085,-2.2961,-2.1394,0.0,0.0,0.0,0.0,0.0,-2.3509,-2.347,-2.4764,-2.5276,-2.5276,-2.5276,-2.518,-2.4891,-2.4602,-2.4386,-2.4344,-2.4874,-2.5012,-2.5251,-2.6149,-2.6266,-2.6132,-2.6132,-2.6012,-2.5798,-2.5504,-2.5344,-2.517,-2.4877,-2.4716,0.0,-2.4409,-2.3995,-2.3906,-2.4539,-2.4004,-2.3772,-2.4526,-2.514,-2.517,-2.4415,-2.5177,-2.531,-2.4268,-2.391,0.0,0.0,0.0,-2.2107,-2.1323,-2.1673,0.0,0.0,0.0,-1.9433,-1.7409,0.0,0.0,0.0,-1.8702,-1.8712,0.0,0.0,0.0,0.0,0.0,0.0,0.0,0.0,0.0,0.0,0.0,0.0,0.0,0.0,0.0,0.0,-2.7924,-2.6233,-2.4608,-2.3842,-2.361,-2.3896,-2.4202,-2.4303,-2.4507,-2.4177,-2.4109,-2.4458,-2.4158,-2.3016,-2.0816,-2.0641,0.0,0.0,0.0,-1.7019,-1.7005,-1.9485,-2.0608,-2.0592,-2.0592,-2.1924,-2.4167,-2.1316,-2.1348,-2.3622,-2.3027,-2.1292,-1.893,-1.8888,-1.7405,-1.5461,-2.0143,-2.1989,-2.1851,-2.1676,-2.1306,-2.0875,-2.1135,0.0,0.0,-2.1221,-2.1201,-2.111,-2.0716,-2.0574,-2.0889,-2.2335,-2.2774,-2.3256,-2.5422,-2.6056,-2.607,-2.6347,-2.6413,-2.6319,-2.6066,-2.5772,-2.5478,-2.5184,-2.4917,-2.473,-2.473,-2.4436,-2.4528,-2.5452,-2.462,-2.4246,-2.5425,-2.479,-2.4369,-2.4649,0.0,0.0,-2.4302,-2.4269,-2.3907,-2.3075,-2.2957,-2.2443,-2.1357,-1.9875,-1.8935,-1.8738,-1.688,-1.5844,-1.5629,-1.5376,-1.514,-1.4993,-1.5629,-1.5903,0.0,0.0,0.0,0.0,0.0,0.0,0.0,0.0,0.0,0.0,0.0,0.0,0.0,0.0,0.0,-2.3757,-2.2612,-2.1673,-2.181,-1.9903,-1.8633,-1.8662,-1.8692,-1.8781,-1.8944,-1.8907,-1.884,-1.8766,-1.8826,-1.8613,-1.7996,-1.811,-1.786,-1.7338,-1.7338,-1.7277,-1.7154,-1.7671,-1.7925,-1.7811,0.0,0.0,-1.8522,-1.7675,-1.8721,-2.1046,-2.0315,-1.9768,-1.9388,-1.8989,-1.7375,-1.54,-1.7993,-1.9121,-1.9312,-2.0754,-2.0134,-1.8714,-2.0529,-2.1221,-2.1221,-2.1221,-2.1014,-2.0853,-2.0772,-2.0537,0.0,-2.0642,-2.0652,-2.1182,-2.3187,-2.3712,-2.4252,-2.6267,-2.656,-2.6373,-2.6319,-2.6079,-2.5785,-2.5491,-2.5384,-2.5344,-2.5344,-2.4703,-2.4315,-2.4737,-2.4455,-2.4262,-2.4737,-2.4623,-2.4663,-2.4957,-2.4943,-2.4917,-2.4917,-2.4495,-2.404,-2.3621,-2.2928,-2.1644,-1.976,-1.935,-1.8473,-1.6913,-1.6536,-1.5558,-1.3944,-1.3909,-1.3087,-1.1717,-1.4605,-1.5758,0.0,0.0,0.0,0.0,0.0,0.0,0.0,0.0,0.0,0.0,0.0,-1.9934,-2.0796,0.0,-2.2173,-2.3395,-2.1875,-2.0711,-2.1092,-1.8918,-1.7195,-1.7195,-1.7263,-1.7365,-1.7521,-1.7467,-1.7419,-1.7419,-1.7419,-1.7385,-1.7311,-1.7378,-1.7419,-1.7419,-1.7344,-1.727,-1.7195,-1.7121,-1.7053,-1.6978,-1.6978,-1.6978,-1.6971,-1.6741,-1.7302,-1.8409,-1.7909,-1.7741,-1.7627,-1.7291,-1.6365,-1.5254,-1.6214,-1.6613,-1.668,-1.7565,-1.7057,-1.621,-1.7334,-1.7772,-1.7772,-1.7772,-1.7617,-1.7524,-1.7432,-1.7339,-1.7392,-1.8289,-1.8569,-1.9042,-2.1166,-2.1709,-2.1987,-2.3271,-2.3353,-2.3247,-2.3247,-2.2943,-2.2706,-2.2498,-2.2369,-2.2288,-2.2288,-2.1884,-2.2015,-2.3167,-2.3254,-2.2867,-2.1801,-2.1744,-2.2265,-2.3566,-2.3667,-2.4074,-2.5015,-2.4543,-2.4008,-2.3581,-2.2125,-2.0712,-1.942,-1.752,-1.604,-1.5091,-1.4215,-1.3287,-1.2331,-1.2255,-1.1709,-1.0833,-1.2518,-1.3208,0.0,0.0,0.0,0.0,0.0,0.0,0.0,-1.9374,-1.954,-1.8217,-1.8568,-1.9525,-2.0807,-2.1173,-2.1722,-2.3109,-2.1613,-2.0321,-2.0466,-1.8628,-1.7283,-1.7283,-1.7392,-1.7528,-1.767,-1.7582,-1.7548,-1.754,-1.7561,-1.7494,-1.7467,-1.7494,-1.7507,-1.7507,-1.7385,-1.7297,-1.7236,-1.7121,-1.7039,-1.6978,-1.6978,-1.6978,-1.6978,-1.6822,-1.6666,-1.6503,-1.6178,-1.5954,-1.5791,-1.552,-1.5337,-1.5215,-1.5099,-1.4943,-1.476,-1.4577,-1.4441,-1.434,-1.4306,-1.4299,-1.4299,-1.4299,-1.4299,-1.4278,-1.4156,-1.4116,-1.443,-1.6058,-1.6515,-1.7009,-1.9147,-1.9642,-1.9819,-2.0279,-2.0256,-2.0076,-2.0249,-1.9886,-1.9554,-1.9594,-1.9354,-1.9203,-1.9203,-1.9203,-1.9662,-2.1164,-2.1531,-2.0968,-1.9074,-1.8962,-1.9699,-2.1435,-2.2067,-2.3052,-2.4953,-2.4596,-2.4062,-2.3527,-2.1472,-2.0005,-1.9278,-1.5841,-1.375,-1.3372,-1.2004,-1.124,-1.1206,-1.109,-1.0934,-1.088,-1.0853,-1.0772,-1.8689,-1.8218,-1.818,-1.782,-1.8186,-1.8266,0.0,-1.7382,-1.7352,-1.6982,-1.7132,-1.7362,-1.7536,-1.767,-1.784,-1.8152,-1.7995,-1.7801,-1.7815,-1.7616,-1.7595,-1.7595,-1.7616,-1.7684,-1.7826,-1.7826,-1.7772,-1.765,-1.7758,-1.7758,-1.7629,-1.7738,-1.7812,-1.7812,-1.7792,-1.767,-1.7399,-1.7378,-1.7243,-1.6978,-1.6978,-1.6978,-1.6978,-1.6822,-1.6666,-1.6497,-1.6069,-1.5798,-1.5649,-1.5479,-1.5398,-1.5384,-1.5371,-1.5194,-1.4909,-1.4618,-1.4502,-1.4468,-1.4346,-1.4299,-1.4299,-1.4299,-1.4299,-1.4299,-1.4278,-1.4272,-1.4333,-1.4437,-1.4475,-1.4873,-1.6924,-1.7468,-1.801,-2.0213,-2.045,-2.0249,-2.0651,-2.0239,-1.9927,-2.0027,-1.9896,-1.9836,-1.9836,-1.9836,-1.9684,-1.9406,-1.9366,-1.9298,-1.9033,-1.8974,-1.9063,-1.9308,-2.1112,-2.3052,-2.4953,-2.4783,-2.4449,-2.4128,-2.2213,-2.0138,-1.803,-1.5776,-1.3698,-1.1851,-1.1637,-1.1504,-1.1362,-1.1348,-1.1206,-1.088,-1.1063,-1.0968,-1.6716,-1.6635,-1.6829,-1.7086,-1.7543,-1.7769,-1.7437,-1.7415,-1.7394,-1.7113,-1.7127,-1.7236,-1.7236,-1.7358,-1.7453,-1.7426,-1.7494,-1.7555,-1.7555,-1.7609,-1.765,-1.765,-1.7717,-1.7792,-1.786,-1.7948,-1.7935,-1.7792,-1.7989,-1.8023,-1.7792,-1.8002,-1.8036,-1.786,-1.786,-1.7724,-1.7426,-1.7331,-1.7182,-1.6978,-1.6978,-1.6978,-1.6978,-1.691,-1.6748,-1.6503,-1.6239,-1.5988,-1.5757,-1.5696,-1.5622,-1.5533,-1.5445,-1.5337,-1.5201,-1.4984,-1.4794,-1.4624,-1.4475,-1.4421,-1.4407,-1.4326,-1.4299,-1.4299,-1.4299,-1.4299,-1.4285,-1.4224,-1.4204,-1.4454,-1.5249,-1.5488,-1.5764,-1.6776,-1.6771,-1.6625,-1.6857,-1.6555,-1.6269,-1.6343,-1.6212,-1.609,-1.609,-1.609,-1.6041,-1.5804,-1.6814,-1.7092,-1.5794,-1.5715,-1.6742,-1.9224,-2.1212,-2.3113,-2.5192,-2.4903,-2.4583,-2.4462,-2.137,-1.9053,-1.8011,-1.477,-1.2554,-1.1619,-1.1531,-1.1497,-1.1525,-1.126,-1.1158,-1.1206,-1.109,-1.1016,-1.5224,-1.5514,-1.5958,-1.6641,-1.725,-1.7565,-1.7701,-1.7808,-1.7791,-1.7534,-1.7589,-1.767,-1.767,-1.7717,-1.7738,-1.7623,-1.767,-1.7704,-1.765,-1.765,-1.7629,-1.7589,-1.7684,-1.7758,-1.7792,-1.7935,-1.7989,-1.786,-1.8111,-1.8158,-1.7935,-1.8179,-1.8199,-1.7935,-1.7935,-1.7758,-1.7426,-1.7311,-1.7161,-1.6978,-1.6978,-1.6978,-1.6978,-1.6937,-1.6795,-1.6571,-1.6388,-1.6185,-1.5974,-1.5886,-1.5791,-1.5689,-1.5574,-1.5506,-1.5459,-1.535,-1.5092,-1.4774,-1.4577,-1.4509,-1.4489,-1.4346,-1.4299,-1.4299,-1.4299,-1.4299,-1.4299,-1.4299,-1.4299,-1.4299,-1.4299,-1.4299,-1.4299,-1.4299,-1.4183,-1.4082,-1.4129,-1.3899,-1.3688,-1.3688,-1.3566,-1.3451,-1.341,-1.3403,-1.3403,-1.3403,-1.4698,-1.5147,-1.3493,-1.3336,-1.4871,-1.8607,-1.9961,-2.1502,-2.3547,-2.3278,-2.2968,-2.2967,-1.9543,-1.7485,-1.7345,-1.3796,-1.1823,-1.1681,-1.1491,-1.1463,-1.1619,-1.1253,-1.1179,-1.1389,-1.1212,-1.1145,-1.4906,-1.5385,-1.5962,-1.6373,-1.6944,-1.75,-1.7935,-1.8043,-1.8091,-1.8247,-1.8287,-1.8287,-1.8287,-1.8179,-1.8077,-1.8077,-1.7948,-1.7812,-1.767,-1.765,-1.7595,-1.7446,-1.7433,-1.7494,-1.765,-1.7792,-1.786,-1.786,-1.8002,-1.8091,-1.8091,-1.8233,-1.8247,-1.8091,-1.8091,-1.786,-1.7426,-1.7412,-1.727,-1.6978,-1.6978,-1.6978,-1.6978,-1.6822,-1.6754,-1.6727,-1.6435,-1.6307,-1.6273,-1.5974,-1.5852,-1.5845,-1.5937,-1.5757,-1.5635,-1.5628,-1.5343,-1.4923,-1.4618,-1.4509,-1.4489,-1.4346,-1.4299,-1.4299,-1.4299,-1.4299,-1.4299,-1.4299,-1.4299,-1.4299,-1.4299,-1.4299,-1.4299,-1.4299,-1.4183,-1.4116,-1.4265,-1.4048,-1.3745,-1.3745,-1.3722,-1.3573,-1.3424,-1.3403,-1.3403,-1.3403,-1.348,-1.348,-1.3397,-1.3397,-1.421,-1.6483,-1.6478,-1.7164,-1.926,-1.9105,-1.8958,-1.8809,-1.6742,-1.5523,-1.5402,-1.3237,-1.1979,-1.183,-1.1538,-1.1463,-1.1619,-1.1457,-1.1382,-1.1396,-1.1531,-1.1443,-1.4571,-1.5459,-1.6467,-1.7066,-1.7568,-1.7935,-1.8179,-1.8247,-1.8247,-1.8301,-1.8218,-1.83,-1.8391,-1.8017,-1.7951,-1.8153,-1.7909,-1.7738,-1.7792,-1.7792,-1.7704,-1.7453,-1.7507,-1.7514,-1.7358,-1.765,-1.786,-1.786,-1.8179,-1.8335,-1.8247,-1.8565,-1.8599,-1.8247,-1.8335,-1.807,-1.7426,-1.7419,-1.727,-1.6978,-1.6978,-1.6978,-1.6978,-1.6931,-1.6849,-1.6637,-1.6646,-1.649,-1.63,-1.6198,-1.6096,-1.5995,-1.5893,-1.5825,-1.5771,-1.5676,-1.5479,-1.5221,-1.4916,-1.4746,-1.4638,-1.4489,-1.438,-1.4299,-1.4299,-1.4299,-1.4299,-1.4299,-1.4299,-1.4299,-1.4299,-1.4299,-1.4299,-1.4299,-1.4265,-1.4238,-1.4292,-1.4136,-1.3966,-1.3858,-1.3729,-1.358,-1.3424,-1.3403,-1.3403,-1.3403,-1.3403,-1.3403,-1.3403,-1.3403,-1.4217,-1.6401,-1.6324,-1.7013,-1.9024,-1.896,-1.8738,-1.8582,-1.6675,-1.5404,-1.5166,-1.3193,-1.1945,-1.1694,-1.1491,-1.1463,-1.1619,-1.1362,-1.1341,-1.1545,-1.1491,-1.1463,-1.4987,-1.5957,-1.6876,-1.7684,-1.8036,-1.8233,-1.8423,-1.8443,-1.8389,-1.8389,-1.8177,-1.8132,-1.8392,-1.7918,-1.7559,-1.7968,-1.7666,-1.746,-1.7602,-1.7582,-1.7494,-1.7358,-1.7426,-1.7433,-1.729,-1.7534,-1.7724,-1.7772,-1.8199,-1.8443,-1.8389,-1.8728,-1.8742,-1.8409,-1.8443,-1.8124,-1.7426,-1.7419,-1.727,-1.6978,-1.6978,-1.6978,-1.6978,-1.6978,-1.6924,-1.6829,-1.6775,-1.6639,-1.6463,-1.6354,-1.6252,-1.6151,-1.5995,-1.5934,-1.5913,-1.5771,-1.5622,-1.5445,-1.5092,-1.4869,-1.4706,-1.4502,-1.4373,-1.4299,-1.4299,-1.4299,-1.4299,-1.4299,-1.4299,-1.4299,-1.4299,-1.4299,-1.4299,-1.4299,-1.4299,-1.4299,-1.4299,-1.4224,-1.4109,-1.3953,-1.3851,-1.3736,-1.3587,-1.3559,-1.3559,-1.3559,-1.3559,-1.3519,-1.3417,-1.3403,-1.3969,-1.535,-1.5275,-1.5691,-1.6916,-1.6825,-1.662,-1.6487,-1.5198,-1.4349,-1.4074,-1.2827,-1.1945,-1.1701,-1.1497,-1.1463,-1.1619,-1.1369,-1.1375,-1.1619,-1.1518,-1.1525,-1.6024,-1.6781,-1.7243,-1.8091,-1.8321,-1.8389,-1.8674,-1.862,-1.8498,-1.8498,-1.8111,-1.7964,-1.8241,-1.7634,-1.714,-1.7573,-1.73,-1.7066,-1.7216,-1.7121,-1.7087,-1.7209,-1.7222,-1.727,-1.7419,-1.7439,-1.7507,-1.7663,-1.807,-1.8375,-1.8531,-1.8694,-1.8694,-1.8531,-1.8175,-1.7925,-1.7439,-1.7426,-1.7277,-1.7005,-1.6992,-1.6992,-1.6992,-1.6985,-1.6978,-1.6971,-1.6829,-1.6754,-1.6727,-1.6442,-1.632,-1.6293,-1.6144,-1.6083,-1.6062,-1.5906,-1.5764,-1.5574,-1.5133,-1.4875,-1.4692,-1.4414,-1.4312,-1.4299,-1.4299,-1.4299,-1.4299,-1.4299,-1.4299,-1.4299,-1.4299,-1.4299,-1.4299,-1.4299,-1.4299,-1.4299,-1.4299,-1.4299,-1.4251,-1.4102,-1.4061,-1.4014,-1.3865,-1.3838,-1.3838,-1.3838,-1.3838,-1.3736,-1.3451,-1.341,-1.341,-1.3403,-1.3268,-1.318,-1.3166,-1.2901,-1.2732,-1.2718,-1.2583,-1.244,-1.2298,-1.2149,-1.1999,-1.1843,-1.1558,-1.1484,-1.1633,-1.1484,-1.1484,-1.1619,-1.1626,-1.1633,-1.6065,-1.7023,-1.786,-1.8091,-1.8233,-1.8335,-1.8409,-1.8321,-1.8145,-1.7914,-1.757,-1.727,-1.7312,-1.6998,-1.6855,-1.7302,-1.7431,-1.7568,-1.7826,-1.7826,-1.7772,-1.7704,-1.7595,-1.7548,-1.7589,-1.7684,-1.7812,-1.7968,-1.8091,-1.8267,-1.8511,-1.8782,-1.8816,-1.8531,-1.6296,-1.5913,-1.7487,-1.7473,-1.7385,-1.7304,-1.7195,-1.7141,-1.7134,-1.7026,-1.6978,-1.6978,-1.6937,-1.6856,-1.6734,-1.6544,-1.6402,-1.6293,-1.6144,-1.6083,-1.6062,-1.5906,-1.5764,-1.5588,-1.5248,-1.4957,-1.4726,-1.4652,-1.4482,-1.4299,-1.4299,-1.4299,-1.4299,-1.4299,-1.4299,-1.4299,-1.4299,-1.4299,-1.4299,-1.4299,-1.4299,-1.4299,-1.4299,-1.4299,-1.4251,-1.4102,-1.398,-1.3885,-1.3844,-1.3838,-1.3838,-1.3838,-1.3838,-1.3777,-1.3593,-1.3573,-1.3526,-1.341,-1.3363,-1.3254,-1.303,-1.2942,-1.2807,-1.2576,-1.2522,-1.244,-1.2298,-1.225,-1.2162,-1.2006,-1.1816,-1.1735,-1.1775,-1.1735,-1.1687,-1.1619,-1.1728,-1.1775,-1.6717,-1.7445,-1.8111,-1.8179,-1.8213,-1.8179,-1.8057,-1.786,-1.7595,-1.7229,-1.6749,-1.6454,-1.6586,-1.6405,-1.6454,-1.6977,-1.7328,-1.765,-1.7948,-1.7989,-1.7989,-1.7968,-1.7894,-1.7846,-1.7846,-1.7914,-1.8023,-1.8179,-1.8247,-1.8389,-1.862,-1.8796,-1.8816,-1.864,-1.6931,-1.6557,-1.7758,-1.7528,-1.7419,-1.7419,-1.7331,-1.7256,-1.7188,-1.7107,-1.7039,-1.6978,-1.6978,-1.6931,-1.6836,-1.6686,-1.6537,-1.6388,-1.6239,-1.6144,-1.6069,-1.5988,-1.5818,-1.5615,-1.5445,-1.5147,-1.4828,-1.476,-1.4624,-1.4496,-1.4496,-1.4448,-1.4407,-1.4475,-1.4441,-1.4394,-1.4394,-1.4394,-1.438,-1.4312,-1.4299,-1.4299,-1.4299,-1.4299,-1.4278,-1.419,-1.4102,-1.4041,-1.4041,-1.4041,-1.4041,-1.4041,-1.4041,-1.3987,-1.3844,-1.3763,-1.3661,-1.3519,-1.3444,-1.3336,-1.3166,-1.3037,-1.2915,-1.2807,-1.2671,-1.2535,-1.2386,-1.2325,-1.2216,-1.2067,-1.1979,-1.1932,-1.1932,-1.1932,-1.1891,-1.1816,-1.1898,-1.1898,-1.7628,-1.7989,-1.8145,-1.8233,-1.8145,-1.7948,-1.7629,-1.7324,-1.6965,-1.6476,-1.5934,-1.5588,-1.5884,-1.5835,-1.6028,-1.663,-1.7127,-1.7514,-1.788,-1.7914,-1.7989,-1.8124,-1.8124,-1.8145,-1.8179,-1.8165,-1.8233,-1.8423,-1.8531,-1.864,-1.8728,-1.8762,-1.866,-1.8181,-1.8383,-1.8108,-1.736,-1.7425,-1.7507,-1.7507,-1.7467,-1.7385,-1.7249,-1.7209,-1.7127,-1.7005,-1.6992,-1.6978,-1.6971,-1.6815,-1.6659,-1.651,-1.6368,-1.6218,-1.6083,-1.6056,-1.5879,-1.5635,-1.5615,-1.5343,-1.4977,-1.4821,-1.4753,-1.474,-1.474,-1.4645,-1.457,-1.4706,-1.4645,-1.4543,-1.4543,-1.4529,-1.4482,-1.436,-1.4578,-1.4734,-1.4734,-1.4992,-1.5256,-1.5256,-1.4992,-1.4734,-1.4734,-1.4476,-1.4299,-1.4299,-1.4299,-1.4251,-1.4122,-1.3966,-1.3817,-1.3675,-1.3519,-1.3424,-1.3403,-1.3146,-1.303,-1.3139,-1.2901,-1.2698,-1.2569,-1.2447,-1.2305,-1.2155,-1.2128,-1.2108,-1.2169,-1.2169,-1.2155,-1.2135,-1.2081,-1.202,-1.7901,-1.8077,-1.8233,-1.8002,-1.7826,-1.7616,-1.7195,-1.6856,-1.6442,-1.5744,-1.533,-1.5004,-1.481,-1.5104,-1.5568,-1.6094,-1.6831,-1.7467,-1.8145,-1.8233,-1.8301,-1.8443,-1.8355,-1.8375,-1.862,-1.8531,-1.862,-1.9027,-1.8952,-1.8816,-1.8586,-1.8816,-1.7819,-1.5116,-1.7332,-1.7269,-1.4575,-1.6808,-1.7968,-1.7968,-1.7717,-1.7595,-1.7561,-1.7311,-1.7175,-1.7148,-1.7032,0.0,-1.6971,-1.6815,-1.6659,-1.651,-1.6368,-1.6218,-1.6069,-1.594,-1.5784,-1.5622,-1.5493,-1.5316,-1.512,-1.4977,-1.4841,-1.474,-1.474,-1.4719,-1.4706,-1.4733,-1.4719,-1.4699,-1.4699,-1.4604,-1.4502,-1.4482,-1.5868,-1.7159,-1.7159,-1.8627,-2.0009,-2.0009,-1.8453,-1.7159,-1.7159,-1.5601,-1.4299,-1.4299,-1.4299,-1.4292,-1.4265,-1.4129,-1.3973,-1.3817,-1.3675,-1.3539,-1.341,-1.3241,-1.3098,-1.3003,-1.2949,-1.2908,-1.2881,-1.2861,-1.2773,-1.2617,-1.2488,-1.2366,-1.225,-1.225,-1.2182,-1.2067,-1.2189,-1.2237,-1.8023,-1.8145,-1.8267,-1.8036,-1.786,-1.7561,-1.6802,-1.6395,-1.594,-1.5113,-1.4774,-1.4577,-1.4428,-1.4828,-1.5303,-1.5669,-1.649,-1.7263,-1.7772,-1.8124,-1.8409,-1.862,-1.8654,-1.8762,-1.8972,-1.8918,-1.8972,-1.9183,-1.9128,-1.904,-1.8884,-1.8952,-1.8281,-1.685,-1.7878,-1.7837,-1.644,-1.7634,-1.8165,-1.8091,-1.7948,-1.7792,-1.754,-1.7412,-1.727,-1.7182,-1.7039,-1.6978,-1.6978,-1.6904,-1.6781,-1.6632,-1.6564,-1.6402,-1.6191,-1.6117,-1.5947,-1.573,-1.5581,-1.5432,-1.5276,-1.5126,-1.5031,-1.497,-1.497,-1.4916,-1.4875,-1.495,-1.4916,-1.4862,-1.4862,-1.4808,-1.509,-1.625,-1.822,-1.9793,-1.9603,-2.0443,-2.1251,-2.146,-2.0434,-1.9613,-1.9803,-1.7743,-1.6122,-1.6122,-1.508,-1.4299,-1.4299,-1.4238,-1.4129,-1.398,-1.3899,-1.3797,-1.3641,-1.3492,-1.3383,-1.3315,-1.3159,-1.3071,-1.3071,-1.3003,-1.2929,-1.2854,-1.2698,-1.2589,-1.2522,-1.244,-1.2366,-1.2291,-1.2366,-1.2359,-1.8077,-1.8233,-1.8321,-1.8145,-1.7948,-1.7555,-1.6544,-1.6049,-1.556,-1.4692,-1.4401,-1.4299,-1.4299,-1.4706,-1.5113,-1.5323,-1.6083,-1.6815,-1.7304,-1.7806,-1.8287,-1.8708,-1.8905,-1.9061,-1.9237,-1.9217,-1.9237,-1.9291,-1.9305,-1.9291,-1.9257,-1.9149,-1.9115,-1.9203,-1.8864,-1.8708,-1.8762,-1.8498,-1.8301,-1.8179,-1.8124,-1.7968,-1.7738,-1.7555,-1.7385,-1.7236,-1.7087,-1.7012,-1.6978,-1.6978,-1.689,-1.6748,-1.6748,-1.6571,-1.6307,-1.6307,-1.6117,-1.5839,-1.5723,-1.5567,-1.5398,-1.5309,-1.5255,-1.5228,-1.5228,-1.5174,-1.514,-1.5248,-1.5201,-1.53,-1.5846,-1.5911,-1.6665,-1.9328,-2.1343,-2.2638,-2.2794,-2.2805,-2.2837,-2.3163,-2.2544,-2.2071,-2.2389,-2.024,-1.8366,-1.7842,-1.621,-1.4911,-1.4387,-1.4299,-1.4251,-1.4136,-1.4089,-1.4021,-1.3899,-1.3756,-1.3675,-1.3675,-1.3417,-1.3268,-1.3268,-1.3132,-1.3037,-1.301,-1.2861,-1.2766,-1.2732,-1.2576,-1.2501,-1.2501,-1.2535,-1.2488,-1.8057,-1.8301,-1.8443,-1.8158,-1.788,-1.7433,-1.6517,-1.5974,-1.5438,-1.4672,-1.4401,-1.4299,-1.4299,-1.4448,-1.4713,-1.5133,-1.5398,-1.594,-1.706,-1.7378,-1.7806,-1.8654,-1.8905,-1.9094,-1.9379,-1.9291,-1.9325,-1.959,-1.9624,-1.9556,-1.9413,-1.9393,-1.9325,-1.9203,-1.9169,-1.9027,-1.8762,-1.8599,-1.8498,-1.8498,-1.8213,-1.8077,-1.8036,-1.7758,-1.7541,-1.7392,-1.7243,-1.71,0.0,-1.6978,-1.689,-1.6748,-1.6748,-1.6571,-1.6307,-1.6307,-1.6117,-1.5852,-1.5839,-1.5649,-1.5432,-1.5554,-1.5506,-1.5391,-1.5391,-1.5479,-1.5581,-1.5594,-1.5588,-1.6049,-1.8503,-1.9037,-2.0024,-2.4283,-2.5252,-2.577,-2.7808,-2.8134,-2.8029,-2.8317,-2.6167,-2.4504,-2.476,-2.2588,-2.0183,-1.8104,-1.7588,-1.6721,-1.4557,-1.4299,-1.4292,-1.4278,-1.4156,-1.4068,-1.4055,-1.3912,-1.3824,-1.3824,-1.3675,-1.3587,-1.3587,-1.3444,-1.3295,-1.3159,-1.301,-1.2868,-1.2732,-1.2576,-1.2501,-1.2508,-1.2644,-1.2705,-1.8134,-1.8375,-1.8599,-1.8301,-1.786,-1.7277,-1.6374,-1.575,-1.5181,-1.4523,-1.434,-1.4299,-1.4299,-1.4346,-1.4441,-1.4624,-1.4848,-1.5235,-1.5893,-1.6429,-1.7121,-1.8111,-1.8511,-1.8972,-1.9624,-1.9644,-1.9698,-1.9908,-1.9841,-1.9766,-1.9698,-1.9522,-1.9447,-1.9488,-1.9217,-1.9061,-1.9027,-1.8796,-1.862,-1.8531,-1.8321,-1.8179,-1.8077,-1.7792,-1.7561,-1.7412,-1.7256,-1.7114,0.0,-1.6978,-1.6944,-1.689,-1.689,-1.6761,-1.6564,-1.6469,-1.6307,-1.6103,-1.592,-1.5778,-1.5676,-1.5649,-1.5655,-1.5662,-1.5574,-1.5588,-1.5642,-1.5642,-1.678,-1.82,-1.9238,-2.1726,-2.4402,-2.6017,-2.7296,-2.8423,-2.9163,-2.8938,-2.8751,-2.9219,-2.7969,-2.6897,-2.7355,-2.5134,-2.2525,-2.0183,-1.8714,-1.6984,-1.4557,-1.4299,-1.4299,-1.4299,-1.4245,-1.4211,-1.4211,-1.4068,-1.398,-1.398,-1.3838,-1.3756,-1.3756,-1.3614,-1.3512,-1.3451,-1.3214,-1.3057,-1.2996,-1.2847,-1.2732,-1.2644,-1.28,-1.282,-1.7902,-1.8287,-1.864,-1.8389,-1.786,-1.7209,-1.6395,-1.5676,-1.5025,-1.4475,-1.4333,-1.4299,-1.4299,-1.4299,-1.4299,-1.4299,-1.4475,-1.476,-1.5187,-1.575,-1.6483,-1.7487,-1.7948,-1.8552,-1.9447,-2.0758,-2.1472,-2.1625,-2.229,-2.2321,-2.1522,-2.1057,-2.0423,-1.959,-1.9237,-1.9094,-1.9203,-1.8959,-1.8742,-1.8599,-1.8409,-1.8233,-1.8091,-1.7826,-1.7602,-1.7412,-1.7304,-1.7154,0.0,-1.6978,-1.6978,-1.6978,-1.6978,-1.689,-1.6734,-1.6625,-1.6497,-1.6334,-1.6076,-1.5961,-1.5906,-1.5805,-1.5805,-1.6048,-1.6803,-1.6991,-1.6991,-1.6991,-1.9489,-2.2067,-2.2067,-2.5221,-2.8302,-2.8106,-2.9013,-2.9993,-2.9793,-2.9285,-2.9018,-2.9513,-2.8885,-2.847,-2.9072,-2.7353,-2.5089,-2.2805,-2.054,-1.8171,-1.5764,-1.4797,-1.4346,-1.4306,-1.4299,-1.4299,-1.4299,-1.4204,-1.4136,-1.4136,-1.3994,-1.3905,-1.3905,-1.377,-1.3688,-1.3688,-1.3397,-1.3241,-1.3241,-1.3051,-1.2901,-1.28,-1.2956,-1.299,-1.7263,-1.7968,-1.8498,-1.8355,-1.786,-1.7263,-1.6653,-1.5825,-1.5052,-1.4604,-1.4394,-1.4299,-1.4299,-1.4299,-1.4299,-1.4299,-1.4299,-1.4563,-1.5303,-1.5547,-1.5981,-1.6883,-1.7249,-1.7792,-1.8694,-2.2549,-2.5051,-2.5229,-2.7952,-2.8163,-2.5221,-2.4451,-2.2735,-1.9554,-1.9291,-1.9203,-1.9203,-1.9061,-1.8905,-1.8762,-1.8464,-1.8233,-1.8091,-1.7935,-1.7704,-1.7419,-1.7419,-1.7249,0.0,-1.6978,-1.6978,-1.6978,-1.6978,-1.689,-1.6748,-1.6748,-1.6653,-1.6497,-1.6354,-1.6205,-1.6083,-1.6076,-1.5974,-1.6489,-1.9461,-2.0357,-2.0357,-2.0357,-2.4105,-2.8144,-2.8144,-2.9612,-3.1129,-3.1129,-3.0782,-3.0354,-3.0354,-2.9887,-2.9566,-2.986,-2.9205,-2.8791,-2.9379,-2.8991,-2.7896,-2.5858,-2.3399,-2.1007,-1.8494,-1.601,-1.4455,-1.4319,-1.4299,-1.4299,-1.4299,-1.4299,-1.4299,-1.4299,-1.4156,-1.4068,-1.4068,-1.3919,-1.3838,-1.3838,-1.3546,-1.3397,-1.3397,-1.3105,-1.2963,-1.2963,-1.3105,-1.3247,-1.6373,-1.6748,-1.7127,-1.6985,-1.6646,-1.6273,-1.5981,-1.5377,-1.4808,-1.4563,-1.4401,-1.4299,-1.4299,-1.4217,-1.4211,-1.4414,-1.4367,-1.4455,-1.4889,-1.5527,-1.6273,-1.7175,-1.8552,-1.9522,-1.98,-2.1163,-2.1998,-2.194,-2.2595,-2.2674,-2.1652,-2.1068,-2.0436,-1.9576,-1.9345,-1.9257,-1.9359,-1.9115,-1.8918,-1.8762,-1.8464,-1.8233,-1.8091,-1.7935,-1.7704,-1.7419,-1.7419,-1.7256,-1.6978,-1.6978,-1.6978,-1.6978,-1.6978,-1.6951,-1.6897,-1.6788,-1.672,-1.6659,-1.651,-1.6361,-1.6252,-1.6347,-1.6286,-1.6692,-1.9681,-2.0467,-2.1189,-2.4991,-2.7232,-2.8917,-3.0717,-3.1526,-3.1824,-3.1824,-3.1383,-3.0955,-3.0955,-3.0327,-2.9873,-3.0167,-2.9513,-2.9032,-2.9419,-2.9325,-2.7812,-2.3687,-2.2557,-2.0634,-1.6226,-1.4951,-1.4455,-1.4319,-1.4299,-1.4299,-1.4299,-1.4299,-1.4299,-1.4299,-1.4251,-1.4231,-1.4231,-1.4082,-1.4,-1.4,-1.3804,-1.3654,-1.3559,-1.3464,-1.3417,-1.3417,-1.3356,-1.341,-1.5609,-1.6049,-1.6503,-1.6415,-1.6164,-1.59,-1.575,-1.5208,-1.4699,-1.4543,-1.4401,-1.4299,-1.4299,-1.4224,-1.4217,-1.4401,-1.436,-1.4441,-1.4848,-1.5486,-1.6307,-1.7378,-1.8884,-1.9875,-1.9976,-2.1446,-2.2361,-2.2183,-2.313,-2.3165,-2.1734,-2.1302,-2.0588,-1.9488,-1.9257,-1.9217,-1.9434,-1.9081,-1.883,-1.8674,-1.8375,-1.8158,-1.8002,-1.7901,-1.7704,-1.7419,-1.7419,-1.7256,0.0,-1.6978,-1.6978,-1.6978,-1.6978,-1.6978,-1.6971,-1.687,-1.6836,-1.6815,-1.6659,-1.6551,-1.6483,-1.651,-1.7203,-1.8402,-2.0207,-2.2067,-2.4407,-2.7958,-2.8866,-2.8883,-2.9477,-2.9408,-2.9043,-2.9043,-2.8632,-2.8244,-2.8244,-2.7772,-2.7372,-2.7536,-2.7057,-2.6653,-2.6892,-2.6815,-2.5756,-2.2612,-2.1527,-1.9834,-1.6415,-1.5132,-1.4523,-1.4319,-1.4299,-1.4299,-1.4299,-1.4299,-1.4299,-1.4299,-1.4299,-1.4299,-1.4299,-1.4211,-1.4156,-1.4156,-1.4007,-1.3885,-1.3797,-1.3736,-1.3709,-1.3709,-1.3614,-1.362,0.0,-1.5716,-1.6368,-1.6374,-1.6185,-1.5954,-1.5832,-1.5262,0.0,-1.4557,-1.4414,-1.4312,-1.4299,-1.4292,-1.4292,-1.4312,-1.4306,-1.4509,-1.5113,-1.5554,-1.6286,-1.7561,-1.8511,-1.9169,-1.9434,-2.2897,-2.5056,-2.4881,-2.7501,-2.767,-2.4425,-2.3808,-2.2315,-1.9308,-1.904,-1.9094,-1.9393,-1.8972,-1.8674,-1.8511,-1.8233,-1.8002,-1.786,-1.786,-1.7704,0.0,-1.7426,-1.7256,-1.6992,-1.6985,-1.6978,-1.6978,-1.6978,-1.6978,-1.6978,-1.6978,-1.6978,-1.6958,-1.6815,-1.6761,-1.6727,-1.6585,-1.8466,-2.0943,-2.0943,-2.4597,-2.8801,-2.8945,-2.8828,-2.8029,-2.5488,-2.4478,-2.4155,-2.4145,-2.3813,-2.3491,-2.3471,-2.3204,-2.2994,-2.2877,-2.2723,-2.2643,-2.2647,-2.2494,-2.23,-2.23,-2.0363,-1.8752,-1.8208,-1.6091,-1.4631,-1.436,-1.4319,-1.4319,-1.4333,-1.4312,-1.4299,-1.4299,-1.4299,-1.4299,-1.4299,-1.4299,-1.4299,-1.4299,-1.415,-1.4075,-1.4075,-1.3919,-1.3844,-1.3858,-1.3858,-1.3858,-1.4353,0.0,-1.4848,-1.4957,-1.5018,-1.5106,0.0,-1.4839,-1.4408,-1.4628,-1.4293,-1.3981,-1.4231,-1.4204,-1.4197,-1.4428,-1.4373,-1.455,-1.5255,-1.6605,-1.7717,-1.8267,-1.9217,-1.9786,-1.9624,-2.0703,-2.142,-2.1259,-2.1846,-2.16,-2.0671,-2.026,-1.973,-1.9047,-1.8776,-1.8776,-1.9094,-1.8871,-1.864,-1.8375,-1.8179,-1.8002,-1.786,-1.786,-1.7758,-1.7589,-1.7473,-1.7317,-1.7134,-1.7026,-1.6978,-1.6978,-1.6978,-1.6978,-1.6978,-1.6978,-1.6978,-1.6978,-1.6937,-1.6849,-1.6637,-1.6707,-1.8639,-2.1035,-2.1035,-2.339,-2.6166,-2.6116,-2.6095,-2.5951,-2.5236,-2.482,-2.4568,-2.4407,-2.4155,-2.3914,-2.3829,-2.3531,-2.3264,-2.33,-2.3018,-2.2826,-2.2853,-2.2826,-2.2158,-2.0207,-1.9449,-1.8395,-1.6044,-1.5174,-1.4713,-1.4645,-1.4529,-1.4509,-1.4624,-1.4428,-1.4299,-1.4299,-1.4299,-1.4299,-1.4299,-1.4299,-1.4299,-1.4299,-1.415,-1.4075,-1.4075,-1.3919,-1.3899,-1.4014,-1.4014,-1.4014,-1.4319,-1.4441,-1.459,-1.4529,-1.4726,-1.4878,-1.4779,-1.4467,-1.4184,-1.4035,-1.3887,-1.3745,-1.3705,-1.4133,-1.4399,-1.3977,-1.4466,-1.5147,-1.5825,-1.6998,-1.7968,-1.8477,-1.9217,-1.9712,-1.9752,-1.9963,-2.0064,-1.9997,-1.9786,-1.9556,-1.9345,-1.9027,-1.883,-1.8776,-1.862,-1.862,-1.8776,-1.864,-1.8443,-1.8213,-1.8057,-1.7948,-1.786,-1.786,-1.7738,-1.7541,-1.7453,-1.7297,-1.7087,-1.7012,-1.6978,-1.6978,-1.6978,-1.6978,-1.6978,-1.6978,-1.6978,-1.6978,-1.6978,-1.6924,-1.6856,-1.6856,-1.7941,-1.9253,-1.9253,-2.0279,-2.1725,-2.2958,-2.3362,-2.3053,-2.1725,-2.1268,-2.1097,-2.0994,-2.0762,-2.0539,-2.0436,-2.0256,-2.0004,-2.0016,-1.9808,-1.9705,-1.9637,-1.9707,-1.9162,-1.7686,-1.7466,-1.6879,-1.519,-1.4896,-1.4821,-1.4746,-1.4665,-1.4652,-1.4733,-1.459,-1.4475,-1.4401,-1.4333,-1.4299,-1.4299,-1.4299,-1.4299,-1.4299,-1.4217,-1.4177,-1.4177,-1.4089,-1.4095,-1.4177,-1.4177,-1.4177,-1.455,-1.4821,-1.5018,-1.4638,-1.4848,-1.5033,-1.446,-1.4255,-1.4117,-1.3609,-1.3757,-1.3739,-1.3374,-1.416,-1.4507,-1.3503,-1.4607,-1.5842,-1.651,-1.7127,-1.7758,-1.8355,-1.8864,-1.9305,-1.9664,-1.9888,-1.9963,-1.9854,-1.9678,-1.9488,-1.9217,-1.9006,-1.8762,-1.8511,-1.8477,-1.8464,-1.8423,-1.8335,-1.8213,-1.8057,-1.8357,-1.8281,-1.7826,-1.8811,-1.853,-1.7419,0.0,0.0,-1.7012,-1.6992,-1.6978,-1.6978,-1.6978,-1.6978,-1.6978,-1.6978,-1.6978,-1.6978,-1.6978,-1.6978,-1.6978,-1.6978,-1.6978,-1.6978,-1.6978,-1.6978,-1.7496,-1.9871,-2.0488,-1.9975,-1.7601,-1.6883,-1.6775,-1.6727,-1.6524,-1.6327,-1.6286,-1.6171,-1.6042,-1.5913,-1.5974,-1.5974,-1.5744,-1.5771,-1.5737,-1.5486,-1.5425,-1.5309,-1.5038,-1.4984,-1.493,-1.4821,-1.4808,-1.4814,-1.4841,-1.4821,-1.4753,-1.4624,-1.4434,-1.4326,-1.4299,-1.4299,-1.4299,-1.4299,-1.4299,-1.4299,-1.4299,-1.4299,-1.4299,-1.4299,-1.4299,-1.4299,-1.4706,-1.5201,-1.5554,-1.4875,-1.4855,-1.5031,-1.5033,-1.4678,-1.4451,-1.4686,-1.4454,-1.4276,-1.4746,-1.4435,-1.4237,-1.4367,-1.5009,-1.5861,-1.6738,-1.7534,-1.7989,-1.7968,-1.8586,-1.8993,-1.8938,-1.9291,-1.9569,-1.9678,-1.9434,-1.9257,-1.9203,-1.8708,-1.8409,-1.8355,-1.8233,-1.8091,-1.7968,-1.8077,-1.8057,-1.8011,-2.0372,-2.0177,-1.7779,-2.2613,-2.207,-1.752,0.0,-1.9401,-1.7148,-1.7032,-1.6978,-1.6978,-1.6978,-1.6978,-1.6978,-1.6978,-1.6978,-1.6978,-1.6978,-1.6978,-1.6978,-1.6978,-1.6978,-1.6978,-1.6978,-1.6978,-1.7083,-1.7496,-1.7601,-1.7496,-1.7083,-1.6965,-1.6876,-1.6619,-1.6524,-1.6422,-1.6171,-1.6096,-1.6076,-1.6049,-1.5961,-1.5913,-1.6001,-1.5825,-1.5655,-1.5608,-1.5493,-1.535,-1.5174,-1.5045,-1.5011,-1.5106,-1.5113,-1.5167,-1.5296,-1.5187,-1.5106,-1.5079,-1.4699,-1.4428,-1.4306,-1.4299,-1.4299,-1.4299,-1.4299,-1.4299,-1.4299,-1.4299,-1.4299,-1.4299,-1.4299,-1.4299,-1.4862,-1.5174,-1.5452,-1.5269,-1.552,-1.5666,-1.5292,-1.5087,-1.4802,-1.4147,-1.4071,-1.4071,-1.3964,-1.4451,-1.5178,-1.6306,-1.6256,-1.6374,-1.719,-1.7568,-1.7758,-1.7846,-1.8321,-1.8694,-1.8871,-1.9149,-1.9305,-1.9291,-1.9094,-1.8918,-1.885,-1.8511,-1.8287,-1.8199,-1.8124,-1.8023,-1.786,-1.7935,-1.7935,-1.786,-1.9082,-1.9766,-1.9899,-2.2465,-2.2096,-1.9607,0.0,-1.9649,-1.7073,-1.7005,-1.6978,-1.6978,-1.6978,-1.6978,-1.6978,-1.6978,-1.6978,-1.6978,-1.6978,-1.6978,-1.6978,-1.6978,-1.6978,-1.6978,-1.6978,-1.6978,-1.6978,-1.6978,-1.6978,-1.6978,-1.6978,-1.6978,-1.6944,-1.6802,-1.6646,-1.6483,-1.6347,-1.6191,-1.6083,-1.6083,-1.6029,-1.6001,-1.6069,-1.5967,-1.5825,-1.5662,-1.5649,-1.5567,-1.5337,-1.5323,-1.5357,-1.5425,-1.5432,-1.5459,-1.5527,-1.5391,-1.5167,-1.4841,-1.4624,-1.4448,-1.4306,-1.4299,-1.4299,-1.4299,-1.4299,-1.4299,-1.4299,-1.4299,-1.4299,-1.4299,-1.4299,-1.4299,-1.5011,-1.5174,-1.5391,-1.5588,-1.5927,-1.6091,-1.5624,-1.561,-1.5409,-1.4311,-1.4422,-1.4451,-1.3801,-1.4607,-1.5879,-1.7186,-1.709,-1.7031,-1.7628,-1.765,-1.767,-1.7901,-1.8158,-1.8464,-1.885,-1.904,-1.9094,-1.8952,-1.883,-1.8694,-1.8531,-1.8355,-1.8213,-1.8091,-1.8057,-1.7968,-1.7812,-1.7812,-1.7812,-1.7812,-1.8347,-1.9753,-2.1697,-2.292,-2.2952,-2.2239,-2.2239,-2.0611,-1.7915,-1.7293,-1.6978,-1.7083,-1.7706,-1.7908,-1.7908,-1.7147,-1.6931,-1.6931,-1.6931,-1.6931,-1.6931,-1.6971,-1.6978,-1.6978,-1.6978,-1.6978,-1.6978,-1.6978,-1.6978,-1.6978,-1.6978,-1.6978,-1.6971,-1.6937,-1.672,-1.6524,-1.6524,-1.632,-1.6144,-1.6178,-1.6157,-1.6137,-1.6137,-1.6103,-1.5995,-1.573,-1.5784,-1.5757,-1.5499,-1.5567,-1.5642,-1.5642,-1.5669,-1.5689,-1.5689,-1.5554,-1.5255,-1.4753,-1.4624,-1.4516,-1.4407,-1.4401,-1.4387,-1.4353,-1.4346,-1.4333,-1.4299,-1.4299,-1.4299,-1.4299,-1.4299,-1.4299,-1.5133,-1.5479,-1.5778,-1.5669,-1.5459,-1.556,-1.6653,-1.6489,-1.6347,-1.6853,-1.6853,-1.6567,-1.5762,-1.5346,-1.5283,-1.5363,-1.6321,-1.734,-1.7925,-1.8057,-1.8057,-1.8077,-1.8213,-1.8389,-1.8552,-1.883,-1.8938,-1.8796,-1.8762,-1.8694,-1.8531,-1.8267,-1.8111,-1.8091,-1.7948,-1.7812,-1.7663,-1.7663,-1.7663,-1.767,-2.0333,-2.1531,-2.1512,-2.6815,-2.7627,-2.4926,-2.4926,-2.3381,-2.0592,-1.8013,-1.6978,-1.7293,-1.9767,-2.08,-2.0463,-1.7744,-1.6768,-1.6768,-1.6768,-1.6768,-1.6788,-1.6937,-1.6978,-1.6978,-1.6978,-1.6978,-1.6978,-1.6978,-1.6978,-1.6978,-1.6978,-1.6978,-1.6944,-1.6802,-1.6639,-1.6524,-1.6524,-1.6402,-1.6334,-1.6463,-1.6381,-1.6293,-1.6293,-1.6178,-1.6029,-1.5859,-1.5845,-1.5798,-1.5642,-1.5635,-1.5642,-1.5642,-1.5757,-1.5839,-1.5839,-1.5703,-1.5547,-1.5357,-1.4957,-1.4719,-1.4706,-1.4706,-1.4638,-1.4502,-1.4496,-1.4434,-1.4299,-1.4299,-1.4299,-1.4299,-1.4299,-1.4299,-1.4686,-1.4997,-1.5217,-1.4777,-1.5066,-1.5778,-1.6978,-1.7056,-1.6755,-1.6895,-1.708,-1.687,-1.5872,-1.6434,-1.6896,-1.648,-1.7249,-1.8054,-1.8233,-1.8145,-1.8124,-1.8213,-1.8199,-1.8267,-1.8511,-1.8552,-1.8511,-1.8355,-1.8342,-1.8287,-1.8124,-1.7935,-1.786,-1.7948,-1.7717,-1.7609,-1.765,-1.7555,-1.746,-1.7365,-1.8523,-1.9828,-2.1365,-2.3427,-2.3747,-2.2648,-2.2648,-2.1103,-1.8634,-1.9253,-1.8529,-1.7083,-1.8118,-1.8529,-1.8417,-1.7329,-1.6897,-1.6897,-1.6897,-1.6897,-1.6904,-1.6965,-1.6978,-1.6978,-1.6978,-1.6978,-1.6978,-1.6978,-1.6978,-1.6978,-1.6978,-1.6978,-1.6965,-1.691,-1.6775,-1.6666,-1.6666,-1.6544,-1.6456,-1.651,-1.6476,-1.6415,-1.6327,-1.6259,-1.6137,-1.5893,-1.5934,-1.594,-1.5791,-1.5852,-1.5913,-1.5913,-1.5961,-1.5954,-1.5859,-1.5805,-1.571,-1.556,-1.5133,-1.4882,-1.4882,-1.4794,-1.4713,-1.4652,-1.4652,-1.4624,-1.457,-1.457,-1.457,-1.457,-1.457,-1.4523,-1.4542,-1.4737,-1.488,-1.4775,-1.4996,-1.5704,-1.7237,-1.7382,-1.7307,-1.763,-1.7399,-1.7001,-1.6289,-1.6975,-1.7682,-1.8251,-1.9133,-2.01,-2.0821,-2.0154,-1.9425,-1.9498,-1.8685,-1.8179,-1.8375,-1.8355,-1.8247,-1.8111,-1.8091,-1.8023,-1.786,-1.7717,-1.7704,-1.7792,-1.7548,-1.7446,-1.7507,-1.7399,-1.727,-1.7127,-1.7127,-1.8587,-2.128,-2.1162,-2.1622,-2.2338,-2.1518,-2.0079,-1.832,-1.9357,-1.9253,-1.8222,-1.7293,-1.7496,-1.8215,-1.7238,-1.691,-1.691,-1.691,-1.691,-1.6917,-1.6965,-1.6978,-1.6978,-1.6978,-1.6978,-1.6978,-1.6978,-1.6978,-1.6978,-1.6978,-1.6978,-1.6978,-1.6978,-1.6863,-1.6761,-1.6809,-1.6666,-1.6551,-1.6646,-1.6551,-1.6435,-1.6388,-1.63,-1.6164,-1.5954,-1.6015,-1.6042,-1.594,-1.6015,-1.6103,-1.6151,-1.6151,-1.611,-1.6008,-1.5906,-1.5832,-1.5784,-1.5404,-1.5181,-1.5181,-1.5079,-1.4997,-1.495,-1.495,-1.493,-1.4882,-1.4835,-1.4814,-1.4808,-1.476,-1.4685,-1.5048,-1.4861,-1.5126,-1.5902,-1.528,-1.5112,-1.7565,-1.786,-1.8036,-1.94,-1.8367,-1.7086,-1.7197,-1.6742,-1.7449,-2.0562,-2.1957,-2.3576,-2.6455,-2.4229,-2.2413,-2.2236,-1.9862,-1.8091,-1.8091,-1.8233,-1.8247,-1.8111,-1.8091,-1.8023,-1.786,-1.7717,-1.765,-1.765,-1.75,-1.7344,-1.7195,-1.7195,-1.7121,-1.6978,-1.6985,-1.8424,-2.1103,-2.1103,-2.2545,-2.5009,-2.2235,-2.1103,-2.0903,-1.8118,-1.8634,-2.08,-1.8118,-1.8634,-2.0671,-1.7826,-1.6754,-1.6754,-1.6748,-1.6754,-1.6775,-1.6931,-1.6978,-1.6978,-1.6978,-1.6978,-1.6978,-1.6978,-1.6978,-1.6978,-1.6978,-1.6978,-1.6978,-1.6978,-1.6863,-1.6795,-1.6944,-1.6741,-1.6619,-1.6924,-1.6619,-1.6361,-1.6497,-1.6279,-1.6083,-1.6083,-1.6083,-1.6083,-1.6083,-1.6083,-1.6144,-1.6293,-1.6313,-1.6313,-1.6307,-1.6035,-1.592,-1.6076,-1.5805,-1.5642,-1.5642,-1.5642,-1.5567,-1.5418,-1.5411,-1.5337,-1.5187,-1.5045,-1.4977,-1.497,-1.4814,-1.474,-1.3423,-1.3932,-1.4415,-1.4201,-1.5233,-1.6558,-1.7557,-1.7702,-1.8145,-1.961,-1.9064,-1.882,-2.0728,-2.1268,-2.2129,-2.4477,-2.55,-2.6221,-2.6903,-2.5959,-2.5356,-2.5442,-2.2785,-2.1032,-2.1152,-1.9233,-1.7989,-1.7935,-1.7935,-1.7914,-1.786,-1.7623,-1.7541,-1.765,-1.7297,-1.7134,-1.7195,-1.7195,-1.7121,-1.6985,-1.708,-1.7495,-1.8222,-1.8222,-1.8634,-1.9357,-1.8529,-1.8222,-1.8118,-1.7293,-1.8634,-2.08,-1.8118,-1.7496,-1.8096,-1.7114,-1.6822,-1.6897,-1.6788,-1.6822,-1.6904,-1.6836,-1.689,-1.6958,-1.6849,-1.6897,-1.6978,-1.6978,-1.6978,-1.6978,-1.6978,-1.6978,-1.6978,-1.6978,-1.6944,-1.6924,-1.6971,-1.691,-1.687,-1.6965,-1.6781,-1.6598,-1.653,-1.6449,-1.6361,-1.6259,-1.6239,-1.6239,-1.6239,-1.6239,-1.63,-1.6442,-1.6456,-1.6415,-1.632,-1.6225,-1.6151,-1.6083,-1.6001,-1.59,-1.5791,-1.5689,-1.5615,-1.5574,-1.5567,-1.5547,-1.5506,-1.535,-1.5282,-1.5276,-1.512,-1.4997,-1.3843,-1.4275,-1.4668,-1.4961,-1.6008,-1.7182,-1.8059,-1.8542,-1.8972,-2.0008,-2.0737,-2.157,-2.3263,-2.4597,-2.6214,-2.8459,-2.8998,-2.9437,-3.0282,-2.9159,-2.8307,-2.8457,-2.5742,-2.352,-2.2371,-2.0654,-1.9082,-1.7889,-1.7772,-1.7812,-1.786,-1.7582,-1.746,-1.7555,-1.7182,-1.7019,-1.7107,-1.7107,-1.7066,-1.6985,-1.7066,-1.7066,-1.6978,-1.6978,-1.6978,-1.6978,-1.6978,-1.6978,-1.6978,-1.6978,-1.8013,-1.9357,-1.7601,-1.6978,-1.6971,-1.6876,-1.6904,-1.6965,-1.6876,-1.6904,-1.6958,-1.6802,-1.6856,-1.6951,-1.6795,-1.6856,-1.6978,-1.6978,-1.6978,-1.6978,-1.6978,-1.6978,-1.6978,-1.6978,-1.6978,-1.6978,-1.6978,-1.6931,-1.691,-1.6971,-1.6809,-1.6632,-1.6537,-1.6524,-1.6476,-1.6334,-1.6361,-1.6395,-1.6395,-1.6449,-1.6517,-1.6605,-1.6612,-1.6578,-1.649,-1.6429,-1.6334,-1.6185,-1.6225,-1.6164,-1.5954,-1.5859,-1.5811,-1.5811,-1.5811,-1.5811,-1.5811,-1.5601,-1.5499,-1.5499,-1.5282,-1.514,-1.5354,-1.5398,-1.5503,-1.7176,-1.7325,-1.7583,-1.9131,-1.9942,-2.0383,-2.0865,-2.2905,-2.4897,-2.5694,-2.7552,-2.9949,-3.2662,-3.2646,-3.3077,-3.531,-3.3129,-3.1296,-3.1249,-2.865,-2.5762,-2.2991,-2.2436,-2.1159,-1.816,-1.795,-1.7895,-1.7812,-1.7555,-1.7399,-1.7399,-1.7127,-1.6978,-1.6978,-1.6992,-1.6992,-1.6978,-1.6992,-1.6992,-1.6978,-1.6978,-1.6978,-1.6978,-1.6978,-1.6978,-1.6978,-1.6978,-1.6978,-1.6978,-1.6978,-1.6978,-1.6978,-1.6965,-1.6971,-1.6978,-1.6965,-1.6971,-1.6958,-1.6802,-1.6856,-1.6951,-1.6795,-1.6856,-1.6978,-1.6978,-1.6978,-1.6978,-1.6978,-1.6978,-1.6978,-1.6978,-1.6978,-1.6978,-1.6965,-1.6863,-1.6809,-1.6937,-1.6734,-1.6544,-1.6544,-1.6544,-1.6497,-1.6368,-1.6463,-1.664,-1.6844,-1.6762,-1.6754,-1.7072,-1.6872,-1.6768,-1.6754,-1.6619,-1.6483,-1.6341,-1.6449,-1.6395,-1.611,-1.6103,-1.6096,-1.6083,-1.6083,-1.6083,-1.6083,-1.5798,-1.5649,-1.5635,-1.5337,-1.5194,-1.4125,-1.5091,-1.6215,-1.7144,-1.8347,-1.9394,-2.0031,-2.0329,-2.1217,-2.3731,-2.469,-2.6669,-3.1846,-3.2929,-3.4087,-3.6948,-3.6719,-3.6223,-3.6271,-3.5308,-3.4383,-3.4046,-3.1397,-2.9263,-2.8385,-2.6143,-2.3718,-2.0864,-2.065,-1.9716,-1.7622,-1.7344,-1.7243,-1.7243,-1.7073,-1.6978,-1.6978,-1.7093,-1.7087,-1.6985,-1.7093,-1.7087,-1.6978,-1.6978,-1.6978,-1.6978,-1.6978,-1.6978,-1.6978,-1.6978,-1.6978,-1.6978,-1.6978,-1.6978,-1.6965,-1.6842,-1.6876,-1.6965,-1.6842,-1.6876,-1.6958,-1.6802,-1.6856,-1.6951,-1.6795,-1.6856,-1.6978,-1.6978,-1.6978,-1.6978,-1.6978,-1.6978,-1.6978,-1.6978,-1.6978,-1.6944,-1.6829,-1.687,-1.6904,-1.6815,-1.6748,-1.67,-1.67,-1.67,-1.6686,-1.6659,-1.668,-1.7409,-1.9647,-1.8056,-1.7611,-1.9903,-1.8269,-1.6883,-1.6761,-1.672,-1.6632,-1.6483,-1.6503,-1.6442,-1.6266,-1.6259,-1.6205,-1.6083,-1.6083,-1.6083,-1.6083,-1.59,-1.575,-1.5635,-1.5445,-1.5296,-1.4571,-1.543,-1.6353,-1.7892,-1.9166,-2.0139,-2.0295,-2.0438,-2.1892,-2.6779,-2.7739,-2.9351,-3.4274,-3.6199,-3.7288,-3.8449,-3.7969,-3.7128,-3.6393,-3.5912,-3.5418,-3.483,-3.2281,-2.9781,-2.8038,-2.5291,-2.246,-1.9623,-1.9418,-1.8815,-1.7527,-1.7277,-1.7195,-1.7195,-1.7053,-1.6978,-1.6978,-1.7053,-1.7053,-1.6985,-1.706,-1.7053,-1.6978,-1.6978,-1.6978,-1.6978,-1.6978,-1.6978,-1.6978,-1.6978,-1.6978,-1.6978,-1.6978,-1.6978,-1.6971,-1.689,-1.691,-1.6971,-1.689,-1.691,-1.6958,-1.6802,-1.6856,-1.6951,-1.6795,-1.6856,-1.6978,-1.6978,-1.6978,-1.6965,-1.689,-1.687,-1.6849,-1.6775,-1.687,-1.6958,-1.6876,-1.6924,-1.6958,-1.6876,-1.6863,-1.6836,-1.6761,-1.6748,-1.7183,-1.8588,-1.8811,-1.9831,-2.2588,-2.1672,-2.089,-2.1094,-1.9871,-1.8388,-1.6967,-1.6863,-1.6795,-1.6639,-1.67,-1.6639,-1.6422,-1.6408,-1.6307,-1.6083,-1.6083,-1.6083,-1.6083,-1.5927,-1.5811,-1.5737,-1.5513,-1.5371,-1.489,-1.5798,-1.6662,-1.8918,-1.9908,-2.0329,-2.0363,-2.0451,-2.2286,-2.8414,-3.0139,-3.1639,-3.5608,-3.8146,-3.9412,-3.8865,-3.8036,-3.7155,-3.6273,-3.5845,-3.5179,-3.4124,-3.1856,-2.9201,-2.5829,-2.3511,-2.0911,-1.8094,-1.789,-1.7734,-1.7338,-1.7222,-1.7154,-1.7154,-1.7039,-1.6978,-1.6978,-1.6951,-1.6944,-1.6944,-1.6944,-1.6944,-1.6944,-1.6971,-1.6978,-1.6978,-1.6978,-1.6978,-1.6978,-1.6978,-1.6978,-1.6978,-1.6978,-1.6978,-1.6978,-1.6978,-1.6978,-1.6978,-1.6978,-1.6978,-1.6958,-1.6829,-1.6876,-1.6958,-1.6829,-1.6876,-1.6978,-1.6978,-1.6978,-1.6944,-1.6788,-1.6748,-1.6714,-1.6558,-1.6714,-1.6897,-1.687,-1.6904,-1.6931,-1.6904,-1.6944,-1.6937,-1.6809,-1.7197,-1.8262,-2.0775,-2.1518,-2.2855,-2.5522,-2.5522,-2.4495,-2.2752,-2.2131,-2.0696,-1.7908,-1.7706,-1.744,-1.6795,-1.691,-1.6856,-1.6571,-1.6558,-1.6422,-1.613,-1.6096,-1.6083,-1.6083,-1.5954,-1.5879,-1.5845,-1.5601,-1.5472,-1.315,-1.5263,-1.7739,-1.9273,-1.9976,-2.0363,-2.0485,-2.0526,-2.1541,-2.5407,-2.852,-3.2382,-3.8727,-3.976,-3.9493,-3.9159,-3.8357,-3.7448,-3.658,-3.5979,-3.445,-3.1187,-3.0264,-2.8654,-2.5594,-2.4946,-2.3606,-2.0833,-2.0625,-1.9501,-1.7145,-1.7019,-1.7012,-1.7012,-1.6992,-1.6978,-1.6978,-1.6849,-1.6781,-1.6781,-1.6781,-1.6781,-1.6788,-1.6917,-1.6978,-1.6978,-1.6978,-1.6978,-1.6978,-1.6978,-1.6978,-1.6978,-1.6978,-1.6978,-1.6978,-1.6978,-1.6978,-1.6978,-1.6978,-1.6978,-1.6978,-1.6958,-1.6965,-1.6978,-1.6958,-1.6965,-1.6978,-1.6978,-1.6978,-1.6944,-1.6788,-1.6748,-1.6714,-1.6558,-1.6551,-1.6551,-1.6429,-1.6598,-1.6741,-1.6605,-1.6802,-1.6971,-1.6951,-1.8909,-2.0662,-2.0999,-2.3165,-2.5625,-2.8393,-2.6649,-2.5932,-2.7986,-2.6035,-2.3568,-2.08,-2.0592,-1.955,-1.7161,-1.6971,-1.6904,-1.6727,-1.672,-1.6578,-1.6286,-1.6151,-1.6083,-1.6083,-1.6062,-1.5981,-1.5852,-1.5811,-1.573,-1.3536,-1.5601,-1.7754,-1.9273,-1.9875,-2.0153,-2.0471,-2.0539,-2.1421,-2.4795,-2.6565,-2.9084,-3.3907,-3.4461,-3.3936,-3.35,-3.2886,-3.2168,-3.1276,-3.0812,-2.9865,-2.7863,-2.6119,-2.4578,-2.2914,-2.1354,-1.9919,-1.8692,-1.8596,-1.812,-1.7083,-1.6978,-1.6978,-1.6978,-1.6978,-1.7706,-1.9253,-1.7635,-1.6836,-1.6748,-1.6748,-1.6748,-1.6754,-1.6822,-1.6897,-1.6978,-1.6978,-1.6978,-1.6978,-1.6978,-1.6978,-1.6978,-1.6978,-1.6978,-1.6978,-1.6978,-1.6978,-1.6978,-1.6978,-1.6978,-1.6978,-1.6978,-1.6978,-1.6978,-1.6978,-1.6978,-1.6978,-1.6978,-1.6978,-1.6924,-1.6686,-1.6619,-1.6564,-1.6327,-1.6273,-1.6279,-1.6307,-1.6544,-1.6754,-1.6775,-1.689,-1.6978,-1.6978,-1.9253,-2.1622,-2.3165,-2.5727,-2.8495,-3.1265,-3.0533,-2.9724,-2.9319,-2.6853,-2.4084,-2.131,-1.9662,-1.8327,-1.7083,-1.6978,-1.6951,-1.6883,-1.6795,-1.6686,-1.6558,-1.6327,-1.6171,-1.6083,-1.6083,-1.6049,-1.5981,-1.5893,-1.5818,-1.3468,-1.4945,-1.6369,-1.8267,-1.904,-1.9406,-2.0129,-2.0397,-2.1182,-2.3716,-2.4058,-2.4723,-2.7069,-2.8725,-2.952,-2.8962,-2.8454,-2.7835,-2.6992,-2.6786,-2.6099,-2.4669,-2.2684,-2.0996,-2.0006,-1.804,-1.6809,-1.6809,-1.6809,-1.6856,-1.6978,-1.6978,-1.6978,-1.6978,-1.7706,-1.9044,-2.1103,-1.896,-1.779,-1.7486,-1.692,-1.6659,-1.6693,-1.663,-1.6836,-1.6978,-1.6978,-1.6978,-1.6978,-1.6978,-1.6978,-1.6978,-1.6978,-1.6978,-1.6978,-1.6978,-1.6978,-1.6978,-1.6978,-1.6978,-1.6978,-1.6978,-1.6978,-1.6978,-1.6978,-1.6978,-1.6978,-1.6978,-1.6978,-1.6917,-1.6653,-1.6551,-1.6456,-1.6198,-1.611,-1.613,-1.632,-1.6564,-1.6795,-1.6951,-1.6978,-1.6978,-1.6978,-1.9871,-2.2855,-2.4906,-2.8088,-3.1063,-3.31,-3.3414,-3.2598,-3.0546,-2.7884,-2.5112,-2.2338,-1.9662,-1.7706,-1.7083,-1.6978,-1.6978,-1.6978,-1.7488,-1.7811,-1.7768,-1.8244,-1.7717,-1.6137,-1.6137,-1.6123,-1.6076,-1.5961,-1.5913,-1.1518,-1.2284,-1.3156,-1.5747,-1.6902,-1.7995,-1.9535,-2.001,-2.0173,-2.0553,-2.034,-2.0181,-1.9998,-2.5021,-2.9176,-2.8814,-2.8223,-2.754,-2.6847,-2.6454,-2.5194,-2.2047,-2.1326,-2.0079,-1.7489,-1.707,-1.6971,-1.6971,-1.6971,-1.6971,-1.6978,-1.6978,-1.6978,-1.6978,-1.9558,-2.0999,-2.1103,-2.0646,-2.0184,-1.9824,-1.745,-1.6402,-1.6537,-1.668,-1.6836,-1.6978,-1.6978,-1.6978,-1.6978,-1.6978,-1.6978,-1.6978,-1.6978,-1.6978,-1.6978,-1.6978,-1.6978,-1.6978,-1.6978,-1.6978,-1.6978,-1.6978,-1.6978,-1.6978,-1.6978,-1.6978,-1.6978,-1.6978,-1.6978,-1.6944,-1.6781,-1.6632,-1.6483,-1.6334,-1.6185,-1.6157,-1.6449,-1.6639,-1.6795,-1.6951,-1.6978,-1.6978,-1.6978,-2.1414,-2.5009,-2.5215,-2.9712,-3.3213,-3.3414,-3.3414,-3.3314,-3.32,-3.0748,-2.7986,-2.5215,-2.2442,-1.9767,-1.7188,-1.6978,-1.6978,-1.6978,-1.9446,-2.0803,-2.0721,-2.3228,-2.1819,-1.63,-1.63,-1.6225,-1.6083,-1.6076,-1.6069,-1.0894,-1.161,-1.2441,-1.4318,-1.5693,-1.6934,-1.7934,-1.9025,-1.98,-1.9766,-1.819,-1.6715,-1.6409,-1.9832,-2.2627,-2.2121,-2.1783,-2.1381,-2.0859,-2.0519,-2.0009,-1.8745,-1.8566,-1.8038,-1.6803,-1.841,-1.945,-1.9332,-1.9426,-1.9544,-1.9655,-1.7908,-1.7811,-1.9558,-2.0592,-2.1862,-2.3463,-2.5123,-2.4827,-2.2618,-2.0033,-1.8814,-1.8776,-1.7239,-1.6686,-1.6836,-1.6937,-1.6978,-1.6978,-1.6978,-1.6978,-1.6971,-1.687,-1.6897,-1.6971,-1.687,-1.6897,-1.6978,-1.6978,-1.6978,-1.6978,-1.6978,-1.6978,-1.6978,-1.6978,-1.6978,-1.6978,-1.6978,-1.6978,-1.6924,-1.6666,-1.6564,-1.6483,-1.6341,-1.6341,-1.6422,-1.6625,-1.6788,-1.6917,-1.6971,-1.6978,-1.6978,-1.6978,-2.0079,-2.2545,-2.2545,-2.5717,-2.8178,-2.8178,-2.8178,-2.88,-3.0546,-2.8291,-2.624,-2.5317,-2.2648,-1.9975,-1.7188,-1.6978,-1.7811,-1.9558,-2.0592,-2.1898,-2.366,-2.4582,-2.389,-2.1452,-1.9775,-1.8797,-1.8517,-1.6864,-1.6083,-0.9697,-1.0301,-1.1131,-1.2494,-1.3757,-1.5087,-1.6557,-1.7755,-1.8451,-1.782,-1.6079,-1.4312,-1.3164,-1.4527,-1.6005,-1.6588,-1.6565,-1.6627,-1.7284,-1.7256,-1.7141,-1.6998,-1.6978,-1.7315,-1.8019,-1.9822,-2.1268,-2.2046,-2.2265,-2.24,-2.2433,-2.0696,-2.0999,-2.3775,-2.3811,-2.488,-2.737,-2.8299,-2.7551,-2.5278,-2.2552,-2.0922,-2.0166,-1.8436,-1.7312,-1.6754,-1.6856,-1.6931,-1.6978,-1.6978,-1.6978,-1.6965,-1.6809,-1.6842,-1.6965,-1.6809,-1.6849,-1.6978,-1.6978,-1.6978,-1.6978,-1.6978,-1.6978,-1.6978,-1.6978,-1.6978,-1.6978,-1.6978,-1.6978,-1.6931,-1.6727,-1.6639,-1.6564,-1.6415,-1.649,-1.6625,-1.6727,-1.687,-1.6978,-1.6978,-1.6978,-1.6978,-1.6978,-1.9253,-2.1103,-2.1103,-2.3465,-2.5215,-2.5215,-2.5215,-2.624,-2.9014,-2.6853,-2.5215,-2.5215,-2.2648,-1.9975,-1.7188,-1.7915,-1.9149,-2.0999,-2.2855,-2.4701,-2.6546,-2.7465,-2.7649,-2.7086,-2.3532,-2.1605,-2.1245,-1.9495,-1.8754,0.0,0.0,0.0,-1.0018,-1.0923,-1.2384,-1.5464,-1.6367,-1.6163,-1.4575,-1.4021,-1.2944,-0.9837,-0.9027,-0.9948,-1.2873,-1.3272,-1.4106,-1.667,-1.7188,-1.7134,-1.6998,-1.7083,-1.8222,-2.0895,-2.1207,-2.2442,-2.5102,-2.5307,-2.5317,-2.5317,-2.5317,-2.6546,-2.9116,-2.896,-3.0107,-3.2448,-2.9664,-2.8124,-2.7864,-2.4897,-2.2411,-2.0431,-1.9964,-1.8706,-1.6844,-1.6748,-1.6836,-1.6978,-1.6978,-1.6978,-1.6965,-1.6802,-1.6836,-1.6958,-1.6802,-1.6842,-1.6978,-1.6978,-1.6978,-1.6978,-1.6978,-1.6978,-1.6978,-1.6978,-1.6978,-1.6978,-1.6978,-1.6978,-1.6978,-1.6978,-1.6856,-1.6707,-1.6564,-1.6639,-1.6754,-1.6754,-1.6876,-1.6978,-1.6978,-1.6978,-1.6978,-1.6978,-1.9253,-2.0999,-2.0999,-2.3259,-2.5009,-2.5112,-2.5112,-2.6137,-2.9014,-2.6955,-2.5317,-2.5317,-2.2855,-2.0079,-1.7293,-1.9566,-2.0999,-2.1207,-2.6342,-2.9217,-2.942,-3.207,-3.312,-3.2545,-2.7234,-2.4414,-2.3977,-2.3977,-2.4089,-0.7713,0.0,0.0,0.0,0.0,0.0,-1.1889,-1.3825,-1.488,-1.2636,-1.1006,-0.925,-0.6476,-0.405,-0.3444,-0.6282,-1.028,-1.3207,-1.3857,-1.5754,-1.7026,-1.6985,-1.8738,-2.0231,-2.0917,-2.4602,-2.7298,-2.793,-2.8088,-2.819,-2.819,-2.819,-2.7578,-2.6342,-2.8143,-2.92,-2.9529,-2.8498,-2.8727,-3.0187,-2.731,-2.5739,-2.5185,-2.1502,-1.9626,-1.9316,-1.7519,-1.6836,-1.6978,-1.6978,-1.6978,-1.6951,-1.6686,-1.668,-1.6795,-1.6639,-1.668,-1.6829,-1.6944,-1.6978,-1.6978,-1.6978,-1.6978,-1.6978,-1.6978,-1.6978,-1.6978,-1.6978,-1.6978,-1.6951,-1.6842,-1.67,-1.6605,-1.6673,-1.672,-1.6781,-1.689,-1.6951,-1.6978,-1.6978,-1.6978,-1.6944,-1.6836,-1.7524,-1.8074,-1.7958,-1.8656,-1.9975,-2.2027,-2.2235,-2.4084,-2.8811,-2.8596,-2.819,-2.819,-2.5625,-2.2855,-2.0183,-1.8843,-1.9871,-2.3878,-2.5522,-2.8178,-3.2183,-3.2802,-3.2919,-3.2545,-2.9147,-2.7293,-2.671,-2.4754,-2.391,0.0,0.0,0.0,-0.7317,0.0,0.0,-1.0758,-1.2633,-1.3593,-1.2007,-0.9993,-0.7596,-0.489,-0.1995,-0.0549,-0.2176,-0.7367,-1.1527,-1.253,-1.5165,-1.6978,-1.6978,-1.9462,-2.1475,-2.2578,-2.6676,-2.9766,-3.0827,-3.0963,-3.1063,-3.1063,-2.9939,-2.8608,-2.6955,-2.7135,-2.7081,-2.6728,-2.6349,-2.7247,-2.9589,-2.767,-2.6398,-2.5505,-2.249,-2.0247,-1.8544,-1.7165,-1.6741,-1.689,-1.6951,-1.6978,-1.6958,-1.6714,-1.6673,-1.6741,-1.6653,-1.6673,-1.6768,-1.6931,-1.6978,-1.6978,-1.6978,-1.6978,-1.6978,-1.6978,-1.6978,-1.6978,-1.6978,-1.6978,-1.6958,-1.687,-1.6781,-1.6734,-1.6822,-1.6842,-1.687,-1.6958,-1.6978,-1.6978,-1.6978,-1.6978,-1.6951,-1.6863,-1.6917,-1.6951,-1.6863,-1.6924,-1.8013,-2.08,-2.1103,-2.3156,-2.871,-2.9319,-2.9319,-2.9319,-2.7884,-2.5727,-2.2949,-2.2338,-2.3062,-2.5112,-2.6342,-2.8393,-3.1668,-3.1389,-3.1664,-3.2358,-3.0861,-2.9857,-2.9434,-2.797,-2.7387,0.0,0.0,0.0,0.0,-0.7675,0.0,-1.0725,-1.1732,-1.1999,-1.1204,-0.9388,-0.7074,-0.421,-0.1738,-0.0217,-0.043,-0.5043,-0.9416,-1.1882,-1.4955,-1.7083,-1.7398,-1.9871,-2.2648,-2.542,-2.819,-3.0748,-3.32,-3.3414,-3.3314,-3.3,-3.0647,-2.9003,-2.8359,-2.5565,-2.4027,-2.4008,-2.3471,-2.4493,-2.686,-2.6503,-2.518,-2.3203,-2.276,-2.043,-1.6515,-1.6503,-1.6605,-1.6761,-1.6917,-1.6978,-1.6965,-1.6809,-1.6748,-1.6748,-1.6748,-1.6748,-1.6768,-1.6931,-1.6978,-1.6978,-1.6978,-1.6978,-1.6978,-1.6978,-1.6978,-1.6978,-1.6978,-1.6978,-1.6978,-1.6978,-1.6978,-1.6978,-1.6978,-1.6978,-1.6978,-1.6978,-1.6978,-1.6978,-1.6978,-1.6978,-1.6978,-1.6958,-1.6971,-1.6978,-1.6958,-1.7279,-1.8424,-2.1207,-2.1829,-2.3981,-2.9217,-2.9736,-2.9736,-2.9736,-2.9522,-2.8291,-2.583,-2.768,-2.7884,-2.5727,-2.7986,-2.942,-2.9724,-2.9462,-3.0268,-3.2104,-3.2064,-3.1944,-3.1717,-3.1984,-3.2265,0.0,0.0,0.0,0.0,0.0,0.0,-0.7198,-0.8255,-0.8586,-0.5451,-0.5275,-0.4928,-0.247,-0.1565,-0.1776,-0.3412,-0.6719,-0.9144,-0.9334,-1.3785,-1.7811,-2.0079,-2.2752,-2.5522,-2.819,-3.095,-3.2799,-3.3414,-3.3414,-3.2384,-3.0242,-2.9623,-2.7174,-2.271,-2.1762,-2.1265,-2.1007,-2.0587,-2.1531,-2.4031,-2.3853,-2.3549,-2.3118,-2.1101,-1.9949,-1.9335,-1.7343,-1.6605,-1.6761,-1.6917,-1.6978,-1.6965,-1.6809,-1.6748,-1.6748,-1.6748,-1.6748,-1.6768,-1.6931,-1.6978,-1.6978,-1.6978,-1.6978,-1.6978,-1.6978,-1.6978,-1.6978,-1.6978,-1.6978,-1.6978,-1.6978,-1.6978,-1.6978,-1.6978,-1.6978,-1.6978,-1.6978,-1.6978,-1.6978,-1.6978,-1.6978,-1.6944,-1.6815,-1.6897,-1.6937,-1.6815,-1.8752,-2.131,-2.4084,-2.6342,-2.9003,-3.2284,-3.2585,-3.2585,-3.2585,-3.0546,-2.9116,-2.8495,-2.6955,-2.6751,-2.8393,-2.9014,-3.0343,-3.2598,-3.2311,-3.2189,-3.2104,-3.1864,-3.1851,-3.2024,-3.2078,-3.2265,0.0,0.0,0.0,-0.774,0.0,0.0,0.0,-0.8631,-0.9304,-0.6648,-0.6155,-0.5597,-0.3853,-0.2398,-0.1807,-0.2922,-0.644,-0.8903,-0.8424,-1.3362,-1.8013,-2.08,-2.3568,-2.624,-2.9014,-3.1768,-3.3347,-3.32,-3.3334,-3.2055,-2.9155,-2.7851,-2.5257,-2.0892,-1.9276,-1.845,-1.829,-1.7848,-1.8883,-2.137,-2.1183,-2.1232,-2.1232,-1.9992,-1.8931,-1.7954,-1.6989,-1.6564,-1.6653,-1.6883,-1.6978,-1.6971,-1.6897,-1.6815,-1.6761,-1.6836,-1.6815,-1.6768,-1.6931,-1.6978,-1.6978,-1.6978,-1.6978,-1.6978,-1.6978,-1.6978,-1.6978,-1.6978,-1.6978,-1.6978,-1.6978,-1.6978,-1.6978,-1.6978,-1.6978,-1.6978,-1.6978,-1.6978,-1.6978,-1.6978,-1.8118,-1.8604,-1.7085,-1.806,-1.9014,-1.893,-2.1346,-2.4187,-2.6853,-2.8495,-3.0343,-3.31,-3.3414,-3.3414,-3.3414,-3.2183,-3.1365,-3.1365,-3.0028,-2.9307,-2.9319,-2.9319,-2.9867,-3.1152,-3.2202,-3.2545,-3.2104,-3.181,-3.1824,-3.2104,-3.2251,-3.2478,0.0,0.0,0.0,0.0,0.0,-0.8973,0.0,0.0,0.0,-0.88,-0.7539,-0.64,-0.542,-0.3346,-0.1924,-0.2448,-0.614,-0.8902,-0.8873,-1.3319,-1.7736,-2.053,-2.3352,-2.6166,-2.9034,-3.1541,-3.3074,-3.2986,-3.2994,-3.156,-2.8061,-2.6147,-2.3536,-1.9946,-1.7654,-1.6483,-1.6313,-1.6062,-1.6973,-1.8834,-1.8729,-1.8664,-1.864,-1.881,-1.7848,-1.5961,-1.6354,-1.6537,-1.6585,-1.6863,-1.6978,-1.6978,-1.6978,-1.6904,-1.6809,-1.6937,-1.6904,-1.6809,-1.6937,-1.6978,-1.6978,-1.6978,-1.6978,-1.6978,-1.6978,-1.6978,-1.6978,-1.6978,-1.6978,-1.6978,-1.6978,-1.6978,-1.6978,-1.6978,-1.6978,-1.6978,-1.6978,-1.6978,-1.6978,-1.6978,-1.8843,-1.9767,-1.8118,-2.0079,-2.1924,-2.1924,-2.4187,-2.6751,-2.9014,-2.9724,-3.095,-3.32,-3.3414,-3.3414,-3.3414,-3.3414,-3.3414,-3.3414,-3.3414,-3.2384,-3.0141,-3.0141,-3.0033,-2.9803,-3.1715,-3.2572,-3.2265,-3.2038,-3.2011,-3.2198,-3.2438,-3.2732,0.0,0.0,0.0,0.0,-1.0558,0.0,0.0,0.0,-0.7624,-0.5961,0.0,-0.4661,-0.4587,0.0,0.0,-0.5768,-0.7623,-0.9402,-1.1153,-1.3714,-1.6613,-1.954,-2.2856,-2.6025,-2.8866,-3.0887,-3.2241,-3.2959,-3.2142,-2.9665,-2.5236,-2.4871,-2.2461,-1.713,-1.6756,-1.6592,-1.6313,-1.6273,-1.6316,-1.6335,-1.6362,-1.6447,-1.6314,-1.6475,-1.6423,-1.6266,-1.6442,-1.6598,-1.6734,-1.691,-1.6978,-1.6978,-1.6978,-1.6971,-1.6958,-1.6971,-1.6971,-1.6958,-1.6978,-1.6978,-1.6978,-1.6978,-1.6978,-1.6978,-1.6978,-1.6978,-1.6978,-1.6978,-1.6978,-1.6978,-1.6978,-1.6978,-1.6978,-1.6978,-1.6978,-1.6978,-1.6978,-1.6978,-1.6978,-1.6978,-1.7293,-1.8118,-2.0279,-2.2958,-2.4701,-2.4701,-2.7057,-2.8913,-2.9217,-3.1466,-3.3,-3.3414,-3.3414,-3.3414,-3.3414,-3.3414,-3.3414,-3.3414,-3.3414,-3.3314,-3.3,-3.2899,-3.2886,-3.2847,-3.312,-3.3173,-3.2879,-3.2853,-3.2719,-3.2492,-3.2629,-3.2839,0.0,0.0,0.0,0.0,0.0,0.0,-0.8427,0.0,-0.9023,0.0,0.0,0.0,0.0,0.0,0.0,0.0,-0.7494,-0.9153,-0.9862,-1.269,-1.5856,-1.9086,-2.1047,-2.3205,-2.607,-2.6947,-2.7357,-2.7503,-2.7391,-2.5604,-2.1837,-2.2177,-2.068,-1.6503,-1.6625,-1.6646,-1.6435,-1.6435,-1.6327,-1.6117,-1.6185,-1.6137,-1.5988,-1.6049,-1.6117,-1.6185,-1.6334,-1.6483,-1.6625,-1.6781,-1.7822,-1.9357,-1.9357,-1.8424,-1.7188,-1.8843,-1.9357,-1.9558,-2.1207,-2.0696,-1.9149,-1.7496,-1.6978,-1.6978,-1.6978,-1.6978,-1.7293,-1.894,-1.9357,-1.9357,-1.9357,-2.0592,-2.131,-1.9767,-2.0592,-2.1717,-2.1717,-2.0488,-1.9357,-1.9357,-1.9357,-1.9767,-2.0895,-2.2027,-2.2855,-2.2855,-2.5112,-2.7465,-2.9116,-3.0343,-3.1668,-3.3213,-3.3414,-3.3414,-3.3414,-3.3414,-3.3414,-3.3414,-3.3414,-3.3414,-3.3414,-3.3414,-3.3414,-3.3414,-3.324,-3.3106,-3.2973,-3.2812,-3.2746,-3.2799,-3.2799,-3.3013,-1.293,0.0,0.0,0.0,0.0,0.0,0.0,0.0,0.0,0.0,0.0,0.0,0.0,0.0,0.0,0.0,0.0,-0.8569,-0.8628,-1.1489,-1.4673,-1.7455,-1.9099,-2.1126,-2.4084,-2.3922,-2.3611,-2.3696,-2.3693,-2.2412,-1.962,-2.0264,-1.9314,-1.6469,-1.6619,-1.67,-1.6585,-1.6544,-1.6469,-1.6368,-1.6368,-1.6286,-1.6144,-1.6144,-1.6144,-1.6151,-1.6259,-1.6415,-1.6592,-1.7519,-1.9091,-2.1207,-2.1924,-2.0999,-1.9454,-2.1518,-2.2235,-2.2442,-2.3672,-2.2235,-1.9662,-1.7601,-1.7496,-1.8118,-1.8118,-1.8634,-1.9662,-2.1622,-2.2235,-2.2235,-2.2235,-2.3672,-2.4701,-2.2752,-2.3775,-2.5215,-2.5215,-2.3672,-2.2235,-2.2235,-2.2235,-2.2235,-2.2235,-2.2235,-2.2235,-2.2235,-2.3878,-2.5932,-2.7884,-2.819,-2.9217,-3.1982,-3.2284,-3.2585,-3.3314,-3.3414,-3.3414,-3.3414,-3.3414,-3.3414,-3.3414,-3.3414,-3.3414,-3.3414,-3.32,-3.3093,-3.3093,-3.2879,-3.2893,-3.3093,-3.3013,-3.3133,0.0,0.0,0.0,-1.3946,0.0,0.0,0.0,0.0,-1.1559,0.0,0.0,0.0,0.0,0.0,0.0,0.0,0.0,0.0,0.0,-1.0542,-1.2461,-1.3944,-1.7367,-2.0849,-2.4083,-2.3138,-2.2872,-2.4005,-2.2698,-2.1175,-1.9586,-1.9792,-1.8988,-1.6605,-1.6666,-1.6748,-1.6637,-1.6592,-1.6517,-1.6517,-1.6517,-1.6442,-1.63,-1.63,-1.63,-1.63,-1.6307,-1.6476,-1.6948,-1.96,-2.0934,-2.131,-2.3981,-2.5009,-2.4906,-2.5009,-2.5112,-2.4701,-2.2131,-1.9462,-1.7083,-1.6978,-1.8843,-2.1007,-2.1007,-2.2855,-2.5009,-2.5009,-2.5112,-2.5112,-2.5112,-2.5112,-2.5215,-2.5112,-2.5112,-2.5215,-2.5215,-2.5112,-2.5112,-2.5112,-2.5112,-2.5112,-2.5112,-2.5112,-2.5112,-2.5112,-2.5112,-2.5215,-2.5317,-2.5317,-2.6342,-2.9116,-2.942,-3.0546,-3.32,-3.3414,-3.3414,-3.3414,-3.3414,-3.3414,-3.3414,-3.3414,-3.3414,-3.3414,-3.34,-3.34,-3.34,-3.3387,-3.3387,-3.3387,-3.3106,-3.3133,0.0,0.0,-1.5512,-1.4416,0.0,0.0,0.0,0.0,0.0,0.0,0.0,0.0,0.0,0.0,0.0,0.0,0.0,0.0,0.0,-1.0337,-1.1566,-1.218,-1.5006,-1.7034,-1.7561,-1.774,-1.7952,-1.8159,-1.7523,-1.6872,-1.6309,-1.6936,-1.6998,-1.6225,-1.6469,-1.6646,-1.6748,-1.67,-1.6619,-1.6524,-1.6625,-1.6592,-1.6449,-1.6354,-1.6307,-1.6307,-1.6307,-1.6422,-1.681,-1.9655,-2.2056,-2.4084,-2.6853,-2.9003,-3.0432,-2.8596,-2.6751,-2.4804,-2.2027,-2.0488,-1.9662,-1.9662,-2.0384,-2.1414,-2.3259,-2.4495,-2.5625,-2.7374,-2.7884,-2.7884,-2.7884,-2.9206,-3.0129,-2.8393,-2.9307,-3.0634,-3.0634,-2.9206,-2.7884,-2.7884,-2.6444,-2.5215,-2.5215,-2.5215,-2.4598,-2.2752,-2.2442,-2.3156,-2.5009,-2.5215,-2.6955,-3.1567,-3.0343,-3.0445,-3.32,-3.3414,-3.3414,-3.3414,-3.3414,-3.3414,-3.3414,-3.3414,-3.3414,-3.3414,-3.3414,-3.3414,-3.3414,-3.3414,-3.3414,-3.3414,-3.3307,-3.332,-1.638,-1.6413,0.0,-1.5225,-1.6083,0.0,-1.4379,0.0,0.0,0.0,0.0,0.0,0.0,0.0,0.0,0.0,0.0,0.0,0.0,-1.1986,-1.2811,-1.2467,-1.3906,-1.4685,-1.414,-1.507,-1.5492,-1.5163,-1.4972,-1.4805,-1.4733,-1.535,-1.5811,-1.6076,-1.632,-1.6544,-1.6748,-1.6693,-1.6646,-1.6605,-1.6761,-1.6754,-1.6598,-1.651,-1.6435,-1.6388,-1.6388,-1.6469,-1.681,-1.9655,-2.256,-2.542,-2.7159,-2.9522,-3.1768,-2.9939,-2.6955,-2.3465,-2.1725,-2.0488,-1.9767,-2.08,-2.1717,-2.3053,-2.583,-2.7363,-2.8506,-3.0363,-3.0834,-3.0772,-3.0883,-3.216,-3.3,-3.1164,-3.2083,-3.3414,-3.3414,-3.1982,-3.0748,-3.0748,-2.9307,-2.8077,-2.8077,-2.7261,-2.542,-2.1622,-2.1924,-2.2855,-2.3672,-2.4598,-2.6955,-3.1466,-3.0343,-3.0445,-3.32,-3.3414,-3.3414,-3.3414,-3.3414,-3.3414,-3.3414,-3.3414,-3.3507,-3.3734,-3.3521,-3.3521,-3.3734,-3.3521,-3.3414,-3.3414,-3.3414,-3.3414]},{"header":{"parameterUnit":"m.s-1","parameterCategory":1,"la1":30.6,"la2":29.2853,"lo1":-89.7004,"lo2":-87.6739,"dy":0.0162,"dx":0.0183,"nx":112,"ny":82,"refTime":"2023-08-20T18:00:00:Z","depth":0,"parameterNumber":3,"parameterNumberName":"V-component_of_WINDS"},"data":[0.0,0.0,0.0,0.0,0.0,0.0,0.0,0.0,0.0,0.0,0.0,0.0,0.0,0.0,0.0,0.0,0.0,0.0,0.0,0.0,0.0,0.0,0.0,0.0,0.0,0.0,0.0,0.0,0.0,0.0,0.0,0.0,0.0,0.0,0.0,0.0,0.0,0.0,0.0,0.0,0.0,0.0,0.0,0.0,0.0,0.0,0.0,0.0,0.0,0.0,0.0,0.0,0.0,0.0,0.0,0.0,0.0,0.0,0.0,0.0,0.0,0.0,0.0,0.0,0.0,0.0,0.0,0.0,0.0,0.0,0.0,0.0,0.0,0.0,0.0,0.0,0.0,0.0,0.0,0.0,0.0,0.0,0.0,0.0,0.0,0.0,0.0,0.0,0.0,0.0,2.9338,2.7873,3.0896,3.4481,3.8015,4.1764,4.4228,4.4946,0.0,0.0,0.0,0.0,0.0,0.0,0.0,0.0,0.0,0.0,0.0,0.0,0.0,0.0,0.0,0.0,0.0,0.0,0.0,0.0,0.0,0.0,0.0,0.0,0.0,0.0,0.0,0.0,0.0,0.0,0.0,0.0,0.0,0.0,0.0,0.0,0.0,0.0,0.0,0.0,0.0,0.0,0.0,0.0,0.0,0.0,0.0,0.0,0.0,0.0,0.0,0.0,0.0,0.0,0.0,0.0,0.0,0.0,0.0,0.0,0.0,0.0,0.0,0.0,0.0,0.0,0.0,0.0,0.0,0.0,0.0,0.0,0.0,0.0,0.0,0.0,0.0,0.0,0.0,0.0,0.0,0.0,0.0,0.0,0.0,0.0,0.0,0.0,0.0,0.0,0.0,0.0,0.0,0.0,0.0,0.0,0.0,0.0,0.0,0.0,0.0,0.0,0.0,0.0,2.9209,2.7827,3.0525,3.3923,3.7585,4.0818,4.3537,4.5583,0.0,0.0,0.0,0.0,0.0,0.0,0.0,0.0,0.0,0.0,0.0,0.0,0.0,0.0,0.0,0.0,0.0,0.0,0.0,0.0,0.0,0.0,0.0,0.0,0.0,0.0,0.0,0.0,0.0,0.0,0.0,0.0,0.0,0.0,0.0,0.0,0.0,0.0,0.0,0.0,0.0,0.0,0.0,0.0,0.0,0.0,0.0,0.0,0.0,0.0,0.0,0.0,0.0,0.0,0.0,0.0,0.0,0.0,0.0,0.0,0.0,0.0,0.0,0.0,0.0,0.0,0.0,0.0,0.0,0.0,0.0,0.0,0.0,0.0,0.0,0.0,0.0,0.0,0.0,0.0,0.0,0.0,0.0,0.0,0.0,0.0,0.0,0.0,0.0,0.0,0.0,0.0,0.0,0.0,0.0,0.0,0.0,0.0,0.0,0.0,0.0,0.0,0.0,3.0158,2.8948,2.8088,3.0593,3.3807,3.7507,4.099,4.3975,4.6353,4.7129,0.0,0.0,0.0,0.0,0.0,0.0,0.0,0.0,0.0,0.0,0.0,0.0,0.0,0.0,0.0,0.0,0.0,0.0,0.0,0.0,0.0,0.0,0.0,0.0,0.0,0.0,0.0,0.0,0.0,0.0,0.0,0.0,0.0,0.0,0.0,0.0,0.0,0.0,0.0,0.0,0.0,0.0,0.0,0.0,0.0,0.0,0.0,0.0,0.0,0.0,0.0,0.0,0.0,0.0,0.0,0.0,0.0,0.0,0.0,0.0,0.0,0.0,0.0,0.0,0.0,0.0,0.0,0.0,0.0,0.0,0.0,0.0,0.0,0.0,0.0,0.0,0.0,0.0,0.0,0.0,0.0,0.0,0.0,0.0,0.0,0.0,0.0,0.0,0.0,0.0,0.0,0.0,0.0,0.0,0.0,0.0,0.0,0.0,0.0,0.0,0.0,0.0,2.9891,2.887,2.8787,3.1034,3.3846,3.7071,4.0738,4.3842,4.615,4.6604,0.0,0.0,0.0,0.0,0.0,0.0,0.0,0.0,0.0,0.0,0.0,0.0,0.0,0.0,0.0,0.0,0.0,0.0,0.0,0.0,0.0,0.0,0.0,0.0,0.0,0.0,0.0,0.0,0.0,0.0,0.0,0.0,0.0,0.0,0.0,0.0,0.0,0.0,0.0,0.0,0.0,0.0,0.0,0.0,0.0,0.0,0.0,0.0,0.0,0.0,0.0,0.0,0.0,0.0,0.0,0.0,0.0,0.0,0.0,0.0,0.0,0.0,0.0,0.0,0.0,0.0,0.0,0.0,0.0,0.0,0.0,0.0,0.0,0.0,0.0,0.0,0.0,0.0,0.0,0.0,0.0,0.0,0.0,0.0,0.0,0.0,0.0,0.0,0.0,0.0,0.0,0.0,0.0,0.0,0.0,0.0,0.0,0.0,0.0,0.0,0.0,0.0,3.0462,2.9119,3.0068,3.1957,3.3953,3.5877,3.9303,4.2184,4.4089,4.4523,0.0,0.0,0.0,0.0,0.0,0.0,0.0,0.0,0.0,0.0,0.0,0.0,0.0,0.0,0.0,0.0,0.0,0.0,0.0,0.0,0.0,0.0,0.0,0.0,0.0,0.0,0.0,0.0,0.0,0.0,0.0,0.0,0.0,0.0,0.0,0.0,0.0,0.0,0.0,0.0,0.0,0.0,0.0,0.0,0.0,0.0,0.0,0.0,0.0,0.0,0.0,0.0,0.0,0.0,0.0,0.0,0.0,0.0,0.0,0.0,0.0,0.0,0.0,0.0,0.0,0.0,0.0,0.0,0.0,0.0,0.0,0.0,0.0,0.0,0.0,0.0,0.0,0.0,0.0,0.0,0.0,0.0,0.0,0.0,0.0,0.0,0.0,0.0,0.0,0.0,0.0,0.0,0.0,0.0,0.0,0.0,0.0,0.0,0.0,0.0,0.0,0.0,3.236,3.1751,0.0,3.3288,3.5023,3.6505,3.965,4.2234,4.3975,0.0,0.0,0.0,0.0,0.0,0.0,0.0,0.0,0.0,0.0,0.0,0.0,0.0,0.0,0.0,0.0,0.0,0.0,0.0,0.0,0.0,0.0,0.0,0.0,0.0,0.0,0.0,0.0,0.0,0.0,0.0,0.0,0.0,0.0,0.0,0.0,0.0,0.0,0.0,0.0,0.0,0.0,0.0,0.0,0.0,0.0,0.0,0.0,0.0,0.0,0.0,0.0,0.0,0.0,0.0,0.0,0.0,0.0,0.0,0.0,0.0,0.0,0.0,0.0,0.0,0.0,0.0,0.0,0.0,0.0,0.0,0.0,0.0,0.0,0.0,0.0,0.0,0.0,0.0,0.0,0.0,0.0,0.0,0.0,0.0,0.0,0.0,0.0,0.0,0.0,0.0,0.0,0.0,0.0,0.0,0.0,0.0,0.0,0.0,0.0,0.0,0.0,3.4936,3.4294,3.3741,0.0,3.4836,3.6006,3.6701,3.9349,4.1639,4.3067,0.0,0.0,0.0,0.0,0.0,0.0,0.0,0.0,0.0,0.0,0.0,0.0,0.0,0.0,0.0,0.0,0.0,0.0,0.0,0.0,0.0,0.0,0.0,0.0,0.0,0.0,0.0,0.0,0.0,0.0,0.0,0.0,0.0,0.0,0.0,0.0,0.0,0.0,0.0,0.0,0.0,0.0,0.0,0.0,0.0,0.0,0.0,0.0,0.0,0.0,0.0,0.0,0.0,0.0,0.0,0.0,0.0,0.0,0.0,0.0,0.0,0.0,0.0,0.0,0.0,0.0,0.0,0.0,0.0,0.0,0.0,0.0,0.0,0.0,0.0,0.0,0.0,0.0,0.0,0.0,0.0,0.0,0.0,0.0,0.0,0.0,0.0,0.0,0.0,0.0,0.0,0.0,0.0,0.0,0.0,0.0,0.0,0.0,0.0,0.0,0.0,0.0,3.7994,3.5951,3.4839,3.589,3.6514,3.661,3.6084,3.8179,3.9942,0.0,0.0,0.0,0.0,0.0,0.0,0.0,0.0,0.0,0.0,0.0,0.0,0.0,0.0,0.0,0.0,0.0,0.0,0.0,0.0,0.0,0.0,0.0,0.0,0.0,0.0,0.0,0.0,0.0,0.0,0.0,0.0,0.0,0.0,0.0,0.0,0.0,0.0,0.0,0.0,0.0,0.0,0.0,0.0,0.0,0.0,0.0,0.0,0.0,0.0,0.0,0.0,0.0,0.0,0.0,0.0,0.0,0.0,0.0,0.0,0.0,0.0,0.0,0.0,0.0,0.0,0.0,0.0,0.0,0.0,0.0,0.0,0.0,0.0,0.0,0.0,0.0,0.0,0.0,0.0,0.0,0.0,0.0,0.0,0.0,0.0,0.0,0.0,0.0,0.0,0.0,0.0,0.0,0.0,0.0,0.0,0.0,0.0,0.0,0.0,0.0,0.0,0.0,3.8497,3.7322,3.6652,3.7345,3.7914,3.8038,3.7468,3.9574,4.0956,4.1097,0.0,0.0,0.0,0.0,0.0,0.0,0.0,0.0,0.0,0.0,0.0,0.0,0.0,0.0,0.0,0.0,0.0,0.0,0.0,0.0,0.0,0.0,0.0,0.0,0.0,0.0,0.0,0.0,0.0,0.0,0.0,0.0,0.0,0.0,0.0,0.0,0.0,0.0,0.0,0.0,0.0,0.0,0.0,0.0,0.0,0.0,0.0,0.0,0.0,0.0,0.0,0.0,0.0,0.0,0.0,0.0,0.0,0.0,0.0,0.0,0.0,0.0,0.0,0.0,0.0,0.0,0.0,0.0,0.0,0.0,0.0,0.0,0.0,0.0,0.0,0.0,0.0,0.0,0.0,0.0,0.0,0.0,0.0,0.0,0.0,0.0,0.0,0.0,0.0,0.0,0.0,0.0,0.0,0.0,0.0,0.0,0.0,0.0,0.0,0.0,0.0,0.0,4.0244,3.9137,3.8569,3.9338,3.9322,3.8969,3.8391,4.0287,4.1146,4.0231,0.0,0.0,0.0,0.0,0.0,0.0,0.0,0.0,0.0,0.0,0.0,0.0,0.0,0.0,0.0,0.0,0.0,0.0,0.0,0.0,0.0,0.0,0.0,0.0,0.0,0.0,0.0,0.0,0.0,0.0,0.0,0.0,0.0,0.0,0.0,0.0,0.0,0.0,0.0,0.0,0.0,0.0,0.0,0.0,0.0,0.0,0.0,0.0,0.0,0.0,0.0,0.0,0.0,0.0,0.0,0.0,0.0,0.0,0.0,0.0,0.0,0.0,0.0,0.0,0.0,0.0,0.0,0.0,0.0,0.0,0.0,0.0,0.0,0.0,0.0,0.0,0.0,0.0,0.0,0.0,0.0,0.0,0.0,0.0,0.0,0.0,0.0,0.0,0.0,0.0,0.0,0.0,0.0,0.0,0.0,0.0,0.0,0.0,0.0,0.0,0.0,0.0,4.2761,4.124,4.0521,4.1683,4.0743,3.988,3.9373,4.0816,4.1023,3.9357,0.0,0.0,0.0,0.0,0.0,0.0,0.0,0.0,0.0,0.0,0.0,0.0,0.0,0.0,0.0,0.0,0.0,0.0,0.0,0.0,0.0,0.0,0.0,0.0,0.0,0.0,0.0,0.0,0.0,0.0,0.0,0.0,0.0,0.0,0.0,0.0,0.0,0.0,0.0,0.0,0.0,0.0,0.0,0.0,0.0,0.0,0.0,0.0,0.0,0.0,0.0,0.0,0.0,0.0,0.0,0.0,0.0,0.0,0.0,0.0,5.3022,5.1552,0.0,0.0,0.0,0.0,0.0,0.0,0.0,0.0,0.0,0.0,0.0,0.0,0.0,0.0,0.0,0.0,0.0,0.0,0.0,0.0,0.0,0.0,0.0,0.0,0.0,0.0,0.0,0.0,0.0,0.0,0.0,0.0,0.0,0.0,0.0,0.0,0.0,0.0,0.0,0.0,4.3845,4.2904,4.2328,4.304,4.2834,4.2635,4.2527,4.3314,4.344,4.2695,4.3322,0.0,0.0,0.0,0.0,0.0,0.0,0.0,0.0,0.0,0.0,0.0,0.0,0.0,0.0,0.0,0.0,0.0,0.0,0.0,0.0,0.0,0.0,0.0,0.0,0.0,0.0,0.0,0.0,0.0,0.0,0.0,0.0,0.0,0.0,0.0,0.0,0.0,0.0,0.0,0.0,0.0,0.0,0.0,0.0,0.0,0.0,0.0,0.0,0.0,0.0,0.0,0.0,0.0,0.0,0.0,0.0,0.0,0.0,0.0,5.6857,5.5377,0.0,0.0,0.0,0.0,0.0,0.0,0.0,0.0,0.0,0.0,0.0,0.0,0.0,0.0,0.0,0.0,0.0,0.0,0.0,0.0,0.0,0.0,0.0,0.0,0.0,0.0,0.0,0.0,0.0,0.0,0.0,0.0,0.0,0.0,0.0,0.0,0.0,0.0,0.0,0.0,4.5282,4.4349,4.3765,4.4339,4.3882,4.3504,4.3504,4.4061,4.4035,4.3142,4.3948,0.0,0.0,0.0,0.0,0.0,0.0,0.0,0.0,0.0,0.0,0.0,0.0,0.0,0.0,0.0,0.0,0.0,0.0,0.0,0.0,0.0,0.0,0.0,0.0,0.0,0.0,0.0,0.0,0.0,0.0,0.0,0.0,0.0,0.0,0.0,0.0,0.0,0.0,0.0,0.0,0.0,0.0,0.0,0.0,0.0,0.0,0.0,0.0,0.0,0.0,0.0,0.0,0.0,6.6635,6.6794,6.666,6.6326,6.5999,6.558,6.2719,6.0976,6.0083,5.8892,0.0,0.0,0.0,0.0,0.0,0.0,0.0,0.0,0.0,0.0,0.0,0.0,0.0,0.0,0.0,0.0,0.0,0.0,0.0,0.0,0.0,0.0,0.0,0.0,5.5371,5.4861,5.1938,0.0,0.0,0.0,0.0,0.0,0.0,0.0,0.0,0.0,0.0,0.0,4.6997,4.6267,4.5742,4.596,4.519,4.4499,4.4163,4.4629,4.4385,4.3155,4.4468,4.4631,0.0,0.0,0.0,0.0,0.0,0.0,0.0,0.0,0.0,0.0,0.0,0.0,0.0,0.0,0.0,0.0,0.0,0.0,0.0,0.0,0.0,0.0,0.0,0.0,0.0,0.0,0.0,0.0,0.0,0.0,0.0,0.0,5.8911,5.9098,0.0,0.0,0.0,0.0,0.0,0.0,0.0,0.0,0.0,0.0,0.0,0.0,0.0,6.7693,6.7623,7.0514,7.203,7.2131,7.4843,7.5834,7.5282,7.5129,7.509,7.498,7.3811,0.0,6.3057,6.2152,0.0,0.0,0.0,0.0,0.0,0.0,0.0,0.0,0.0,0.0,0.0,0.0,0.0,0.0,0.0,0.0,0.0,0.0,0.0,0.0,0.0,0.0,5.7493,5.7456,5.7487,5.7419,0.0,5.4728,5.262,5.1927,5.0657,0.0,0.0,0.0,0.0,0.0,0.0,0.0,4.9158,4.9977,4.9999,4.8512,4.8764,4.842,4.6961,4.6886,4.6572,4.5828,4.4945,4.4628,4.5118,4.4535,0.0,0.0,0.0,0.0,0.0,0.0,0.0,0.0,0.0,0.0,0.0,0.0,0.0,0.0,0.0,0.0,0.0,0.0,0.0,0.0,0.0,0.0,0.0,0.0,0.0,0.0,0.0,0.0,0.0,5.849,5.9851,5.9295,6.0164,6.0249,0.0,0.0,0.0,0.0,0.0,0.0,0.0,0.0,0.0,6.9704,7.1659,7.2867,7.3185,7.5529,7.684,7.7224,7.8571,7.9108,7.8828,7.9214,7.893,7.8114,7.8142,7.569,7.1463,6.8933,6.7422,6.6377,0.0,0.0,0.0,0.0,6.247,6.2402,6.2752,6.209,6.1112,6.1274,0.0,0.0,0.0,0.0,0.0,0.0,0.0,0.0,0.0,0.0,6.1292,6.1292,6.1605,6.1779,6.1362,5.9838,5.7741,0.0,5.364,5.2569,5.162,0.0,0.0,0.0,0.0,5.0343,5.0767,5.1616,5.1821,5.1055,5.1236,5.1096,5.032,4.9905,4.9521,4.925,4.7941,4.739,4.7837,4.7508,4.7571,0.0,0.0,0.0,0.0,0.0,0.0,0.0,0.0,0.0,0.0,0.0,0.0,0.0,0.0,0.0,0.0,0.0,0.0,0.0,0.0,0.0,0.0,0.0,0.0,0.0,0.0,0.0,0.0,6.118,6.249,6.0945,6.2855,6.345,0.0,0.0,0.0,0.0,0.0,0.0,7.0461,7.1717,7.3075,7.4543,7.659,7.7952,7.8563,8.0101,8.1138,8.1708,8.2141,8.2213,8.2031,8.2603,8.1995,8.0527,8.0882,8.0092,7.8338,7.4575,7.2191,7.0664,6.8957,6.8172,6.7992,6.7745,6.7461,6.7212,6.7678,6.7003,6.5898,6.5918,6.4765,6.3147,6.2004,0.0,0.0,0.0,0.0,6.2567,6.2567,6.3377,6.4182,6.4182,6.4607,6.4858,6.4324,6.3754,6.2199,0.0,5.6782,5.5621,5.4125,0.0,0.0,0.0,0.0,5.1904,5.2426,5.3198,5.3493,5.3025,5.3186,5.3003,5.2372,5.198,5.1692,5.1499,5.0666,5.0102,4.9916,5.0004,4.9625,4.8675,0.0,0.0,0.0,0.0,0.0,0.0,0.0,0.0,0.0,0.0,0.0,0.0,0.0,0.0,0.0,0.0,0.0,0.0,0.0,0.0,0.0,0.0,0.0,0.0,0.0,0.0,0.0,0.0,0.0,6.6706,7.0594,0.0,0.0,0.0,0.0,7.0004,7.1526,7.328,7.527,7.7567,7.9377,8.0516,8.2165,8.3044,8.3081,8.4657,8.5498,8.5571,8.7039,8.7406,8.6673,8.6709,8.583,8.429,8.3557,8.2348,8.0568,7.6911,7.4606,7.3189,7.0946,6.9727,6.9113,6.8195,6.8271,6.8843,6.8708,6.8106,6.7747,6.9584,6.8809,6.7127,6.667,6.5248,0.0,0.0,6.439,6.4552,6.4848,6.4966,6.4994,6.4961,6.4964,6.4999,6.4928,6.4928,6.3972,0.0,5.9087,5.7748,5.6699,0.0,5.4187,5.4126,5.416,5.4221,5.4428,5.5711,5.5926,5.4237,5.4721,5.4213,5.1738,5.214,5.2276,5.1531,5.2076,5.1827,5.0524,5.0631,5.0737,5.0778,4.8971,0.0,0.0,0.0,0.0,0.0,0.0,0.0,0.0,0.0,0.0,0.0,0.0,0.0,0.0,0.0,0.0,0.0,0.0,0.0,0.0,0.0,0.0,0.0,0.0,0.0,0.0,0.0,0.0,7.1907,7.5084,0.0,7.3136,7.326,7.4311,7.6172,7.74,7.9288,8.2055,8.3044,8.4141,8.56,8.6187,8.6738,8.7288,8.7839,8.8133,8.8133,8.872,8.8573,8.7766,8.7766,8.6628,8.4572,8.3765,8.2517,8.0874,7.9618,7.8472,7.745,7.6134,7.5475,7.5179,7.431,7.4133,7.432,7.4256,7.3711,7.2943,7.206,7.095,6.9727,6.8553,6.8065,6.7842,6.7479,6.7769,6.8182,6.8296,6.7906,6.7549,6.752,6.7121,6.6758,6.6758,6.6758,6.625,6.4646,6.2204,6.0104,5.9299,5.7857,5.6832,5.6802,5.7223,5.7523,5.7622,5.8007,5.8255,5.8145,5.7913,5.7602,5.726,5.7053,5.6606,5.5784,5.6023,5.5474,5.3896,5.3945,5.3336,5.1902,5.0734,5.0495,0.0,0.0,0.0,0.0,0.0,0.0,0.0,0.0,0.0,0.0,0.0,0.0,0.0,0.0,0.0,0.0,0.0,0.0,0.0,0.0,0.0,0.0,0.0,0.0,0.0,7.3874,7.7407,7.5817,7.9319,8.076,7.7968,7.8121,7.9311,8.1542,8.2267,8.3897,8.6841,8.721,8.8002,8.9331,8.9368,8.9628,9.0115,9.015,9.0018,8.9759,9.0313,8.9917,8.861,8.8883,8.7522,8.4976,8.4168,8.2863,8.1348,8.1606,8.1383,8.0748,7.9799,7.925,7.8883,7.8075,7.7745,7.7708,7.7384,7.6974,7.624,7.4661,7.3597,7.2679,7.1321,7.1101,7.1138,7.033,7.0513,7.0844,7.0587,7.011,6.9633,6.9376,6.8898,6.8421,6.8164,6.8091,6.7871,6.7063,6.4936,6.2945,6.1904,6.044,5.9523,6.0036,5.9651,5.9648,6.068,6.0314,6.0291,6.1109,6.0455,6.0081,6.0401,6.0154,5.9446,5.8166,5.8561,5.8031,5.6155,5.642,5.5728,5.3941,5.2628,5.2012,5.2236,0.0,0.0,0.0,0.0,0.0,0.0,0.0,0.0,0.0,0.0,0.0,0.0,0.0,0.0,0.0,0.0,0.0,0.0,0.0,0.0,0.0,0.0,0.0,7.3897,7.7897,8.0414,7.8711,8.3628,8.5928,8.2638,8.3141,8.4308,8.5922,8.6032,8.7021,8.933,9.0211,9.0946,9.1639,9.1665,9.1665,9.1665,9.1732,9.1373,9.0628,9.2268,9.1816,8.9523,9.0212,8.8849,8.5851,8.4973,8.3588,8.1978,8.2817,8.3073,8.2786,8.1518,8.053,7.9753,7.8914,7.862,7.8473,7.7598,7.7273,7.7273,7.7273,7.6754,7.5946,7.5139,7.4331,7.3523,7.2716,7.2496,7.2312,7.1541,7.1293,7.1101,7.033,7.011,6.9889,6.9082,6.8898,6.8678,6.7834,6.7063,6.6035,6.4457,6.2864,6.2237,6.3624,6.1331,0.0,6.348,6.2588,6.2009,6.2852,6.2186,6.1441,6.0762,6.118,6.0547,5.8332,5.9486,5.9244,5.7027,5.7665,5.7729,5.6908,5.4548,5.3363,5.3484,0.0,0.0,0.0,0.0,0.0,0.0,0.0,0.0,0.0,0.0,0.0,0.0,0.0,0.0,0.0,0.0,0.0,0.0,0.0,0.0,0.0,7.7131,7.978,7.9554,8.384,8.7166,8.7829,8.9863,9.0838,8.991,8.9554,8.9779,9.0801,9.0876,9.1412,9.2702,9.2994,9.3191,9.3385,9.3412,9.3412,9.3412,9.3417,9.3304,9.3144,9.3567,9.3114,9.185,9.1452,8.9927,8.7353,8.5348,8.3841,8.2817,8.2444,8.2548,8.2823,8.2044,8.1228,8.0411,7.9566,7.8898,7.8293,7.756,7.7273,7.7273,7.7273,7.6754,7.5946,7.5139,7.4331,7.3523,7.2716,7.2496,7.2459,7.2239,7.1762,7.1219,7.1027,7.0513,6.9889,6.9082,6.8898,6.8678,6.7834,6.7504,6.7026,6.5999,6.4511,6.3795,6.4738,6.3683,0.0,6.4721,6.3978,6.3892,6.5339,6.4723,6.439,6.4821,6.3948,6.2575,6.0747,6.0441,5.9568,5.7776,5.7933,5.7703,5.6913,5.6233,5.6333,0.0,0.0,0.0,0.0,0.0,0.0,0.0,0.0,0.0,0.0,0.0,0.0,0.0,0.0,0.0,0.0,0.0,0.0,0.0,0.0,0.0,0.0,8.1585,8.4507,8.6219,8.8635,9.0719,9.1951,9.2846,9.3488,9.3828,9.2771,9.2582,9.3752,9.3224,9.3294,9.449,9.4553,9.468,9.4987,9.501,9.501,9.501,9.4718,9.4553,9.4553,9.4553,9.4133,9.3337,9.2455,9.0936,8.8898,8.6424,8.4824,8.3954,8.3502,8.3474,0.0,0.0,0.0,0.0,0.0,7.9365,7.8602,7.8245,7.8081,7.8081,7.8081,7.7784,7.7179,7.6,7.5331,7.4646,7.3276,7.2899,7.2816,7.2582,7.2165,7.1798,7.1798,7.1468,7.0881,7.0073,6.9633,6.9155,6.8348,6.7907,0.0,6.7063,6.5925,6.5459,6.6516,6.5506,6.5092,6.6479,6.5706,6.5569,6.6853,6.6236,6.5934,6.6449,6.5249,0.0,0.0,0.0,6.0127,5.8584,5.8747,0.0,0.0,0.0,5.8291,5.9009,0.0,0.0,0.0,5.7134,5.7377,0.0,0.0,0.0,0.0,0.0,0.0,0.0,0.0,0.0,0.0,0.0,0.0,0.0,0.0,0.0,0.0,8.6585,8.9638,9.2647,9.2605,9.2543,9.3236,9.4005,9.4826,9.562,9.4334,9.4069,9.5431,9.4258,9.4061,9.5372,9.557,0.0,0.0,0.0,9.6519,9.6442,9.5772,9.5417,9.5341,9.5341,9.4963,9.4296,9.3259,9.2009,9.0523,8.7852,8.6198,8.5388,8.5197,8.5074,8.4972,8.4307,8.3521,8.2628,8.0896,7.9863,7.929,7.9221,0.0,0.0,7.9198,7.9123,7.8783,7.7312,7.6783,7.6293,7.4212,7.3628,7.3478,7.2798,7.2573,7.261,7.2635,7.2569,7.2312,7.1615,7.0807,7.0,6.9192,6.8458,6.7944,6.7944,6.7136,6.6936,6.8302,6.6736,6.6166,6.8229,6.7423,6.6953,6.7724,0.0,0.0,6.6769,6.5783,6.4584,6.3184,6.202,6.0836,5.9485,5.9832,6.0054,6.0116,5.9853,5.965,5.9626,5.8925,5.8543,5.85,5.9101,5.9351,0.0,0.0,0.0,0.0,0.0,0.0,0.0,0.0,0.0,0.0,0.0,0.0,0.0,0.0,0.0,8.6767,8.9855,9.2495,9.4468,9.5686,9.6419,9.6572,9.6726,9.7186,9.803,9.7838,9.7493,9.7109,9.7416,9.7457,9.7096,9.7711,9.8154,9.8327,9.8327,9.798,9.7288,9.7116,9.6712,9.6098,0.0,0.0,9.5844,9.4216,9.3057,9.2078,8.8879,8.7362,8.7006,8.5655,8.5399,8.5697,8.3753,8.2821,8.2416,8.025,7.9643,7.9868,7.938,7.9198,7.9198,7.9198,7.8768,7.8165,7.7863,7.7319,0.0,7.5389,7.5103,7.4793,7.354,7.325,7.3278,7.3411,7.2973,7.2459,7.2312,7.1651,7.0844,7.0036,6.9743,6.9633,6.9633,6.7871,6.6806,6.7734,6.6963,6.6659,6.7734,6.765,6.776,6.8568,6.8531,6.8458,6.8458,6.7073,6.5826,6.4897,6.278,6.1332,6.0815,6.0906,6.1137,6.1506,6.1446,6.1258,6.1005,6.0852,6.0595,6.0278,5.9684,5.9067,0.0,0.0,0.0,0.0,0.0,0.0,0.0,0.0,0.0,0.0,0.0,8.1464,8.3021,0.0,8.7306,9.0057,9.2447,9.4395,9.5631,9.6761,9.7519,9.7519,9.7904,9.8481,9.9365,9.9058,9.8788,9.8788,9.8788,9.8596,9.8173,9.8557,9.8788,9.8788,9.8365,9.7942,9.7519,9.7096,9.6711,9.6288,9.6288,9.6288,9.6249,9.4941,9.3927,9.308,9.055,8.919,8.8615,8.693,8.6194,8.5962,8.4394,8.352,8.2909,8.1328,8.0677,8.0573,8.0259,8.0163,8.0163,8.0163,7.9877,7.9457,7.9038,7.8618,7.8046,7.6918,7.661,7.6373,7.5365,7.5089,7.513,7.5233,7.4635,7.4013,7.4013,7.3044,7.2013,7.1628,7.1218,7.0957,7.0957,6.9937,6.9035,6.874,6.8752,6.884,6.9144,6.949,6.9817,6.9925,6.9973,6.9669,6.8962,6.743,6.5962,6.4787,6.3357,6.2353,6.1826,6.1864,6.2022,6.226,6.2505,6.251,6.2347,6.1964,6.1672,6.1435,6.0516,5.9889,0.0,0.0,0.0,0.0,0.0,0.0,0.0,7.955,8.0233,8.3465,8.4627,8.5854,8.8364,8.9482,9.0917,9.3555,9.5034,9.6117,9.6805,9.7534,9.8019,9.8019,9.8634,9.9404,10.0212,9.9712,9.9519,10.0115,9.9596,9.9211,9.9058,9.9211,9.9288,9.9288,9.8596,9.8096,9.775,9.7096,9.6634,9.6288,9.6288,9.6288,9.6288,9.5403,9.4518,9.3595,9.1748,9.0479,8.9556,8.8017,8.6978,8.6286,8.5632,8.4747,8.3708,8.267,8.19,8.1323,8.1131,8.1093,8.1093,8.1093,8.1093,8.0977,8.0285,8.0054,7.9799,7.8491,7.8117,7.7931,7.7152,7.6987,7.6982,7.7024,7.6262,7.5582,7.59,7.4541,7.3296,7.3447,7.2864,7.2298,7.2298,7.2298,7.181,7.0321,7.07,7.1073,7.0877,7.1392,7.1638,7.1219,7.1067,7.0424,6.9026,6.7577,6.6109,6.464,6.4406,6.3935,6.3056,6.3241,6.3329,6.325,6.3604,6.3743,6.3551,6.2897,6.2409,6.2101,6.155,6.1089,7.3924,7.4805,7.7586,8.2072,8.2032,8.3254,0.0,9.1011,8.9267,9.2755,9.4157,9.483,9.5195,9.5925,9.6847,9.7941,9.8288,9.8442,9.8519,9.9269,9.9788,9.9788,9.9904,10.0289,10.1096,10.1096,10.0789,10.0096,10.0712,10.0712,9.9981,10.0596,10.1019,10.1019,10.0904,10.0212,9.8673,9.8557,9.7788,9.6288,9.6288,9.6288,9.6288,9.5403,9.4518,9.3557,9.1133,8.9594,8.8748,8.7786,8.7325,8.7248,8.7171,8.617,8.4555,8.2901,8.2247,8.2054,8.1362,8.1093,8.1093,8.1093,8.1093,8.1093,8.0977,8.0939,8.0769,7.9838,7.9553,7.9281,7.7949,7.7589,7.7625,7.7808,7.6655,7.59,7.741,7.5862,7.4369,7.507,7.4579,7.4029,7.4029,7.4029,7.3463,7.1798,7.1648,7.1706,7.1656,7.1752,7.1769,7.1744,7.1275,7.0424,6.9026,6.8091,6.7173,6.6292,6.6629,6.6388,6.529,6.5711,6.5856,6.5538,6.5577,6.5243,6.4436,6.4359,6.3551,6.2101,6.2743,6.2204,8.1706,8.1762,8.2719,8.5895,8.7198,8.8826,9.2949,9.2834,9.2718,9.5828,9.7134,9.775,9.775,9.8442,9.8981,9.8827,9.9211,9.9558,9.9558,9.9865,10.0096,10.0096,10.0481,10.0904,10.1289,10.1789,10.1712,10.0904,10.202,10.2212,10.0904,10.2097,10.2289,10.1289,10.1289,10.0519,9.8827,9.8288,9.7442,9.6288,9.6288,9.6288,9.6288,9.5903,9.498,9.3595,9.2095,9.0671,8.9363,8.9017,8.8594,8.8094,8.7594,8.6978,8.6209,8.4978,8.3901,8.2939,8.2093,8.1785,8.1708,8.1246,8.1093,8.1093,8.1093,8.1093,8.1016,8.0669,8.0554,8.043,7.9846,7.968,7.9706,7.9779,7.8901,7.8213,7.8883,7.7469,7.6132,7.6476,7.5865,7.5292,7.5292,7.5292,7.5063,7.4354,7.3932,7.3668,7.3518,7.3934,7.3989,7.3343,7.1897,7.061,6.9688,6.8421,6.754,6.721,6.7519,6.7276,6.6349,6.6624,6.6521,6.5897,6.5397,6.5205,6.5359,6.3858,6.3281,6.3551,6.2897,6.2474,8.5253,8.5796,8.6628,8.9243,9.195,9.4196,9.4926,9.5502,9.6578,9.8808,9.975,10.0212,10.0212,10.0481,10.0596,9.9942,10.0212,10.0404,10.0096,10.0096,9.9981,9.975,10.0289,10.0712,10.0904,10.1712,10.202,10.1289,10.2712,10.2981,10.1712,10.3097,10.3212,10.1712,10.1712,10.0712,9.8827,9.8173,9.7326,9.6288,9.6288,9.6288,9.6288,9.6057,9.5249,9.398,9.2941,9.1787,9.0594,9.0094,8.9556,8.8979,8.8325,8.794,8.7671,8.7055,8.5593,8.3785,8.267,8.2285,8.217,8.1362,8.1093,8.1093,8.1093,8.1093,8.1093,8.1093,8.1093,8.1093,8.1093,8.1093,8.1093,8.1093,8.0439,7.9862,8.0131,7.8823,7.763,7.763,7.6938,7.6284,7.6053,7.6015,7.6015,7.6015,7.5616,7.5288,7.5086,7.563,7.5622,7.4629,7.2902,7.1444,7.0631,6.9321,6.8395,6.8148,6.8436,6.8224,6.7373,6.7431,6.7051,6.6244,6.5166,6.5013,6.5897,6.382,6.3397,6.4589,6.3589,6.3205,8.0427,8.3516,8.7183,9.2269,9.6095,9.925,10.1712,10.2327,10.2597,10.3482,10.3712,10.3712,10.3712,10.3097,10.252,10.252,10.1789,10.1019,10.0212,10.0096,9.9788,9.8942,9.8865,9.9211,10.0096,10.0904,10.1289,10.1289,10.2097,10.2597,10.2597,10.3405,10.3482,10.2597,10.2597,10.1289,9.8827,9.875,9.7942,9.6288,9.6288,9.6288,9.6288,9.5403,9.5018,9.4864,9.321,9.2479,9.2287,9.0594,8.9902,8.9863,8.9808,8.9363,8.8671,8.8632,8.7017,8.4632,8.2901,8.2285,8.217,8.1362,8.1093,8.1093,8.1093,8.1093,8.1093,8.1093,8.1093,8.1093,8.1093,8.1093,8.1093,8.1093,8.0439,8.0054,8.09,7.9669,7.8453,7.8453,7.7823,7.6976,7.613,7.6015,7.6015,7.6015,7.5962,7.5962,7.5976,7.5976,7.5749,7.5127,7.4328,7.325,7.1878,7.099,7.0139,6.9289,6.9737,6.9658,6.8765,6.8498,6.7936,6.709,6.5436,6.5013,6.5897,6.4974,6.4551,6.4628,6.5397,6.4897,8.3702,8.7671,9.2213,9.6788,9.9635,10.1712,10.3097,10.3482,10.3482,10.3789,10.2019,10.0575,10.1075,9.9634,9.8653,9.9768,10.0288,10.0596,10.0904,10.0904,10.0404,9.8981,9.9288,9.9327,9.8442,10.0096,10.1289,10.1289,10.3097,10.3982,10.3482,10.529,10.5482,10.3482,10.3982,10.2481,9.8827,9.8788,9.7942,9.6288,9.6288,9.6288,9.6288,9.6019,9.5557,9.496,9.4403,9.3518,9.2441,9.1864,9.1287,9.071,9.0133,8.9748,8.944,8.8902,8.7786,8.6324,8.4593,8.3632,8.3016,8.217,8.1554,8.1093,8.1093,8.1093,8.1093,8.1093,8.1093,8.1093,8.1093,8.1093,8.1093,8.1093,8.09,8.0746,8.1054,8.0169,7.9208,7.8592,7.7861,7.7015,7.613,7.6015,7.6015,7.6015,7.6015,7.6015,7.6015,7.6015,7.5787,7.5145,7.4402,7.3325,7.1941,7.1069,7.0239,6.935,6.9793,6.9485,6.8057,6.8268,6.7744,6.632,6.5166,6.5013,6.5897,6.4436,6.432,6.5474,6.5166,6.5013,8.7792,9.1668,9.5711,10.0289,10.2289,10.3405,10.4482,10.4597,10.4289,10.4289,10.1788,9.9653,9.9843,9.7865,9.6501,9.7538,9.8308,9.9019,9.9827,9.9712,9.9211,9.8442,9.8827,9.8865,9.8057,9.9442,10.0519,10.0789,10.3212,10.4597,10.4289,10.6213,10.629,10.4405,10.4597,10.2789,9.8827,9.8788,9.7942,9.6288,9.6288,9.6288,9.6288,9.6288,9.598,9.5441,9.5134,9.4364,9.3364,9.2749,9.2172,9.1595,9.071,9.0364,9.0248,8.944,8.8594,8.7594,8.5593,8.4324,8.3401,8.2247,8.1516,8.1093,8.1093,8.1093,8.1093,8.1093,8.1093,8.1093,8.1093,8.1093,8.1093,8.1093,8.1093,8.1093,8.1093,8.0669,8.0015,7.9131,7.8554,7.79,7.7053,7.6899,7.6899,7.6899,7.6899,7.6669,7.6092,7.6015,7.5833,7.5446,7.4664,7.3819,7.2907,7.1805,7.093,7.036,7.0369,6.975,6.8411,6.8377,6.7744,6.6359,6.5205,6.5013,6.5897,6.4474,6.4512,6.5897,6.532,6.5359,9.2053,9.5172,9.7788,10.2597,10.3905,10.4289,10.5905,10.5597,10.4905,10.4905,10.2712,10.0596,9.9633,9.752,9.5981,9.5983,9.627,9.6788,9.7634,9.7096,9.6903,9.7596,9.7673,9.7942,9.8788,9.8904,9.9288,10.0173,10.2481,10.4212,10.5097,10.602,10.602,10.5097,10.4406,10.2309,9.8904,9.8827,9.798,9.6442,9.6365,9.6365,9.6365,9.6326,9.6288,9.6249,9.5441,9.5018,9.4864,9.3249,9.2556,9.2402,9.1556,9.121,9.1095,9.021,8.9402,8.8325,8.5824,8.4362,8.3324,8.1747,8.117,8.1093,8.1093,8.1093,8.1093,8.1093,8.1093,8.1093,8.1093,8.1093,8.1093,8.1093,8.1093,8.1093,8.1093,8.1093,8.0823,7.9977,7.9746,7.9477,7.8631,7.8477,7.8477,7.8477,7.8477,7.79,7.6284,7.6053,7.6053,7.6015,7.5245,7.4745,7.4668,7.3168,7.2206,7.2129,7.136,7.0552,6.9744,6.8898,6.8052,6.7167,6.5551,6.5128,6.5974,6.5128,6.5128,6.5897,6.5936,6.5974,9.4107,9.7787,10.1289,10.2597,10.3405,10.3982,10.4405,10.3905,10.2904,10.1597,9.777,9.433,9.3409,9.2275,9.2063,9.3927,9.7001,9.9635,10.1096,10.1096,10.0789,10.0404,9.9788,9.9519,9.975,10.0289,10.1019,10.1904,10.2597,10.3597,10.4982,10.6521,10.6713,10.5097,10.5111,10.3392,9.9808,9.9096,9.8596,9.8134,9.7519,9.7211,9.7173,9.6557,9.6288,9.6288,9.6057,9.5595,9.4903,9.3826,9.3018,9.2402,9.1556,9.121,9.1095,9.021,8.9402,8.8402,8.6478,8.4824,8.3516,8.3093,8.2131,8.1093,8.1093,8.1093,8.1093,8.1093,8.1093,8.1093,8.1093,8.1093,8.1093,8.1093,8.1093,8.1093,8.1093,8.1093,8.0823,7.9977,7.9285,7.8746,7.8515,7.8477,7.8477,7.8477,7.8477,7.813,7.7092,7.6976,7.6707,7.6053,7.5784,7.5168,7.3899,7.3399,7.2629,7.1321,7.1014,7.0552,6.9744,6.9475,6.8975,6.809,6.7013,6.6551,6.6782,6.6551,6.6282,6.5897,6.6513,6.6782,9.7285,10.0211,10.2712,10.3097,10.3289,10.3097,10.2404,10.1289,9.9788,9.7711,9.3789,9.0429,8.9491,8.9604,9.0429,9.216,9.6424,10.0096,10.1789,10.202,10.202,10.1904,10.1481,10.1212,10.1212,10.1597,10.2212,10.3097,10.3482,10.4289,10.5597,10.6597,10.6713,10.5713,10.5407,10.3805,10.0712,9.9404,9.8788,9.8788,9.8288,9.7865,9.748,9.7019,9.6634,9.6288,9.6288,9.6019,9.548,9.4634,9.3787,9.2941,9.2095,9.1556,9.1133,9.0671,8.971,8.8556,8.7594,8.5901,8.4093,8.3708,8.2939,8.2208,8.2208,8.1939,8.1708,8.2093,8.19,8.1631,8.1631,8.1631,8.1554,8.117,8.1093,8.1093,8.1093,8.1093,8.0977,8.0477,7.9977,7.9631,7.9631,7.9631,7.9631,7.9631,7.9631,7.9323,7.8515,7.8054,7.7476,7.6669,7.6245,7.563,7.4668,7.3937,7.3245,7.2629,7.186,7.1091,7.0244,6.9898,6.9283,6.8436,6.7936,6.7667,6.7667,6.7667,6.7436,6.7013,6.7475,6.7475,10.0616,10.202,10.2904,10.3405,10.2904,10.1789,9.9981,9.825,9.6211,9.3441,9.0364,8.7846,8.6761,8.812,8.9752,9.0834,9.5309,9.9327,10.1404,10.1597,10.202,10.2789,10.2789,10.2904,10.3097,10.302,10.3405,10.4482,10.5097,10.5713,10.6213,10.6405,10.6503,10.6506,10.5599,10.4021,10.1693,10.0096,9.9288,9.9288,9.9058,9.8596,9.7827,9.7596,9.7134,9.6442,9.6365,9.6288,9.6249,9.5365,9.448,9.3633,9.2826,9.1979,9.121,9.1056,9.0056,8.8671,8.8556,8.7017,8.4939,8.4055,8.367,8.3593,8.3593,8.3054,8.2631,8.3401,8.3054,8.2477,8.2477,8.2401,8.2131,8.1439,8.1122,8.0975,8.0975,8.0888,8.0838,8.0838,8.0888,8.0975,8.0975,8.1061,8.1093,8.1093,8.1093,8.0823,8.0092,7.9208,7.8361,7.7553,7.6669,7.613,7.6015,7.4553,7.3899,7.4514,7.3168,7.2014,7.1283,7.0591,6.9783,6.8936,6.8783,6.8667,6.8577,6.8577,6.85,6.8385,6.8513,6.8167,10.152,10.252,10.3405,10.2097,10.1096,9.9904,9.7519,9.5595,9.3249,8.9286,8.694,8.5093,8.3462,8.5115,8.7731,9.0692,9.4846,9.9058,10.2904,10.3405,10.3789,10.4597,10.4097,10.4212,10.5597,10.5097,10.5597,10.7905,10.7482,10.6713,10.5405,10.6713,10.7201,10.6708,10.5697,10.4599,10.3707,10.2498,10.1904,10.1904,10.0481,9.9788,9.9596,9.8173,9.7403,9.725,9.6596,0.0,9.6249,9.5365,9.448,9.3633,9.2826,9.1979,9.1133,9.0402,8.9517,8.8594,8.7863,8.6863,8.5747,8.4939,8.417,8.3593,8.3593,8.3478,8.3401,8.3555,8.3478,8.3362,8.3362,8.2824,8.2247,8.2131,8.1159,8.0296,8.0296,7.9888,7.9513,7.9513,7.9929,8.0296,8.0296,8.0733,8.1093,8.1093,8.1093,8.1054,8.09,8.0131,7.9246,7.8361,7.7553,7.6784,7.6053,7.5091,7.4284,7.3745,7.3437,7.3206,7.3053,7.2937,7.2437,7.1552,7.0821,7.0129,6.9475,6.9475,6.909,6.8436,6.9129,6.9398,10.2212,10.2904,10.3597,10.2289,10.1289,9.9596,9.5288,9.2979,9.0402,8.5709,8.3785,8.267,8.1823,8.4093,8.6786,8.8863,9.3518,9.7904,10.0789,10.2789,10.4405,10.5597,10.579,10.6405,10.7598,10.729,10.7598,10.879,10.8482,10.7982,10.7098,10.7482,10.7797,10.7911,10.6122,10.5178,10.5286,10.3984,10.302,10.2597,10.1789,10.0904,10.0115,9.875,9.7942,9.7442,9.6634,9.6288,9.6288,9.5865,9.5172,9.4326,9.3941,9.3018,9.1825,9.1402,9.0441,8.921,8.8363,8.7517,8.6632,8.5786,8.5247,8.4901,8.4901,8.4593,8.4362,8.4786,8.4593,8.4286,8.4286,8.3978,8.3451,8.2636,8.1344,8.013,7.9735,7.9403,7.9311,7.9741,7.9728,7.9773,8.0168,8.0449,8.0591,8.0591,8.0871,8.1093,8.1093,8.0746,8.0131,7.9285,7.8823,7.8246,7.7361,7.6515,7.5899,7.5515,7.463,7.413,7.413,7.3745,7.3322,7.2899,7.2014,7.1398,7.1014,7.0552,7.0129,6.9706,7.0129,7.009,10.252,10.3405,10.3905,10.2904,10.1789,9.9558,9.3826,9.1018,8.8248,8.3324,8.167,8.1093,8.1093,8.3401,8.5709,8.6901,9.121,9.5365,9.8134,10.0981,10.3712,10.6097,10.7213,10.8098,10.9098,10.8983,10.9098,10.9406,10.9483,10.9406,10.9213,10.8598,10.8406,10.8906,10.6982,10.6097,10.6405,10.4905,10.3789,10.3097,10.2789,10.1904,10.0596,9.9558,9.8596,9.775,9.6903,9.648,9.6288,9.6288,9.5788,9.498,9.498,9.398,9.2479,9.2479,9.1402,8.9825,8.9171,8.8286,8.7325,8.6824,8.6517,8.6363,8.6363,8.6055,8.5863,8.6478,8.6209,8.5676,8.5497,8.5326,8.4744,8.2893,8.1429,8.0267,7.9492,7.9204,7.9317,8.0117,7.9603,7.9249,8.0053,8.0059,7.9949,8.0067,8.0573,8.0943,8.1077,8.1093,8.0823,8.0169,7.99,7.9515,7.8823,7.8015,7.7553,7.7553,7.6092,7.5245,7.5245,7.4476,7.3937,7.3783,7.2937,7.2399,7.2206,7.1321,7.0898,7.0898,7.1091,7.0821,10.2404,10.3789,10.4597,10.2981,10.1404,9.8865,9.3672,9.0594,8.7555,8.3208,8.167,8.1093,8.1093,8.1939,8.3439,8.5824,8.7325,9.0402,9.6749,9.8557,10.0981,10.579,10.7213,10.829,10.9906,10.9406,10.9598,11.1098,11.1291,11.0906,11.0098,10.9983,10.9598,10.8906,10.8713,10.7905,10.6405,10.5482,10.4905,10.4905,10.3289,10.252,10.2289,10.0712,9.9481,9.8634,9.7788,9.698,0.0,9.6288,9.5788,9.498,9.498,9.398,9.2479,9.2479,9.1402,8.9902,8.9825,8.8748,8.7517,8.8209,8.794,8.7286,8.7286,8.7786,8.8363,8.844,8.8402,8.82,8.7518,8.6764,8.5459,8.2639,8.1326,8.0507,7.9909,7.9173,7.8879,7.9688,7.9063,7.8613,7.9434,7.9428,7.9469,8.0008,8.0163,8.0389,8.1007,8.1093,8.1054,8.0977,8.0285,7.9785,7.9708,7.89,7.84,7.84,7.7553,7.7053,7.7053,7.6245,7.5399,7.463,7.3783,7.2976,7.2206,7.1321,7.0898,7.0937,7.1706,7.2052,10.2192,10.4212,10.5482,10.3789,10.1289,9.798,9.2864,8.9325,8.6094,8.2362,8.1323,8.1093,8.1093,8.1362,8.19,8.2939,8.4209,8.6401,9.0133,9.3172,9.7096,10.2712,10.4982,10.7598,11.1291,11.1406,11.1714,11.2906,11.2522,11.2099,11.1714,11.0714,11.0291,11.0521,10.8983,10.8098,10.7905,10.6597,10.5597,10.5097,10.3905,10.3097,10.252,10.0904,9.9596,9.875,9.7865,9.7057,0.0,9.6288,9.6095,9.5788,9.5788,9.5057,9.3941,9.3403,9.2479,9.1325,9.0287,8.9479,8.8902,8.8748,8.8786,8.8825,8.8325,8.8402,8.8709,8.8709,8.8382,8.7981,8.768,8.6734,8.5451,8.3788,8.2475,8.1391,8.0672,7.9507,7.8993,8.0277,7.8983,7.8116,7.9446,7.9111,7.8878,7.9469,7.9868,8.0333,8.1007,8.1093,8.1093,8.1093,8.0785,8.0592,8.0592,7.9785,7.9285,7.9285,7.8477,7.8015,7.8015,7.7207,7.663,7.6284,7.4938,7.4053,7.3707,7.286,7.2206,7.1706,7.2591,7.2706,10.0885,10.3712,10.5713,10.4289,10.1289,9.7596,9.2979,8.8902,8.5209,8.2093,8.1285,8.1093,8.1093,8.1093,8.1093,8.1093,8.2093,8.3708,8.6132,8.9325,9.348,9.9173,10.1789,10.5213,11.0291,11.1999,11.3097,11.3903,11.2699,11.2215,11.2689,11.0909,11.0193,11.1098,10.9098,10.829,10.8906,10.7521,10.629,10.5482,10.4405,10.3405,10.2597,10.1096,9.9827,9.875,9.8134,9.7288,0.0,9.6288,9.6288,9.6288,9.6288,9.5788,9.4903,9.4287,9.3557,9.2633,9.1171,9.0517,9.021,8.9633,8.9633,8.9867,8.957,8.9495,8.9495,8.9495,8.8824,8.8098,8.8098,8.6882,8.5516,8.4923,8.3667,8.2406,8.1856,8.0461,7.9727,8.1085,7.936,7.8222,7.9874,7.9157,7.8674,7.9529,8.0144,8.0714,8.1099,8.1321,8.1362,8.1131,8.1093,8.1093,8.1093,8.0554,8.0169,8.0169,7.9361,7.8861,7.8861,7.8092,7.763,7.763,7.5976,7.5091,7.5091,7.4014,7.3168,7.2591,7.3476,7.3668,9.7904,10.1904,10.4905,10.4097,10.1289,9.7904,9.4441,8.9748,8.5363,8.2824,8.1631,8.1093,8.1093,8.1093,8.1093,8.1093,8.1093,8.2593,8.6786,8.8171,9.0633,9.5749,9.7827,10.0904,10.602,11.0217,11.2998,11.3799,11.1591,11.0893,11.26,11.0291,10.9301,11.0192,10.9406,10.8906,10.8906,10.8098,10.7213,10.6405,10.4713,10.3405,10.2597,10.1712,10.0404,9.8788,9.8788,9.7827,0.0,9.6288,9.6288,9.6288,9.6288,9.5788,9.498,9.498,9.4441,9.3557,9.2749,9.1902,9.121,9.1171,9.0594,9.0065,9.1069,9.1353,9.1353,9.1353,9.0355,8.9262,8.9262,8.7549,8.5817,8.5817,8.4572,8.3398,8.3398,8.2113,8.1232,8.2039,8.0241,7.9103,8.0718,7.9653,7.905,8.0479,8.1269,8.1597,8.1322,8.1887,8.1977,8.1208,8.1093,8.1093,8.1093,8.1093,8.1093,8.1093,8.0285,7.9785,7.9785,7.8938,7.8477,7.8477,7.6823,7.5976,7.5976,7.4322,7.3514,7.3514,7.4322,7.513,9.2269,9.498,9.7134,9.6326,9.4403,9.2287,9.0633,8.7209,8.3978,8.2593,8.167,8.1093,8.1093,8.0631,8.0592,8.1747,8.1477,8.1977,8.4439,8.8055,9.2287,9.7403,10.5213,11.0714,11.2291,11.4188,11.5183,11.4877,11.3595,11.2703,11.2704,11.0311,10.9595,11.1021,10.9713,10.9213,10.979,10.8406,10.729,10.6405,10.4713,10.3405,10.2597,10.1712,10.0404,9.8788,9.8788,9.7865,9.6288,9.6288,9.6288,9.6288,9.6288,9.6134,9.5826,9.5211,9.4826,9.448,9.3633,9.2787,9.2172,9.271,9.2364,9.1736,9.21,9.1848,9.1324,9.0884,9.0483,8.9999,8.9525,8.8414,8.7435,8.7435,8.6224,8.5049,8.5049,8.3324,8.2076,8.2884,8.1085,7.9764,8.0828,8.0571,8.0486,8.1267,8.2033,8.2377,8.2043,8.2166,8.1977,8.1208,8.1093,8.1093,8.1093,8.1093,8.1093,8.1093,8.0823,8.0708,8.0708,7.9862,7.94,7.94,7.8284,7.7438,7.6899,7.6361,7.6092,7.6092,7.5745,7.6053,8.7962,9.1018,9.3595,9.3095,9.1672,9.0171,8.9325,8.6247,8.3362,8.2477,8.167,8.1093,8.1093,8.0669,8.0631,8.167,8.1439,8.19,8.4209,8.7825,9.2479,9.8557,10.7098,11.2714,11.3291,11.501,11.571,11.479,11.3686,11.2603,11.1813,10.9589,10.909,11.0521,10.9213,10.8983,11.0214,10.8213,10.679,10.5905,10.4212,10.2981,10.2097,10.152,10.0404,9.8788,9.8788,9.7865,0.0,9.6288,9.6288,9.6288,9.6288,9.6288,9.6249,9.5672,9.548,9.5365,9.448,9.3864,9.348,9.3633,9.3389,9.3041,9.3066,9.2361,9.1488,9.1446,9.1205,9.0913,9.0722,8.984,8.9055,8.9055,8.7793,8.6604,8.6604,8.5156,8.393,8.4123,8.2965,8.2028,8.2156,8.2222,8.2314,8.2585,8.3238,8.3416,8.2524,8.2649,8.2362,8.1208,8.1093,8.1093,8.1093,8.1093,8.1093,8.1093,8.1093,8.1093,8.1093,8.0592,8.0285,8.0285,7.9438,7.8746,7.8246,7.79,7.7746,7.7746,7.7207,7.7246,0.0,8.9133,9.2826,9.2864,9.1787,9.0479,8.9787,8.6555,0.0,8.2554,8.1747,8.117,8.1093,8.1054,8.1054,8.117,8.1131,8.2285,8.5709,8.8209,9.2364,9.9596,10.4982,10.8713,11.0214,11.3175,11.4797,11.3996,11.2387,11.0977,11.0176,10.8512,10.7872,10.8808,10.7982,10.829,10.9983,10.7598,10.5905,10.4982,10.3405,10.2097,10.1289,10.1289,10.0404,0.0,9.8827,9.7865,9.6365,9.6326,9.6288,9.6288,9.6288,9.6288,9.6288,9.6288,9.6288,9.6172,9.5365,9.5057,9.4864,9.4057,9.3905,9.3984,9.3984,9.3013,9.2044,9.2859,9.2486,9.2037,9.2692,9.1752,9.0544,9.0506,8.9261,8.8053,8.7978,8.7361,8.6568,8.5751,8.5549,8.5247,8.4518,8.4317,8.4328,8.4328,8.4816,8.4587,8.2987,8.3264,8.2978,8.1439,8.1208,8.1208,8.1285,8.117,8.1093,8.1093,8.1093,8.1093,8.1093,8.1093,8.1093,8.1093,8.0246,7.9823,7.9823,7.8938,7.8515,7.8592,7.8592,7.8592,8.14,0.0,8.4209,8.4824,8.517,8.567,0.0,8.5796,8.4404,8.3494,8.264,8.1901,8.1224,8.0554,8.0516,8.1823,8.1516,8.2516,8.6517,9.4172,10.0481,10.3597,10.8983,11.2214,11.1291,11.3081,11.418,11.4011,11.2388,11.1123,11.0187,10.7999,10.7104,10.8021,10.6482,10.6482,10.829,10.7021,10.5713,10.4212,10.3097,10.2097,10.1289,10.1289,10.0712,9.975,9.9096,9.8211,9.7173,9.6557,9.6288,9.6288,9.6288,9.6288,9.6288,9.6288,9.6288,9.6288,9.6057,9.5557,9.496,9.4749,9.4786,9.4884,9.4884,9.425,9.3558,9.3775,9.3699,9.3577,9.3773,9.3035,9.2091,9.1488,9.0544,8.9638,8.8933,8.8204,8.7588,8.7336,8.6279,8.5562,8.604,8.5562,8.5294,8.5817,8.5952,8.5624,8.4506,8.3912,8.3439,8.3054,8.2401,8.2285,8.2939,8.1823,8.1093,8.1093,8.1093,8.1093,8.1093,8.1093,8.1093,8.1093,8.0246,7.9823,7.9823,7.8938,7.8823,7.9477,7.9477,7.9477,8.1208,8.19,8.2747,8.2401,8.3516,8.4917,8.545,8.5305,8.4759,8.3873,8.2986,8.2139,8.1353,8.1716,8.2185,8.2417,8.3641,8.5901,8.9748,9.6403,10.1904,10.4789,10.8983,11.1791,11.2022,11.3214,11.3791,11.3407,11.2214,11.0906,10.9713,10.7905,10.679,10.6482,10.5597,10.5597,10.6482,10.5713,10.4597,10.3289,10.2404,10.1789,10.1289,10.1289,10.0596,9.9481,9.8981,9.8096,9.6903,9.648,9.6288,9.6288,9.6288,9.6288,9.6288,9.6288,9.6288,9.6288,9.6288,9.598,9.5595,9.5595,9.5636,9.57,9.57,9.5407,9.5048,9.4718,9.4579,9.4655,9.5048,9.4471,9.3709,9.3252,9.2223,9.1232,9.0775,8.9974,8.931,8.8907,8.8434,8.7976,8.7671,8.7535,8.7336,8.693,8.6815,8.6334,8.506,8.4478,8.4055,8.3632,8.317,8.3093,8.3555,8.2747,8.2093,8.167,8.1285,8.1093,8.1093,8.1093,8.1093,8.1093,8.0631,8.04,8.04,7.99,7.9939,8.04,8.04,8.04,8.2516,8.4055,8.517,8.3016,8.4209,8.5802,8.5267,8.5183,8.4928,8.4141,8.3325,8.2655,8.2121,8.3495,8.4427,8.3485,8.6708,9.0419,9.3633,9.7134,10.0712,10.4097,10.6982,10.9483,11.1522,11.2791,11.3214,11.2599,11.1598,11.0521,10.8983,10.779,10.6405,10.4982,10.4789,10.4713,10.4482,10.3982,10.3289,10.2404,10.1517,10.1095,10.1096,10.0878,9.9977,9.8788,0.0,0.0,9.648,9.6365,9.6288,9.6288,9.6288,9.6288,9.6288,9.6288,9.6288,9.6288,9.6288,9.6288,9.6288,9.6288,9.6288,9.6288,9.6288,9.6288,9.6155,9.5533,9.5363,9.5511,9.6136,9.5749,9.5134,9.4864,9.371,9.2595,9.2364,9.171,9.0979,9.0248,9.0594,9.0594,8.9286,8.944,8.9248,8.7825,8.7478,8.6824,8.5286,8.4978,8.467,8.4055,8.3978,8.4016,8.417,8.4055,8.367,8.2939,8.1862,8.1246,8.1093,8.1093,8.1093,8.1093,8.1093,8.1093,8.1093,8.1093,8.1093,8.1093,8.1093,8.1093,8.3401,8.6209,8.8209,8.4362,8.4247,8.5247,8.5802,8.5983,8.5783,8.4911,8.4673,8.4743,8.5257,8.4558,8.4512,8.6431,8.969,9.2914,9.5537,9.9442,10.202,10.1904,10.5405,10.7713,10.7405,10.9406,11.0983,11.1598,11.0214,10.9213,10.8906,10.6097,10.4405,10.4097,10.3405,10.2597,10.1904,10.252,10.2404,10.15,10.0694,10.0295,10.0192,9.8933,9.8535,9.8731,0.0,9.6984,9.725,9.6596,9.6288,9.6288,9.6288,9.6288,9.6288,9.6288,9.6288,9.6288,9.6288,9.6288,9.6288,9.6288,9.6288,9.6288,9.6288,9.6288,9.6269,9.6155,9.6136,9.6155,9.6269,9.6211,9.5711,9.4249,9.371,9.3133,9.171,9.1287,9.1171,9.1018,9.0517,9.0248,9.0748,8.9748,8.8786,8.8517,8.7863,8.7055,8.6055,8.5324,8.5132,8.567,8.5709,8.6017,8.6748,8.6132,8.567,8.5517,8.3362,8.1823,8.1131,8.1093,8.1093,8.1093,8.1093,8.1093,8.1093,8.1093,8.1093,8.1093,8.1093,8.1093,8.4286,8.6055,8.7632,8.6594,8.8017,8.9419,8.8414,8.8964,8.9051,8.6863,8.6401,8.6401,8.6339,8.7526,9.0097,9.4898,9.5858,9.6551,9.8115,9.9635,10.0712,10.1212,10.3905,10.602,10.7021,10.8598,10.9483,10.9406,10.829,10.729,10.6905,10.4982,10.3712,10.3212,10.2789,10.2212,10.1289,10.1712,10.1712,10.1289,10.0509,9.9939,9.9474,9.8285,9.7648,9.7461,0.0,9.6576,9.6826,9.6442,9.6288,9.6288,9.6288,9.6288,9.6288,9.6288,9.6288,9.6288,9.6288,9.6288,9.6288,9.6288,9.6288,9.6288,9.6288,9.6288,9.6288,9.6288,9.6288,9.6288,9.6288,9.6288,9.6095,9.5288,9.4403,9.348,9.271,9.1825,9.121,9.121,9.0902,9.0748,9.1133,9.0556,8.9748,8.8825,8.8748,8.8286,8.6978,8.6901,8.7094,8.7478,8.7517,8.7671,8.8055,8.7286,8.6017,8.417,8.2939,8.1939,8.1131,8.1093,8.1093,8.1093,8.1093,8.1093,8.1093,8.1093,8.1093,8.1093,8.1093,8.1093,8.5132,8.6055,8.7286,8.8402,9.0325,9.1843,9.1527,9.2045,9.2079,9.0358,8.9786,8.9346,8.8382,9.0943,9.4891,10.0018,10.0114,9.9767,10.0616,10.0096,10.0212,10.152,10.2981,10.4713,10.6905,10.7982,10.829,10.7482,10.679,10.602,10.5097,10.4097,10.3289,10.2597,10.2404,10.1904,10.1019,10.1019,10.1019,10.1019,10.0209,9.9304,9.8378,9.7338,9.6527,9.5852,9.5852,9.5936,9.6078,9.6232,9.6288,9.6269,9.6117,9.604,9.604,9.602,9.6019,9.6019,9.6019,9.6019,9.6019,9.6249,9.6288,9.6288,9.6288,9.6288,9.6288,9.6288,9.6288,9.6288,9.6288,9.6288,9.6249,9.6057,9.4826,9.371,9.371,9.2556,9.1556,9.1748,9.1633,9.1518,9.1518,9.1325,9.071,8.921,8.9517,8.9363,8.7902,8.8286,8.8709,8.8709,8.8863,8.8979,8.8979,8.8209,8.6517,8.367,8.2939,8.2324,8.1708,8.167,8.1593,8.14,8.1362,8.1285,8.1093,8.1093,8.1093,8.1093,8.1093,8.1093,8.5824,8.7786,8.9479,8.8863,8.7671,8.8248,9.4441,9.4113,9.3305,9.6191,9.6191,9.517,9.3564,9.4227,9.5147,9.5649,9.8857,10.1577,10.2309,10.2404,10.2404,10.252,10.3289,10.4289,10.5213,10.679,10.7405,10.6597,10.6405,10.602,10.5097,10.3597,10.2712,10.2597,10.1789,10.1019,10.0173,10.0173,10.0173,10.0212,9.9386,9.8134,9.6538,9.508,9.44,9.426,9.426,9.4655,9.5341,9.602,9.6288,9.6232,9.5555,9.5295,9.5248,9.5156,9.5095,9.5095,9.5095,9.5095,9.5211,9.6057,9.6288,9.6288,9.6288,9.6288,9.6288,9.6288,9.6288,9.6288,9.6288,9.6288,9.6095,9.5288,9.4364,9.371,9.371,9.3018,9.2633,9.3364,9.2903,9.2402,9.2402,9.1748,9.0902,8.994,8.9863,8.9594,8.8709,8.8671,8.8709,8.8709,8.9363,8.9825,8.9825,8.9056,8.8171,8.7094,8.4824,8.3478,8.3401,8.3401,8.3016,8.2247,8.2208,8.1862,8.1093,8.1093,8.1093,8.1093,8.1093,8.1093,8.5466,8.7275,8.914,8.8897,8.8254,8.9479,9.6288,9.7979,9.815,9.8324,9.9402,9.9478,9.6793,9.8205,9.9632,9.9147,10.1712,10.3713,10.3405,10.2904,10.2789,10.3289,10.3212,10.3597,10.4982,10.5213,10.4982,10.4097,10.402,10.3712,10.2789,10.1712,10.1289,10.1789,10.0481,9.9865,10.0096,9.9558,9.9019,9.8481,9.815,9.7456,9.6371,9.5287,9.4805,9.4793,9.4793,9.5189,9.5862,9.57,9.5882,9.6269,9.6,9.5882,9.5864,9.5828,9.5826,9.5826,9.5826,9.5826,9.5865,9.6211,9.6288,9.6288,9.6288,9.6288,9.6288,9.6288,9.6288,9.6288,9.6288,9.6288,9.6211,9.5903,9.5134,9.4518,9.4518,9.3826,9.3326,9.3633,9.3441,9.3095,9.2595,9.221,9.1518,9.0133,9.0364,9.0402,8.9556,8.9902,9.0248,9.0248,9.0517,9.0479,8.994,8.9633,8.9094,8.8248,8.5824,8.4401,8.4401,8.3901,8.3439,8.3093,8.3093,8.2939,8.2631,8.2631,8.2631,8.2631,8.2631,8.2362,8.6323,8.7478,8.892,8.9491,8.9613,9.1395,9.8384,10.05,10.1385,10.2598,10.2597,10.1595,9.9337,10.0094,10.0923,10.0306,10.2606,10.4013,10.2915,10.249,10.2313,10.2697,10.2689,10.3097,10.4212,10.4097,10.3482,10.2712,10.2597,10.2212,10.1289,10.0481,10.0404,10.0904,9.9519,9.8942,9.9288,9.8673,9.7942,9.7134,9.7134,9.6746,9.599,9.5456,9.5072,9.4866,9.5096,9.549,9.5922,9.5678,9.57,9.5981,9.6232,9.6155,9.5942,9.5924,9.5903,9.5903,9.5903,9.5903,9.5942,9.6211,9.6288,9.6288,9.6288,9.6288,9.6288,9.6288,9.6288,9.6288,9.6288,9.6288,9.6288,9.6288,9.5634,9.5057,9.5326,9.4518,9.3864,9.4403,9.3864,9.321,9.2941,9.2441,9.1672,9.0479,9.0825,9.0979,9.0402,9.0825,9.1325,9.1595,9.1595,9.1364,9.0787,9.021,8.9787,8.9517,8.7363,8.6094,8.6094,8.5517,8.5055,8.4786,8.4786,8.467,8.4401,8.4132,8.4016,8.3978,8.3708,8.3285,8.8733,8.8804,8.9195,9.0766,9.1308,9.3434,10.0904,10.1289,10.2289,11.0021,10.6197,10.1422,10.1404,9.9381,9.7712,9.7783,10.06,10.2118,10.0482,10.0921,10.11,10.0299,10.1592,10.2597,10.2597,10.3405,10.3482,10.2712,10.2597,10.2212,10.1289,10.0481,10.0096,10.0096,9.925,9.8365,9.7519,9.7519,9.7096,9.6288,9.6326,9.5902,9.5189,9.5189,9.4817,9.4157,9.4891,9.5189,9.5273,9.6,9.5862,9.5295,9.6,9.5862,9.5203,9.5022,9.5018,9.5018,9.498,9.5018,9.5134,9.6019,9.6288,9.6288,9.6288,9.6288,9.6288,9.6288,9.6288,9.6288,9.6288,9.6288,9.6288,9.6288,9.5634,9.5249,9.6095,9.4941,9.4249,9.598,9.4249,9.2787,9.3557,9.2326,9.121,9.121,9.121,9.121,9.121,9.121,9.1556,9.2402,9.2518,9.2518,9.2479,9.0941,9.0287,9.1171,8.9633,8.8709,8.8709,8.8709,8.8286,8.744,8.7401,8.6978,8.6132,8.5324,8.4939,8.4901,8.4016,8.3593,8.6583,8.7966,8.9748,8.9663,9.2266,9.6361,10.2174,10.3695,10.5601,11.1928,10.8811,10.4728,10.4208,10.3382,10.1922,9.9092,10.0406,10.1391,10.0403,9.9925,9.9838,10.0179,10.0696,10.1117,10.169,10.1912,10.202,10.1712,10.1712,10.1597,10.1289,9.9942,9.9481,10.0096,9.8096,9.7173,9.7519,9.7519,9.7096,9.6326,9.6865,9.6751,9.5981,9.5981,9.5862,9.5678,9.5882,9.5981,9.6,9.6232,9.5862,9.5295,9.6,9.6155,9.5885,9.5232,9.5403,9.5826,9.5211,9.5403,9.5865,9.548,9.5788,9.6172,9.5557,9.5826,9.6288,9.6288,9.6288,9.6288,9.6288,9.6288,9.6288,9.6288,9.6095,9.598,9.6249,9.5903,9.5672,9.6211,9.5172,9.4134,9.3749,9.3287,9.2787,9.221,9.2095,9.2095,9.2095,9.2095,9.2441,9.3249,9.3326,9.3095,9.2556,9.2018,9.1595,9.121,9.0748,9.0171,8.9556,8.8979,8.8556,8.8325,8.8286,8.8171,8.794,8.7055,8.6671,8.6632,8.5747,8.5055,8.8652,9.0126,9.1962,9.3142,9.5662,9.9345,10.51,10.791,11.0413,11.4198,11.1208,10.7824,10.7711,10.6012,10.3691,10.0907,10.0713,10.0585,9.9436,9.8835,9.8717,9.9243,9.9537,9.9885,10.0389,10.0397,10.0509,10.0808,10.0789,10.1019,10.1289,9.9712,9.9019,9.9558,9.7442,9.6519,9.7019,9.7019,9.6788,9.6326,9.6788,9.6788,9.6288,9.6288,9.6288,9.6288,9.6288,9.6288,9.6288,9.6288,9.602,9.5678,9.6136,9.6288,9.6249,9.5711,9.5865,9.6211,9.5711,9.5865,9.6172,9.5288,9.5595,9.6134,9.5249,9.5595,9.6288,9.6288,9.6288,9.6288,9.6288,9.6288,9.6288,9.6288,9.6288,9.6288,9.6288,9.6019,9.5903,9.6249,9.5326,9.4326,9.3787,9.371,9.3441,9.2633,9.2787,9.2979,9.2979,9.3287,9.3672,9.4172,9.421,9.4018,9.3518,9.3172,9.2633,9.1787,9.2018,9.1672,9.0479,8.994,8.9671,8.9671,8.9671,8.9671,8.9671,8.8479,8.7902,8.7902,8.6671,8.5863,9.2999,9.3902,9.5191,9.9307,10.0827,10.3002,10.9196,11.3099,11.5599,11.6109,11.3214,11.0591,11.1291,10.7502,10.4016,10.3197,10.1603,9.9942,9.8345,9.7947,9.7769,9.762,9.8292,9.8725,9.8605,9.8653,9.9014,9.9806,9.9884,10.0211,10.1019,9.9558,9.8673,9.8673,9.7134,9.6288,9.6288,9.6365,9.6365,9.6288,9.6365,9.6365,9.6288,9.6288,9.6288,9.6288,9.6288,9.6288,9.6288,9.6288,9.6288,9.6288,9.6288,9.6288,9.6288,9.6211,9.6249,9.6288,9.6211,9.6249,9.6172,9.5288,9.5595,9.6134,9.5249,9.5595,9.6288,9.6288,9.6288,9.6288,9.6288,9.6288,9.6288,9.6288,9.6288,9.6288,9.6211,9.5634,9.5326,9.6057,9.4903,9.3826,9.3826,9.3826,9.3557,9.2826,9.3364,9.3769,9.3733,9.4462,9.5018,9.5001,9.5077,9.5095,9.5018,9.4249,9.348,9.2672,9.3287,9.2979,9.1364,9.1325,9.1287,9.121,9.121,9.121,9.121,8.9594,8.8748,8.8671,8.6978,8.617,9.1771,9.3952,9.6895,10.1095,10.6081,11.0696,11.3599,11.5291,11.5886,11.4719,11.3717,11.2708,11.1518,10.941,10.7293,10.5804,10.369,10.1586,9.9992,9.8678,9.7431,9.6142,9.6629,9.6847,9.6212,9.6724,9.7388,9.8158,9.8204,9.8555,9.9308,9.8365,9.7788,9.7788,9.6826,9.6288,9.6288,9.6942,9.6903,9.6326,9.6942,9.6903,9.6288,9.6288,9.6288,9.6288,9.6288,9.6288,9.6288,9.6288,9.6288,9.6288,9.6288,9.6288,9.6211,9.5518,9.5711,9.6211,9.5518,9.5711,9.6172,9.5288,9.5595,9.6134,9.5249,9.5595,9.6288,9.6288,9.6288,9.6288,9.6288,9.6288,9.6288,9.6288,9.6288,9.6095,9.5441,9.5672,9.5865,9.5365,9.498,9.4711,9.4711,9.4711,9.4634,9.448,9.4595,9.4503,9.3944,9.4541,9.5022,9.5167,9.5654,9.5749,9.5057,9.4826,9.4326,9.348,9.3595,9.3249,9.2249,9.221,9.1902,9.121,9.121,9.121,9.121,9.0171,8.9325,8.8671,8.7594,8.6748,9.265,9.5401,9.905,10.4812,11.0102,11.4214,11.5099,11.5907,11.5999,11.4287,11.3897,11.3492,11.2104,11.0182,10.8291,10.6723,10.432,10.2008,9.9989,9.8668,9.7309,9.5694,9.6131,9.628,9.5419,9.6062,9.6803,9.7538,9.7619,9.7935,9.8769,9.798,9.7519,9.7519,9.6711,9.6288,9.6288,9.6711,9.6711,9.6326,9.6749,9.6711,9.6288,9.6288,9.6288,9.6288,9.6288,9.6288,9.6288,9.6288,9.6288,9.6288,9.6288,9.6288,9.6249,9.5788,9.5903,9.6249,9.5788,9.5903,9.6172,9.5288,9.5595,9.6134,9.5249,9.5595,9.6288,9.6288,9.6288,9.6211,9.5788,9.5672,9.5557,9.5134,9.5672,9.6172,9.5711,9.598,9.6172,9.5711,9.5634,9.548,9.5057,9.498,9.5021,9.5075,9.5111,9.4823,9.4084,9.4339,9.4716,9.5151,9.5533,9.571,9.5615,9.5634,9.5249,9.4364,9.4711,9.4364,9.3133,9.3056,9.2479,9.121,9.121,9.121,9.121,9.0325,8.9671,8.9248,8.7979,8.7171,9.3351,9.7003,10.1611,10.8678,11.2906,11.5291,11.5484,11.5984,11.6003,11.4495,11.3973,11.3606,11.2507,11.0392,10.8285,10.678,10.4504,10.2081,9.9659,9.8484,9.7313,9.5699,9.5902,9.5886,9.515,9.5629,9.631,9.7038,9.7116,9.7462,9.8327,9.7673,9.7288,9.7288,9.6634,9.6288,9.6288,9.6134,9.6095,9.6095,9.6095,9.6095,9.6095,9.6249,9.6288,9.6288,9.6288,9.6288,9.6288,9.6288,9.6288,9.6288,9.6288,9.6288,9.6288,9.6288,9.6288,9.6288,9.6288,9.6288,9.6172,9.5441,9.5711,9.6172,9.5441,9.5711,9.6288,9.6288,9.6288,9.6095,9.5211,9.498,9.4788,9.3903,9.4788,9.5826,9.5672,9.5865,9.6019,9.5865,9.6095,9.6057,9.5326,9.5098,9.5058,9.5181,9.5096,9.4743,9.4019,9.4019,9.4292,9.4768,9.4915,9.5318,9.604,9.6117,9.5848,9.5249,9.5903,9.5595,9.398,9.3903,9.3133,9.1479,9.1287,9.121,9.121,9.0479,9.0056,8.9863,8.8479,8.7748,9.0692,9.7049,10.46,11.0004,11.3291,11.5484,11.6176,11.6407,11.6224,11.52,11.4389,11.3396,11.1679,10.9987,10.8505,10.7587,10.5385,10.2889,10.0503,9.8851,9.7283,9.5629,9.49,9.446,9.4283,9.4335,9.4679,9.5448,9.5493,9.5849,9.6615,9.6519,9.648,9.648,9.6365,9.6288,9.6288,9.5557,9.5172,9.5172,9.5172,9.5172,9.5211,9.5942,9.6288,9.6288,9.6288,9.6288,9.6288,9.6288,9.6288,9.6288,9.6288,9.6288,9.6288,9.6288,9.6288,9.6288,9.6288,9.6288,9.6288,9.6172,9.6211,9.6288,9.6172,9.6211,9.6288,9.6288,9.6288,9.6095,9.5211,9.498,9.4788,9.3903,9.3864,9.3864,9.3172,9.4134,9.4941,9.4172,9.5288,9.6249,9.6134,9.5609,9.5165,9.5212,9.4668,9.3991,9.3233,9.3706,9.3907,9.3356,9.3878,9.4528,9.5295,9.5341,9.5559,9.6097,9.6249,9.5865,9.4864,9.4826,9.4018,9.2364,9.1595,9.121,9.121,9.1095,9.0633,8.9902,8.9671,8.921,9.3359,9.8499,10.4003,11.0004,11.2714,11.4291,11.6099,11.6484,11.6285,11.5413,11.4497,11.348,11.2216,11.0984,10.9715,10.7887,10.591,10.3597,10.0725,9.9232,9.7685,9.5592,9.5395,9.5037,9.4086,9.4372,9.4725,9.5054,9.5113,9.5443,9.6269,9.6288,9.6288,9.6288,9.6288,9.6117,9.57,9.5733,9.548,9.498,9.498,9.498,9.5018,9.5403,9.5826,9.6288,9.6288,9.6288,9.6288,9.6288,9.6288,9.6288,9.6288,9.6288,9.6288,9.6288,9.6288,9.6288,9.6288,9.6288,9.6288,9.6288,9.6288,9.6288,9.6288,9.6288,9.6288,9.6288,9.6288,9.598,9.4634,9.4249,9.3941,9.2595,9.2287,9.2326,9.2479,9.3826,9.5018,9.5134,9.5788,9.6288,9.6288,9.57,9.5072,9.4668,9.3963,9.3202,9.2434,9.2595,9.2858,9.2987,9.3648,9.4398,9.5142,9.5576,9.5961,9.6269,9.6288,9.6134,9.5749,9.5249,9.4634,9.3903,9.2595,9.171,9.121,9.121,9.1018,9.0633,9.0133,8.971,9.3606,9.7099,10.0511,10.7006,11.0084,11.2201,11.489,11.5676,11.5694,11.5281,11.4412,11.3271,11.2211,11.1072,10.9691,10.7616,10.573,10.3429,10.0298,9.91,9.7828,9.582,9.5868,9.5692,9.4627,9.5021,9.5326,9.5326,9.5326,9.5595,9.6288,9.6288,9.6288,9.6288,9.6117,9.5741,9.5189,9.532,9.483,9.3774,9.4156,9.448,9.4672,9.4921,9.548,9.6288,9.6288,9.6288,9.6288,9.6288,9.6288,9.6288,9.6288,9.6288,9.6288,9.6288,9.6288,9.6288,9.6288,9.6288,9.6288,9.6288,9.6288,9.6288,9.6288,9.6288,9.6288,9.6288,9.6288,9.5942,9.4441,9.3864,9.3326,9.1864,9.1364,9.1479,9.2556,9.3941,9.5249,9.6134,9.6288,9.6288,9.6288,9.5533,9.4743,9.4184,9.3326,9.2502,9.1875,9.1803,9.2055,9.2633,9.3387,9.413,9.4866,9.5576,9.6117,9.6269,9.6288,9.6288,9.6288,9.5521,9.4945,9.4715,9.3311,9.222,9.1518,9.1518,9.1441,9.1171,9.0517,9.0248,8.7487,9.0261,9.3611,9.9424,10.4501,10.8993,11.2218,11.3483,11.4407,11.5093,11.3901,11.2302,11.0589,10.8921,10.7477,10.6604,10.4417,10.189,9.9326,9.8299,9.742,9.6457,9.5699,9.549,9.6117,9.6192,9.6249,9.6249,9.6249,9.6249,9.6288,9.6288,9.6288,9.6288,9.5598,9.5212,9.5189,9.3609,9.1991,9.0351,9.1913,9.3018,9.3787,9.4595,9.548,9.6288,9.6288,9.6288,9.6288,9.6288,9.6288,9.6288,9.6288,9.6288,9.6288,9.6288,9.6288,9.6288,9.6288,9.6288,9.6288,9.6288,9.6288,9.6288,9.6288,9.6288,9.6288,9.6288,9.6288,9.6095,9.5172,9.4326,9.348,9.2633,9.1787,9.1633,9.3287,9.4364,9.5249,9.6134,9.6288,9.6288,9.6288,9.5119,9.4157,9.4102,9.2821,9.1876,9.1803,9.1803,9.184,9.1839,9.2566,9.3356,9.4102,9.4842,9.5555,9.6251,9.6288,9.6288,9.6288,9.5581,9.4815,9.3953,9.3163,9.2661,9.2441,9.2441,9.2018,9.121,9.1171,9.1133,8.6386,8.8184,9.0674,9.6522,10.0501,10.3981,10.7894,11.0721,11.2291,11.2099,11.1692,11.1014,10.9796,10.8991,10.7607,10.5199,10.3594,10.1682,9.9198,9.8111,9.726,9.6437,9.6074,9.5578,9.4692,9.4711,9.4543,9.3969,9.4428,9.5002,9.5538,9.604,9.6098,9.5598,9.5341,9.4696,9.3668,9.2549,9.1456,9.0296,9.1304,9.1962,9.2289,9.3581,9.4634,9.548,9.6057,9.6288,9.6288,9.6288,9.6288,9.6249,9.5672,9.5826,9.6249,9.5672,9.5826,9.6288,9.6288,9.6288,9.6288,9.6288,9.6288,9.6288,9.6288,9.6288,9.6288,9.6288,9.6288,9.598,9.4518,9.3941,9.348,9.2672,9.2672,9.3133,9.4287,9.5211,9.5942,9.6249,9.6288,9.6288,9.6288,9.549,9.4817,9.4817,9.3925,9.3257,9.3257,9.3257,9.3108,9.2633,9.3264,9.3821,9.4075,9.4793,9.5511,9.6251,9.6288,9.6098,9.5598,9.5341,9.4849,9.4022,9.3785,9.2794,9.1102,9.156,9.1368,9.0508,9.0989,9.121,8.4288,8.5436,8.7498,9.2559,9.5617,9.8737,10.3805,10.6815,10.8798,10.9418,10.9213,10.871,10.8186,10.7617,10.6302,10.3998,10.2419,10.0707,9.8653,9.7865,9.7211,9.6403,9.6288,9.5752,9.4349,9.4266,9.3991,9.3169,9.3639,9.4209,9.4804,9.5318,9.5212,9.4476,9.4185,9.3261,9.1665,9.1137,9.0468,8.9628,9.0031,9.0624,9.1435,9.2158,9.3409,9.5018,9.5595,9.6019,9.6288,9.6288,9.6288,9.6211,9.5326,9.5518,9.6211,9.5326,9.5557,9.6288,9.6288,9.6288,9.6288,9.6288,9.6288,9.6288,9.6288,9.6288,9.6288,9.6288,9.6288,9.6019,9.4864,9.4364,9.3941,9.3095,9.3518,9.4287,9.4864,9.5672,9.6288,9.6288,9.6288,9.6288,9.6288,9.57,9.5189,9.5189,9.4553,9.4102,9.4102,9.4102,9.3821,9.3083,9.3648,9.4102,9.4102,9.4793,9.5511,9.6251,9.6078,9.572,9.5212,9.4743,9.4238,9.3735,9.347,9.2234,8.9997,9.0991,9.0865,8.9786,9.0262,9.0658,0.0,0.0,0.0,8.7082,8.9767,9.3283,9.9746,10.1897,10.3511,10.7098,10.6503,10.5419,10.5793,10.4493,10.3311,10.2987,10.081,9.8803,9.765,9.748,9.7173,9.6403,9.6269,9.5981,9.5234,9.5166,9.4842,9.4092,9.4037,9.4075,9.4075,9.4075,9.3735,9.3051,9.2199,9.0967,8.9453,8.9303,8.8859,8.8039,8.791,8.9059,9.1216,9.052,9.1944,9.4923,9.498,9.548,9.6288,9.6288,9.6288,9.6211,9.5288,9.548,9.6172,9.5288,9.5518,9.6288,9.6288,9.6288,9.6288,9.6288,9.6288,9.6288,9.6288,9.6288,9.6288,9.6288,9.6288,9.6288,9.6288,9.5595,9.4749,9.3941,9.4364,9.5018,9.5018,9.5711,9.6288,9.6288,9.6288,9.6288,9.6288,9.57,9.5212,9.5212,9.4604,9.4157,9.413,9.413,9.385,9.3083,9.3618,9.4075,9.4075,9.4743,9.549,9.6232,9.5636,9.5212,9.5166,9.3793,9.3019,9.2955,9.2157,9.0996,8.9417,9.0849,9.0717,8.9095,8.9095,8.951,7.9195,0.0,0.0,0.0,0.0,0.0,9.1851,9.462,9.7385,10.1088,10.1514,10.1885,10.4017,10.3084,10.1817,10.0898,9.9902,9.8651,9.7062,9.6733,9.6557,9.6326,9.5841,9.5178,9.435,9.386,9.3275,9.2435,9.2958,9.3295,9.3295,9.3295,9.3477,9.3793,9.2411,9.1221,9.0212,8.9026,8.7761,8.6443,8.6289,8.6893,8.8193,8.9564,9.1353,9.3374,9.4523,9.548,9.6288,9.6288,9.6288,9.6134,9.4634,9.4595,9.5249,9.4364,9.4595,9.5441,9.6095,9.6288,9.6288,9.6288,9.6288,9.6288,9.6288,9.6288,9.6288,9.6288,9.6288,9.6134,9.5518,9.4711,9.4172,9.4557,9.4826,9.5172,9.5788,9.6134,9.6288,9.6288,9.6288,9.6095,9.548,9.5714,9.577,9.5156,9.542,9.5511,9.4939,9.4891,9.4398,9.3146,9.3171,9.3295,9.3295,9.3991,9.4743,9.5468,9.5821,9.5533,9.445,9.4019,9.3257,9.2159,9.136,9.0445,8.9417,9.0377,8.9975,8.8396,8.8883,8.9235,0.0,0.0,0.0,8.1586,0.0,0.0,8.841,9.0608,9.3035,9.6915,9.8164,9.928,10.1796,10.1582,10.0701,9.9703,9.914,9.8311,9.6809,9.6432,9.6288,9.6288,9.5657,9.4905,9.4046,9.3414,9.264,9.1798,9.2205,9.2502,9.2502,9.283,9.3208,9.3618,9.2346,9.1425,9.0959,8.8953,8.7414,8.6237,8.5477,8.5674,8.6799,8.8153,8.9936,9.2176,9.3754,9.4941,9.5788,9.6134,9.6288,9.6172,9.4788,9.4557,9.4941,9.4441,9.4557,9.5095,9.6019,9.6288,9.6288,9.6288,9.6288,9.6288,9.6288,9.6288,9.6288,9.6288,9.6288,9.6172,9.5672,9.5172,9.4903,9.5403,9.5518,9.5672,9.6172,9.6288,9.6288,9.6288,9.6288,9.6134,9.5634,9.5942,9.6134,9.5634,9.598,9.602,9.5295,9.5189,9.463,9.3177,9.2987,9.2987,9.2987,9.3387,9.3963,9.468,9.4866,9.4693,9.413,9.3793,9.3233,9.2296,9.1483,9.0354,8.8904,8.931,8.891,8.7651,8.8374,8.8884,0.0,0.0,0.0,0.0,8.2534,0.0,8.7352,8.8365,8.963,9.3786,9.532,9.6616,9.8895,9.9555,9.9414,9.8514,9.8269,9.779,9.6773,9.6465,9.6269,9.6213,9.5533,9.4793,9.4047,9.3295,9.2566,9.1839,9.1803,9.184,9.1912,9.2599,9.3045,9.3121,9.2185,9.1669,9.1593,8.9149,8.7577,8.6839,8.5355,8.5347,8.6594,8.6832,8.8492,9.1331,9.3,9.4172,9.5057,9.5942,9.6288,9.6211,9.5326,9.498,9.498,9.498,9.498,9.5095,9.6019,9.6288,9.6288,9.6288,9.6288,9.6288,9.6288,9.6288,9.6288,9.6288,9.6288,9.6288,9.6288,9.6288,9.6288,9.6288,9.6288,9.6288,9.6288,9.6288,9.6288,9.6288,9.6288,9.6288,9.6172,9.6249,9.6288,9.6172,9.6155,9.5902,9.5166,9.5025,9.4424,9.3019,9.2896,9.2896,9.2896,9.2923,9.3264,9.3935,9.3447,9.3387,9.3963,9.3356,9.2955,9.2858,9.204,9.0461,8.8206,8.8096,8.7766,8.7142,8.7876,8.8647,0.0,0.0,0.0,0.0,0.0,0.0,8.3322,8.3813,8.5272,8.913,8.9454,9.0256,9.4342,9.5651,9.5765,9.4743,9.6093,9.7188,9.6934,9.656,9.6098,9.549,9.4768,9.4019,9.3295,9.2498,9.1983,9.1803,9.1803,9.2089,9.2732,9.2891,9.323,9.3693,9.2875,9.2108,9.1446,8.9619,8.799,8.6651,8.6376,8.6378,8.6657,8.7893,8.9523,9.1455,9.3006,9.4172,9.5057,9.5942,9.6288,9.6211,9.5326,9.498,9.498,9.498,9.498,9.5095,9.6019,9.6288,9.6288,9.6288,9.6288,9.6288,9.6288,9.6288,9.6288,9.6288,9.6288,9.6288,9.6288,9.6288,9.6288,9.6288,9.6288,9.6288,9.6288,9.6288,9.6288,9.6288,9.6288,9.6095,9.5365,9.5826,9.6057,9.5365,9.5361,9.5142,9.4398,9.3793,9.3045,9.2124,9.2018,9.2018,9.2018,9.2633,9.3051,9.3202,9.3618,9.3677,9.3233,9.3083,9.2699,9.2055,9.1245,8.9961,8.8206,8.7545,8.7509,8.7986,8.8133,8.8647,0.0,0.0,0.0,8.3234,0.0,0.0,0.0,8.299,8.3271,8.6894,8.6657,8.6851,9.0504,9.157,9.2013,9.2336,9.3567,9.4621,9.5096,9.5831,9.602,9.5295,9.4528,9.3821,9.3083,9.2262,9.162,9.1216,9.1583,9.179,9.1769,9.2907,9.3443,9.3275,9.3183,9.2753,9.1948,9.0244,8.8835,8.7747,8.7391,8.7178,8.7178,8.8352,8.9544,9.078,9.2793,9.3941,9.4441,9.5749,9.6288,9.6249,9.5826,9.5365,9.5057,9.548,9.5365,9.5095,9.6019,9.6288,9.6288,9.6288,9.6288,9.6288,9.6288,9.6288,9.6288,9.6288,9.6288,9.6288,9.6288,9.6288,9.6288,9.6288,9.6288,9.6288,9.6288,9.6288,9.6288,9.6288,9.6,9.5708,9.5674,9.5693,9.5588,9.5167,9.4814,9.4372,9.3648,9.3202,9.2699,9.1875,9.1803,9.1803,9.1803,9.2159,9.2399,9.2399,9.2761,9.295,9.2987,9.2987,9.2607,9.1771,9.062,8.9417,8.8206,8.7399,8.7435,8.8206,8.861,8.9234,0.0,0.0,0.0,0.0,0.0,8.3621,0.0,0.0,0.0,8.5525,8.5096,8.4876,8.7058,8.7592,8.8182,8.9732,9.0651,9.1403,9.2152,9.4022,9.5118,9.4555,9.4099,9.3558,9.279,9.1927,9.1179,9.0629,9.0958,9.1011,9.072,9.2711,9.3529,9.2842,9.3544,9.348,9.2518,9.1095,8.9936,8.9085,8.8588,8.8283,8.8168,8.8971,8.9726,9.0517,9.2749,9.3787,9.4057,9.5634,9.6288,9.6288,9.6288,9.5865,9.5326,9.6057,9.5865,9.5326,9.6057,9.6288,9.6288,9.6288,9.6288,9.6288,9.6288,9.6288,9.6288,9.6288,9.6288,9.6288,9.6288,9.6288,9.6288,9.6288,9.6288,9.6288,9.6288,9.6288,9.6288,9.6288,9.5821,9.5555,9.6,9.549,9.4963,9.4963,9.4372,9.3677,9.3083,9.2858,9.2498,9.1839,9.1803,9.1803,9.1803,9.1803,9.1803,9.1803,9.1803,9.2089,9.2765,9.2765,9.2431,9.1725,9.0502,8.9491,8.8647,8.8023,8.7949,8.8463,8.9124,8.9931,0.0,0.0,0.0,0.0,8.7569,0.0,0.0,0.0,8.501,8.3929,0.0,8.3698,8.4015,0.0,0.0,8.5156,8.7128,8.8525,8.844,9.0411,9.1869,9.193,9.2531,9.2665,9.1901,9.0664,9.0109,9.0555,8.9522,8.9632,9.1384,9.2415,9.311,9.3562,9.4423,9.4095,9.2518,9.2287,9.1367,8.9776,9.0485,9.0391,8.966,9.0544,9.1387,9.2249,9.3249,9.4134,9.4903,9.5903,9.6288,9.6288,9.6288,9.6249,9.6172,9.6249,9.6249,9.6172,9.6288,9.6288,9.6288,9.6288,9.6288,9.6288,9.6288,9.6288,9.6288,9.6288,9.6288,9.6288,9.6288,9.6288,9.6288,9.6288,9.6288,9.6288,9.6288,9.6288,9.6288,9.6288,9.6232,9.6,9.5407,9.4718,9.4238,9.4238,9.3589,9.3114,9.3019,9.2365,9.1912,9.1803,9.1803,9.1803,9.1803,9.1803,9.1803,9.1803,9.1803,9.184,9.1912,9.1947,9.1911,9.18,9.1619,9.1143,9.0335,9.0262,8.9895,8.9271,8.9345,9.0225,0.0,0.0,0.0,0.0,0.0,0.0,8.5562,0.0,8.4087,0.0,0.0,0.0,0.0,0.0,0.0,0.0,8.459,8.5291,8.5723,8.6851,8.8235,8.9791,9.0715,9.0954,9.0174,8.9182,8.8444,8.8235,8.8556,8.8926,8.9242,9.1933,9.3282,9.3,9.4287,9.4403,9.321,9.321,9.2595,9.1402,9.1787,9.1518,9.0671,9.1018,9.1402,9.1787,9.2633,9.348,9.4287,9.5172,9.5579,9.5678,9.5678,9.5902,9.6251,9.5821,9.5678,9.5598,9.5166,9.5318,9.572,9.6155,9.6288,9.6288,9.6288,9.6288,9.6232,9.5762,9.5678,9.5678,9.5678,9.5341,9.5142,9.5555,9.5341,9.501,9.501,9.5363,9.5678,9.5678,9.5678,9.5555,9.5234,9.4939,9.4743,9.4743,9.413,9.347,9.3051,9.2699,9.2296,9.1876,9.1803,9.1803,9.1803,9.1803,9.1803,9.1803,9.1803,9.1803,9.1803,9.1803,9.1803,9.1803,9.1326,9.0959,9.0592,9.0152,8.9968,9.0115,9.0115,9.0702,9.0566,0.0,0.0,0.0,0.0,0.0,0.0,0.0,0.0,0.0,0.0,0.0,0.0,0.0,0.0,0.0,0.0,8.3271,8.3854,8.4417,8.5389,8.7255,8.843,8.8851,8.8338,8.737,8.6605,8.6176,8.6906,8.7447,8.7595,9.0933,9.2856,9.2808,9.4249,9.4711,9.4057,9.3826,9.3403,9.2826,9.2826,9.2364,9.1556,9.1556,9.1556,9.1595,9.221,9.3095,9.4095,9.4523,9.4895,9.5166,9.4963,9.5212,9.5619,9.5096,9.4891,9.4842,9.4502,9.4891,9.5576,9.6136,9.6155,9.6,9.6,9.5862,9.5576,9.5072,9.4891,9.4891,9.4891,9.4502,9.4238,9.4768,9.4476,9.4102,9.4102,9.4502,9.4891,9.4891,9.4891,9.4891,9.4891,9.4891,9.4891,9.4891,9.445,9.3907,9.3387,9.3295,9.3019,9.2229,9.2124,9.2018,9.184,9.1803,9.1803,9.1803,9.1803,9.1803,9.1803,9.1803,9.1803,9.1803,9.1216,9.0922,9.0922,9.0335,9.0372,9.0922,9.0702,9.1033,0.0,0.0,0.0,8.8676,0.0,0.0,0.0,0.0,8.8545,0.0,0.0,0.0,0.0,0.0,0.0,0.0,0.0,0.0,0.0,8.3596,8.4003,8.3888,8.536,8.6427,8.6474,8.5235,8.462,8.5117,8.3978,8.4537,8.7443,8.9277,9.1288,9.3577,9.4518,9.498,9.496,9.4095,9.3672,9.3672,9.3672,9.3249,9.2441,9.2441,9.2441,9.2441,9.2479,9.3441,9.4905,9.4233,9.4426,9.5142,9.4424,9.4157,9.4184,9.4157,9.413,9.4238,9.4915,9.5657,9.6269,9.6288,9.5821,9.525,9.525,9.4743,9.4157,9.4157,9.413,9.413,9.413,9.413,9.4102,9.413,9.413,9.4102,9.4102,9.413,9.413,9.413,9.413,9.413,9.413,9.413,9.413,9.413,9.413,9.4102,9.4075,9.4075,9.3793,9.3051,9.2955,9.2633,9.1839,9.1803,9.1803,9.1803,9.1803,9.1803,9.1803,9.1803,9.1803,9.1803,9.1767,9.1767,9.1767,9.173,9.173,9.173,9.0959,9.1033,0.0,0.0,9.4596,9.0381,0.0,0.0,0.0,0.0,0.0,0.0,0.0,0.0,0.0,0.0,0.0,0.0,0.0,0.0,0.0,8.055,8.1014,8.2109,8.3506,8.4671,8.5361,8.4366,8.3562,8.3197,8.3334,8.3866,8.4893,8.8153,9.0607,9.2018,9.3403,9.4403,9.498,9.4711,9.4249,9.371,9.4287,9.4095,9.3287,9.2749,9.2479,9.2479,9.2479,9.3133,9.4136,9.3982,9.413,9.4398,9.3648,9.3045,9.2629,9.3171,9.3677,9.4211,9.4939,9.5363,9.5576,9.5576,9.5385,9.5119,9.4604,9.4292,9.3991,9.3537,9.3387,9.3387,9.3387,9.2982,9.2728,9.3233,9.295,9.2562,9.2562,9.2982,9.3387,9.3387,9.3764,9.4102,9.4102,9.4102,9.4265,9.4768,9.4842,9.463,9.4157,9.4102,9.3618,9.2331,9.2699,9.2666,9.1839,9.1803,9.1803,9.1803,9.1803,9.1803,9.1803,9.1803,9.1803,9.1803,9.1803,9.1803,9.1803,9.1803,9.1803,9.1803,9.151,9.1546,9.5955,9.6148,0.0,9.1595,9.121,0.0,8.829,0.0,0.0,0.0,0.0,0.0,0.0,0.0,0.0,0.0,0.0,0.0,0.0,7.9018,7.9759,8.1592,8.2548,8.3285,8.3934,8.3336,8.2583,8.181,8.2282,8.2907,8.3555,8.7055,8.9671,9.1171,9.2556,9.3826,9.498,9.4672,9.4403,9.4172,9.5057,9.5018,9.4134,9.3633,9.321,9.2941,9.2941,9.3403,9.4136,9.3982,9.397,9.4047,9.3559,9.2923,9.2262,9.283,9.3618,9.4553,9.5048,9.5363,9.5555,9.5295,9.501,9.4655,9.3935,9.35,9.3239,9.3103,9.2825,9.264,9.2973,9.2416,9.1912,9.2468,9.2194,9.1803,9.1803,9.2229,9.2566,9.2566,9.295,9.3288,9.3288,9.353,9.4047,9.5072,9.4963,9.4743,9.4502,9.4265,9.3618,9.2365,9.2699,9.2666,9.1839,9.1803,9.1803,9.1803,9.1803,9.1803,9.1803,9.1803,9.206,9.2684,9.2097,9.2097,9.2684,9.2097,9.1803,9.1803,9.1803,9.1803]}]]